[[{"header":{"parameterUnit":"m.s-1","parameterCategory":1,"la1":30.6,"la2":28.766,"lo1":-90.7593,"lo2":-88.6598,"dy":0.0162,"dx":0.0183,"nx":116,"ny":114,"refTime":"2023-06-06T06:00:00:Z","depth":0,"parameterNumber":2,"parameterNumberName":"U-component_of_WINDS"},"data":[0.0,0.0,0.0,0.0,0.0,0.0,0.0,0.0,0.0,0.0,0.0,0.0,0.0,0.0,0.0,0.0,0.0,0.0,0.0,0.0,0.0,0.0,0.0,0.0,0.0,0.0,0.0,0.0,0.0,0.0,0.0,0.0,0.0,0.0,0.0,0.0,0.0,0.0,0.0,0.0,0.0,0.0,0.0,0.0,0.0,0.0,0.0,0.0,0.0,0.0,0.0,0.0,0.0,0.0,0.0,0.0,0.0,0.0,0.0,0.0,0.0,0.0,0.0,0.0,0.0,0.0,0.0,0.0,0.0,0.0,0.0,0.0,0.0,0.0,0.0,0.0,0.0,0.0,0.0,0.0,0.0,0.0,0.0,0.0,0.0,0.0,0.0,0.0,0.0,0.0,0.0,0.0,0.0,0.0,0.0,0.0,0.0,0.0,0.0,0.0,0.0,0.0,0.0,0.0,0.0,0.0,0.0,0.0,0.0,0.0,0.0,0.0,0.0,0.0,0.0,0.0,0.0,0.0,0.0,0.0,0.0,0.0,0.0,0.0,0.0,0.0,0.0,0.0,0.0,0.0,0.0,0.0,0.0,0.0,0.0,0.0,0.0,0.0,0.0,0.0,0.0,0.0,0.0,0.0,0.0,0.0,0.0,0.0,0.0,0.0,0.0,0.0,0.0,0.0,0.0,0.0,0.0,0.0,0.0,0.0,0.0,0.0,0.0,0.0,0.0,0.0,0.0,0.0,0.0,0.0,0.0,0.0,0.0,0.0,0.0,0.0,0.0,0.0,0.0,0.0,0.0,0.0,0.0,0.0,0.0,0.0,0.0,0.0,0.0,0.0,0.0,0.0,0.0,0.0,0.0,0.0,0.0,0.0,0.0,0.0,0.0,0.0,0.0,0.0,0.0,0.0,0.0,0.0,0.0,0.0,0.0,0.0,0.0,0.0,0.0,0.0,0.0,0.0,0.0,0.0,0.0,0.0,0.0,0.0,0.0,0.0,0.0,0.0,0.0,0.0,0.0,0.0,0.0,0.0,0.0,0.0,0.0,0.0,0.0,0.0,0.0,0.0,0.0,0.0,0.0,0.0,0.0,0.0,0.0,0.0,0.0,0.0,0.0,0.0,0.0,0.0,0.0,0.0,0.0,0.0,0.0,0.0,0.0,0.0,0.0,0.0,0.0,0.0,0.0,0.0,0.0,0.0,0.0,0.0,0.0,0.0,0.0,0.0,0.0,0.0,0.0,0.0,0.0,0.0,0.0,0.0,0.0,0.0,0.0,0.0,0.0,0.0,0.0,0.0,0.0,0.0,0.0,0.0,0.0,0.0,0.0,0.0,0.0,0.0,0.0,0.0,0.0,0.0,0.0,0.0,0.0,0.0,0.0,0.0,0.0,0.0,0.0,0.0,0.0,0.0,0.0,0.0,0.0,0.0,0.0,0.0,0.0,0.0,0.0,0.0,0.0,0.0,0.0,0.0,0.0,0.0,0.0,0.0,0.0,0.0,0.0,0.0,0.0,0.0,0.0,0.0,0.0,0.0,0.0,0.0,0.0,0.0,0.0,0.0,0.0,0.0,0.0,0.0,0.0,0.0,0.0,0.0,0.0,0.0,0.0,0.0,0.0,0.0,0.0,0.0,0.0,0.0,0.0,0.0,0.0,0.0,0.0,0.0,0.0,0.0,0.0,0.0,0.0,0.0,0.0,0.0,0.0,0.0,0.0,0.0,0.0,0.0,0.0,0.0,0.0,0.0,0.0,0.0,0.0,0.0,0.0,0.0,0.0,0.0,0.0,0.0,0.0,0.0,0.0,0.0,0.0,0.0,0.0,0.0,0.0,0.0,0.0,0.0,0.0,0.0,0.0,0.0,0.0,0.0,0.0,0.0,0.0,0.0,0.0,0.0,0.0,0.0,0.0,0.0,0.0,0.0,0.0,0.0,0.0,0.0,0.0,0.0,0.0,0.0,0.0,0.0,0.0,0.0,0.0,0.0,0.0,0.0,0.0,0.0,0.0,0.0,0.0,0.0,0.0,0.0,0.0,0.0,0.0,0.0,0.0,0.0,0.0,0.0,0.0,0.0,0.0,0.0,0.0,0.0,0.0,0.0,0.0,0.0,0.0,0.0,0.0,0.0,0.0,0.0,0.0,0.0,0.0,0.0,0.0,0.0,0.0,0.0,0.0,0.0,0.0,0.0,0.0,0.0,0.0,0.0,0.0,0.0,0.0,0.0,0.0,0.0,0.0,0.0,0.0,0.0,0.0,0.0,0.0,0.0,0.0,0.0,0.0,0.0,0.0,0.0,0.0,0.0,0.0,0.0,0.0,0.0,0.0,0.0,0.0,0.0,0.0,0.0,0.0,0.0,0.0,0.0,0.0,0.0,0.0,0.0,0.0,0.0,0.0,0.0,0.0,0.0,0.0,0.0,0.0,0.0,0.0,0.0,0.0,0.0,0.0,0.0,0.0,0.0,0.0,0.0,0.0,0.0,0.0,0.0,0.0,0.0,0.0,0.0,0.0,0.0,0.0,0.0,0.0,0.0,0.0,0.0,0.0,0.0,0.0,0.0,0.0,0.0,0.0,0.0,0.0,0.0,0.0,0.0,0.0,0.0,0.0,0.0,0.0,0.0,0.0,0.0,0.0,0.0,0.0,0.0,0.0,0.0,0.0,0.0,0.0,0.0,0.0,0.0,0.0,0.0,0.0,0.0,0.0,0.0,0.0,0.0,0.0,0.0,0.0,0.0,0.0,0.0,0.0,0.0,0.0,0.0,0.0,0.0,0.0,0.0,0.0,0.0,0.0,0.0,0.0,0.0,0.0,0.0,0.0,0.0,0.0,0.0,0.0,0.0,0.0,0.0,0.0,0.0,0.0,0.0,0.0,0.0,0.0,0.0,0.0,0.0,0.0,0.0,0.0,0.0,0.0,0.0,0.0,0.0,0.0,0.0,0.0,0.0,0.0,0.0,0.0,0.0,0.0,0.0,0.0,0.0,0.0,0.0,0.0,0.0,0.0,0.0,0.0,0.0,0.0,0.0,0.0,0.0,0.0,0.0,0.0,0.0,0.0,0.0,0.0,0.0,0.0,0.0,0.0,0.0,0.0,0.0,0.0,0.0,0.0,0.0,0.0,0.0,0.0,0.0,0.0,0.0,0.0,0.0,0.0,0.0,0.0,0.0,0.0,0.0,0.0,0.0,0.0,0.0,0.0,0.0,0.0,0.0,0.0,0.0,0.0,0.0,0.0,0.0,0.0,0.0,0.0,0.0,0.0,0.0,0.0,0.0,0.0,0.0,0.0,0.0,0.0,0.0,0.0,0.0,0.0,0.0,0.0,0.0,0.0,0.0,0.0,0.0,0.0,0.0,0.0,0.0,0.0,0.0,0.0,0.0,0.0,0.0,0.0,0.0,0.0,0.0,0.0,0.0,0.0,0.0,0.0,0.0,0.0,0.0,0.0,0.0,0.0,0.0,0.0,0.0,0.0,0.0,0.0,0.0,0.0,0.0,0.0,0.0,0.0,0.0,0.0,0.0,0.0,0.0,0.0,0.0,0.0,0.0,0.0,0.0,0.0,0.0,0.0,0.0,0.0,0.0,0.0,0.0,0.0,0.0,0.0,0.0,0.0,0.0,0.0,0.0,0.0,0.0,0.0,0.0,0.0,0.0,0.0,0.0,0.0,0.0,0.0,0.0,0.0,0.0,0.0,0.0,0.0,0.0,0.0,0.0,0.0,0.0,0.0,0.0,0.0,0.0,0.0,0.0,0.0,0.0,0.0,0.0,0.0,0.0,0.0,0.0,0.0,0.0,0.0,0.0,0.0,0.0,0.0,0.0,0.0,0.0,0.0,0.0,0.0,0.0,0.0,0.0,0.0,0.0,0.0,0.0,0.0,0.0,0.0,0.0,0.0,0.0,0.0,0.0,0.0,0.0,0.0,0.0,0.0,0.0,0.0,0.0,0.0,0.0,0.0,0.0,0.0,0.0,0.0,0.0,0.0,0.0,0.0,0.0,0.0,0.0,0.0,0.0,0.0,0.0,0.0,0.0,0.0,0.0,0.0,0.0,0.0,0.0,0.0,0.0,0.0,0.0,0.0,0.0,0.0,0.0,0.0,0.0,0.0,0.0,0.0,0.0,0.0,0.0,0.0,0.0,0.0,0.0,0.0,0.0,0.0,0.0,0.0,0.0,0.0,0.0,0.0,0.0,0.0,0.0,0.0,0.0,0.0,0.0,0.0,0.0,0.0,0.0,0.0,0.0,0.0,0.0,0.0,0.0,0.0,0.0,0.0,0.0,0.0,0.0,0.0,0.0,0.0,0.0,0.0,0.0,0.0,0.0,0.0,0.0,0.0,0.0,0.0,0.0,0.0,0.0,0.0,0.0,0.0,0.0,0.0,0.0,0.0,0.0,0.0,0.0,0.0,0.0,0.0,0.0,0.0,0.0,0.0,0.0,0.0,0.0,0.0,0.0,0.0,0.0,0.0,0.0,0.0,0.0,0.0,0.0,0.0,0.0,0.0,0.0,0.0,0.0,0.0,0.0,0.0,0.0,0.0,0.0,0.0,0.0,0.0,0.0,0.0,0.0,0.0,0.0,0.0,0.0,0.0,0.0,0.0,0.0,0.0,0.0,0.0,0.0,0.0,0.0,0.0,0.0,0.0,0.0,0.0,0.0,0.0,0.0,0.0,0.0,0.0,0.0,0.0,0.0,0.0,0.0,0.0,0.0,0.0,0.0,0.0,0.0,0.0,0.0,0.0,0.0,0.0,0.0,0.0,0.0,0.0,0.0,0.0,0.0,0.0,0.0,0.0,0.0,0.0,0.0,0.0,0.0,0.0,0.0,0.0,0.0,0.0,0.0,0.0,0.0,0.0,0.0,0.0,0.0,0.0,0.0,0.0,0.0,0.0,0.0,0.0,0.0,0.0,0.0,0.0,0.0,0.0,0.0,0.0,0.0,0.0,0.0,0.0,0.0,0.0,0.0,0.0,0.0,0.0,0.0,0.0,0.0,0.0,0.0,0.0,0.0,0.0,0.0,0.0,0.0,0.0,0.0,0.0,0.0,0.0,0.0,0.0,0.0,0.0,0.0,0.0,0.0,0.0,0.0,0.0,0.0,0.0,0.0,0.0,0.0,0.0,0.0,0.0,0.0,0.0,0.0,0.0,0.0,0.0,0.0,0.0,0.0,0.0,0.0,0.0,0.0,0.0,0.0,0.0,0.0,0.0,0.0,0.0,0.0,0.0,0.0,0.0,0.0,0.0,0.0,0.0,0.0,0.0,0.0,0.0,0.0,0.0,0.0,0.0,0.0,0.0,0.0,0.0,0.0,0.0,0.0,0.0,0.0,0.0,0.0,0.0,0.0,0.0,0.0,0.0,0.0,0.0,0.0,0.0,0.0,0.0,0.0,0.0,0.0,0.0,0.0,0.0,0.0,0.0,0.0,0.0,0.0,0.0,0.0,0.0,0.0,0.0,0.0,0.0,0.0,0.0,0.0,0.0,0.0,0.0,0.0,0.0,0.0,0.0,0.0,0.0,0.0,0.0,0.0,0.0,0.0,0.0,0.0,0.0,0.0,0.0,0.0,0.0,0.0,0.0,0.0,0.0,0.0,0.0,0.0,0.0,0.0,0.0,0.0,0.0,0.0,0.0,0.0,0.0,0.0,0.0,0.0,0.0,0.0,0.0,0.0,0.0,0.0,0.0,0.0,0.0,0.0,0.0,0.0,0.0,0.0,0.0,0.0,0.0,0.0,0.0,0.0,0.0,0.0,0.0,0.0,0.0,0.0,0.0,0.0,0.0,0.0,0.0,0.0,0.0,0.0,0.0,0.0,0.0,0.0,0.0,0.0,0.0,0.0,0.0,0.0,0.0,0.0,0.0,0.0,0.0,0.0,0.0,0.0,0.0,0.0,0.0,0.0,0.0,0.0,0.0,0.0,0.0,0.0,0.0,0.0,0.0,0.0,0.0,0.0,0.0,0.0,0.0,0.0,0.0,0.0,0.0,0.0,0.0,0.0,0.0,0.0,0.0,0.0,0.0,0.0,0.0,0.0,0.0,0.0,0.0,0.0,0.0,0.0,0.0,0.0,0.0,0.0,0.0,0.0,-3.4733,0.0,0.0,0.0,0.0,0.0,0.0,0.0,0.0,0.0,0.0,0.0,0.0,0.0,0.0,0.0,0.0,0.0,0.0,0.0,0.0,0.0,0.0,0.0,0.0,0.0,0.0,0.0,0.0,0.0,0.0,0.0,0.0,0.0,0.0,0.0,0.0,0.0,0.0,0.0,-3.56,-3.56,-3.56,-3.56,-3.56,-3.56,0.0,0.0,0.0,0.0,0.0,0.0,0.0,0.0,0.0,0.0,0.0,0.0,0.0,0.0,0.0,0.0,0.0,0.0,0.0,0.0,0.0,0.0,0.0,0.0,0.0,0.0,0.0,0.0,0.0,0.0,0.0,0.0,0.0,0.0,0.0,0.0,0.0,0.0,0.0,0.0,0.0,0.0,0.0,0.0,0.0,0.0,0.0,0.0,0.0,0.0,0.0,0.0,0.0,0.0,0.0,0.0,0.0,0.0,0.0,0.0,0.0,0.0,0.0,0.0,0.0,0.0,0.0,0.0,0.0,0.0,0.0,-3.529,0.0,0.0,0.0,0.0,0.0,0.0,0.0,0.0,0.0,0.0,0.0,0.0,0.0,0.0,0.0,0.0,0.0,0.0,0.0,0.0,0.0,0.0,0.0,0.0,-3.5554,-3.5594,-3.5577,0.0,0.0,0.0,0.0,0.0,0.0,0.0,0.0,0.0,0.0,0.0,-3.56,-3.56,-3.56,-3.5492,-3.5447,-3.5447,-3.5447,0.0,0.0,0.0,0.0,0.0,0.0,0.0,0.0,0.0,0.0,0.0,0.0,0.0,0.0,0.0,0.0,0.0,0.0,0.0,0.0,0.0,0.0,0.0,0.0,0.0,0.0,0.0,0.0,0.0,0.0,0.0,0.0,0.0,0.0,0.0,0.0,0.0,0.0,0.0,0.0,0.0,0.0,0.0,0.0,0.0,0.0,0.0,0.0,0.0,0.0,0.0,0.0,0.0,0.0,0.0,0.0,0.0,0.0,0.0,0.0,0.0,0.0,0.0,-3.6957,-3.7119,-3.6984,-3.68,-3.6693,-3.6662,-3.6554,-3.6184,-3.5737,-3.6261,0.0,0.0,0.0,0.0,0.0,0.0,0.0,0.0,0.0,0.0,0.0,0.0,0.0,0.0,0.0,0.0,0.0,0.0,0.0,0.0,0.0,-3.5337,-3.5383,-3.5514,-3.5514,-3.5543,0.0,0.0,0.0,0.0,0.0,0.0,0.0,-3.56,-3.56,-3.56,-3.56,-3.56,-3.56,-3.5115,-3.4904,-3.4904,-3.4776,-3.4657,-3.4521,0.0,0.0,0.0,0.0,0.0,0.0,0.0,0.0,0.0,0.0,0.0,0.0,0.0,0.0,0.0,0.0,0.0,0.0,0.0,0.0,0.0,0.0,0.0,0.0,0.0,0.0,0.0,0.0,0.0,0.0,0.0,0.0,0.0,0.0,0.0,0.0,0.0,0.0,0.0,0.0,0.0,-3.3398,-3.3398,0.0,0.0,0.0,0.0,0.0,0.0,0.0,0.0,0.0,0.0,0.0,0.0,0.0,-3.6266,-3.6266,-3.699,-3.7338,-3.7338,-3.7252,-3.7119,-3.6984,-3.68,-3.6631,-3.6523,-3.6523,0.0,-3.6368,-3.6445,0.0,0.0,0.0,0.0,0.0,0.0,0.0,0.0,0.0,0.0,0.0,0.0,0.0,0.0,0.0,0.0,0.0,0.0,0.0,0.0,0.0,-3.5389,-3.5481,-3.5549,-3.5549,-3.5571,-3.56,0.0,0.0,0.0,0.0,0.0,0.0,-3.56,-3.56,-3.56,-3.56,-3.56,-3.56,-3.5356,-3.5108,-3.4769,-3.4276,-3.4028,-3.3928,-3.3572,0.0,0.0,0.0,0.0,0.0,0.0,0.0,0.0,0.0,0.0,0.0,0.0,0.0,0.0,0.0,0.0,0.0,0.0,0.0,0.0,0.0,0.0,0.0,0.0,0.0,0.0,0.0,0.0,0.0,0.0,0.0,0.0,0.0,0.0,0.0,0.0,0.0,0.0,0.0,-3.345,-3.3309,-3.3309,-3.3625,-3.3862,0.0,0.0,0.0,0.0,0.0,0.0,0.0,0.0,0.0,-3.5963,-3.6658,-3.7022,-3.7022,-3.7322,-3.7421,-3.7211,-3.7135,-3.6953,-3.6724,-3.6647,-3.6554,-3.6492,-3.6492,-3.6492,-3.6492,-3.6492,-3.6492,-3.6492,0.0,0.0,0.0,0.0,-3.6492,-3.6492,0.0,0.0,0.0,0.0,0.0,0.0,0.0,0.0,0.0,0.0,0.0,0.0,-3.5198,-3.5344,-3.5441,-3.5464,-3.5509,-3.5549,-3.5571,-3.5577,0.0,0.0,0.0,0.0,0.0,0.0,-3.56,-3.56,-3.56,-3.56,-3.56,-3.5447,-3.5091,-3.4512,-3.3751,-3.3391,-3.3365,-3.305,-3.2625,-3.2176,0.0,0.0,0.0,0.0,0.0,0.0,0.0,0.0,0.0,0.0,0.0,0.0,0.0,0.0,0.0,0.0,0.0,0.0,0.0,0.0,0.0,0.0,0.0,0.0,0.0,0.0,0.0,0.0,0.0,0.0,0.0,0.0,0.0,0.0,0.0,0.0,0.0,-3.3719,-3.383,-3.383,-3.4273,-3.4573,0.0,0.0,0.0,0.0,0.0,0.0,-3.5916,-3.6406,-3.669,-3.669,-3.7196,-3.751,-3.751,-3.7435,-3.7285,-3.706,-3.6969,-3.68,-3.6554,-3.6523,-3.6492,-3.6492,-3.6492,-3.6492,-3.6492,-3.6492,-3.6492,-3.6492,-3.6492,-3.6492,-3.6492,-3.6492,-3.6492,-3.6492,0.0,0.0,0.0,0.0,0.0,0.0,0.0,0.0,0.0,0.0,0.0,-3.4923,-3.4923,-3.4923,-3.4994,-3.5111,-3.5245,-3.536,-3.5492,-3.5571,-3.56,-3.56,-3.56,0.0,0.0,0.0,-3.56,-3.56,-3.56,-3.56,-3.56,-3.5068,-3.4488,-3.3811,-3.3145,-3.2841,-3.2788,-3.1951,-3.1582,-3.1568,-3.1568,0.0,0.0,0.0,0.0,0.0,0.0,0.0,0.0,0.0,0.0,0.0,0.0,0.0,0.0,0.0,0.0,0.0,0.0,0.0,0.0,0.0,0.0,0.0,0.0,0.0,0.0,0.0,0.0,0.0,0.0,0.0,0.0,0.0,0.0,0.0,0.0,0.0,0.0,-3.5284,-3.5315,0.0,0.0,0.0,0.0,-3.6298,-3.6345,-3.6674,-3.7368,-3.7431,-3.7447,-3.7447,-3.7494,-3.751,-3.751,-3.73,-3.7224,-3.7194,-3.6861,-3.6723,-3.6693,-3.6554,-3.6492,-3.6492,-3.6492,-3.6492,-3.6492,-3.6492,-3.6492,-3.6492,-3.6492,-3.6492,-3.6492,-3.6492,-3.6492,-3.6492,0.0,0.0,0.0,0.0,0.0,0.0,0.0,0.0,0.0,-3.4899,-3.497,-3.5018,-3.5018,-3.5105,-3.5175,-3.5222,-3.5337,-3.5446,-3.5492,-3.5571,-3.56,-3.56,-3.56,0.0,0.0,0.0,-3.56,-3.56,-3.56,-3.56,-3.56,-3.5045,-3.4439,-3.3761,-3.3093,-3.2574,-3.215,-3.1697,-3.1511,-3.1511,-3.1511,-3.1645,0.0,0.0,0.0,0.0,0.0,0.0,0.0,0.0,0.0,0.0,0.0,0.0,0.0,0.0,0.0,0.0,0.0,0.0,0.0,0.0,0.0,0.0,0.0,0.0,0.0,0.0,0.0,0.0,0.0,0.0,0.0,0.0,0.0,0.0,0.0,0.0,0.0,-3.5331,-3.5789,0.0,-3.6058,-3.6469,-3.6861,-3.7085,-3.7101,-3.7212,-3.7494,-3.751,-3.751,-3.751,-3.751,-3.7435,-3.73,-3.7254,-3.7104,-3.6861,-3.6754,-3.6662,-3.6585,-3.6523,-3.6492,-3.6492,-3.6492,-3.6492,-3.6492,-3.6492,-3.6492,-3.6492,-3.6492,-3.6492,-3.6492,-3.6492,-3.6492,-3.6492,0.0,0.0,0.0,0.0,0.0,0.0,0.0,0.0,0.0,-3.4899,-3.497,-3.5018,-3.5018,-3.5111,-3.5175,-3.5175,-3.5291,-3.5383,-3.5423,-3.552,-3.5594,-3.56,-3.56,0.0,0.0,-3.56,-3.5481,-3.5233,-3.5233,-3.5115,-3.4856,-3.4515,-3.399,-3.3347,-3.2919,-3.2342,-3.1698,-3.1568,-3.1511,-3.1511,-3.1511,-3.1511,-3.1511,0.0,0.0,0.0,0.0,0.0,0.0,0.0,0.0,0.0,0.0,0.0,0.0,0.0,0.0,0.0,0.0,0.0,0.0,0.0,0.0,0.0,0.0,0.0,0.0,0.0,0.0,0.0,0.0,0.0,0.0,0.0,0.0,0.0,0.0,0.0,-3.5189,-3.5679,-3.6358,-3.6785,-3.6785,-3.7196,-3.751,-3.751,-3.751,-3.751,-3.751,-3.751,-3.751,-3.751,-3.7656,-3.7676,-3.7539,-3.7668,-3.7639,-3.7389,-3.7358,-3.7264,-3.7169,-3.7169,-3.7169,-3.7169,-3.7169,-3.7169,-3.7169,-3.7169,-3.703,-3.6799,-3.6584,-3.6492,-3.6492,-3.6492,-3.6492,-3.6492,0.0,0.0,0.0,0.0,0.0,0.0,0.0,-3.4899,-3.4899,-3.4899,-3.4899,-3.4899,-3.4899,-3.4899,-3.4899,-3.4899,-3.5018,-3.5175,-3.5291,-3.5423,-3.552,-3.56,0.0,0.0,-3.5566,-3.5566,-3.5194,-3.4455,-3.4455,-3.41,-3.3381,-3.3404,-3.3087,-3.2449,-3.2482,-3.2114,-3.1466,-3.1466,-3.1481,-3.1511,-3.1511,-3.1511,-3.1511,0.0,0.0,0.0,0.0,0.0,0.0,0.0,0.0,0.0,0.0,0.0,0.0,0.0,0.0,0.0,0.0,0.0,0.0,0.0,0.0,0.0,0.0,0.0,0.0,0.0,0.0,0.0,0.0,0.0,0.0,0.0,0.0,0.0,-3.4225,-3.5521,-3.6393,-3.6424,-3.7069,-3.751,-3.751,-3.751,-3.751,-3.751,-3.7526,-3.7541,-3.7541,-3.7557,-3.7573,-3.7573,-3.8008,-3.8246,-3.8246,-3.8619,-3.8815,-3.8815,-3.8589,-3.8508,-3.8508,-3.8508,-3.8508,-3.8508,-3.8508,-3.8508,-3.8508,-3.8508,-3.8123,-3.7461,-3.6784,-3.6507,-3.6492,-3.6492,-3.6492,-3.6492,0.0,0.0,0.0,0.0,0.0,0.0,0.0,-3.4899,-3.4899,-3.4899,-3.4899,-3.4899,-3.4899,-3.4899,-3.4899,-3.4899,-3.5018,-3.5175,-3.5291,-3.5314,-3.5423,-3.552,0.0,0.0,-3.481,-3.4793,-3.4438,-3.3694,-3.3694,-3.3426,-3.2884,-3.242,-3.1863,-3.1253,-3.0775,-3.0646,-3.0763,-3.0763,-3.1047,-3.1511,-3.1511,-3.1511,-3.1511,0.0,0.0,0.0,0.0,0.0,0.0,0.0,0.0,0.0,0.0,0.0,0.0,0.0,0.0,0.0,0.0,0.0,0.0,0.0,0.0,0.0,0.0,0.0,0.0,0.0,0.0,0.0,0.0,0.0,0.0,0.0,0.0,-3.4273,-3.4984,-3.5426,-3.6042,-3.7069,-3.7399,-3.751,-3.751,-3.751,-3.751,-3.751,-3.7938,-3.8239,-3.8239,-3.8681,-3.895,-3.895,-3.8984,-3.9,-3.9015,-3.8853,-3.88,-3.8817,-3.8606,-3.8508,-3.8508,-3.8508,-3.8508,-3.8508,-3.8508,-3.8508,-3.8508,-3.8508,-3.84,-3.8169,-3.7492,-3.6923,-3.6492,-3.6492,-3.6492,-3.6492,0.0,0.0,0.0,0.0,0.0,0.0,0.0,-3.4899,-3.4899,-3.4899,-3.4899,-3.4899,-3.4899,-3.4899,-3.4899,-3.4899,-3.497,-3.5065,-3.5198,-3.5314,-3.5429,0.0,0.0,-3.4945,-3.4506,-3.4201,-3.3677,-3.2933,-3.2728,-3.2348,-3.1757,-3.116,-3.0677,-3.0323,-2.9894,-2.9883,-3.0133,-3.0387,-3.0731,-3.1107,-3.1391,-3.1511,-3.1511,-3.1511,-3.1511,-3.1511,-3.1511,-3.1511,-3.1511,-3.1511,0.0,0.0,0.0,0.0,0.0,0.0,0.0,0.0,0.0,0.0,0.0,0.0,0.0,0.0,0.0,0.0,0.0,0.0,0.0,0.0,0.0,0.0,0.0,0.0,-3.4747,-3.4999,-3.5726,-3.5821,-3.6121,-3.6943,-3.7291,-3.7621,-3.7875,-3.7923,-3.8033,-3.8302,-3.8697,-3.8934,-3.8934,-3.9297,-3.9503,-3.9503,-3.9645,-3.9706,-3.9722,-3.9646,-3.9637,-3.9654,-3.9421,-3.9354,-3.9354,-3.9354,-3.9354,-3.9354,-3.9354,-3.9354,-3.9354,-3.9354,-3.9152,0.0,0.0,0.0,0.0,0.0,-3.7338,-3.7338,0.0,0.0,0.0,0.0,0.0,0.0,0.0,-3.4899,-3.4899,-3.4899,-3.4899,-3.4899,-3.4899,-3.4899,-3.4899,-3.4899,-3.4899,-3.4947,-3.5065,-3.5337,0.0,-3.5554,-3.4873,-3.4455,-3.437,-3.3643,-3.2899,-3.2175,-3.1725,-3.1123,-3.041,-2.9861,-2.9566,-2.9515,-2.9399,-2.9427,-2.9532,-3.0058,-3.0372,-3.0552,-3.1137,-3.1436,-3.1511,-3.1511,-3.1511,-3.1511,-3.1511,-3.1511,-3.1511,-3.1511,0.0,0.0,0.0,0.0,0.0,0.0,0.0,0.0,0.0,0.0,0.0,0.0,0.0,0.0,0.0,0.0,0.0,0.0,0.0,0.0,0.0,0.0,0.0,0.0,-3.5505,-3.5789,-3.6519,-3.6629,-3.6629,-3.6629,-3.7275,-3.7954,-3.857,-3.8618,-3.8871,-3.9455,-3.9582,-3.9629,-3.9629,0.0,0.0,0.0,0.0,-4.0413,-4.0445,-4.0691,-4.0799,-4.0833,-4.0593,-4.0489,-4.0489,-4.0489,-4.0489,-4.0489,-4.0489,-4.0489,-4.0489,-4.0489,-4.0136,-3.9521,-3.88,-3.8508,-3.8508,-3.8508,-3.8508,-3.8508,0.0,0.0,0.0,0.0,0.0,0.0,0.0,-3.4899,-3.4899,-3.4899,-3.4899,-3.4899,-3.4899,-3.4899,-3.4899,-3.4899,-3.4899,-3.4923,-3.4947,0.0,-3.5503,-3.5344,-3.4823,-3.4218,-3.3626,-3.2882,-3.2158,-3.141,-3.0937,-3.0441,-2.9924,-2.9208,-2.8688,-2.8311,-2.8082,-2.8304,-2.8801,-2.8921,-2.9564,-3.0507,-3.0657,-3.1017,-3.1511,-3.1511,-3.1511,-3.1511,-3.1511,-3.1511,-3.1511,-3.1511,-3.1712,-3.1968,-3.1996,0.0,0.0,0.0,0.0,0.0,0.0,0.0,0.0,0.0,0.0,0.0,0.0,0.0,0.0,0.0,0.0,0.0,0.0,0.0,0.0,-3.6093,-3.6203,-3.6629,-3.7938,-3.8082,-3.8082,-3.8082,-3.8697,-3.9155,-3.9297,-3.9313,-3.936,-3.9487,-4.0056,-4.0388,-4.0388,-4.0893,-4.1178,-4.1178,-4.1155,-4.1185,-4.135,-4.0992,-4.0882,-4.1034,0.0,0.0,-4.0489,-4.0489,-4.0489,-4.0489,-4.0489,-4.0489,-4.0489,-4.0489,-4.0413,-4.0182,-3.8985,-3.8508,-3.8508,-3.8508,-3.8508,-3.8508,0.0,0.0,0.0,0.0,0.0,0.0,0.0,-3.4899,-3.4899,-3.4899,-3.4899,-3.4899,-3.4899,-3.4899,-3.4899,-3.4899,-3.497,-3.4994,0.0,-3.536,-3.5498,-3.5383,-3.4486,-3.3778,-3.3406,-3.2307,-3.1582,-3.119,-3.0477,-3.0011,-2.9689,-2.8772,-2.8195,-2.7905,-2.7675,-2.7794,-2.8113,-2.8457,-2.8966,-2.9609,-3.0238,-3.0717,-3.1032,-3.1376,-3.1511,-3.1511,-3.1511,-3.1511,-3.1511,-3.1511,-3.1726,-3.1996,-3.1996,-3.2191,-3.2398,0.0,0.0,0.0,0.0,0.0,0.0,0.0,0.0,0.0,0.0,0.0,0.0,0.0,0.0,-3.5063,0.0,0.0,-3.6248,-3.7277,-3.7435,-3.7798,-3.8855,-3.9329,-3.9424,-3.9044,-3.9297,-3.9645,-4.0008,-4.0056,-4.0182,-4.053,-4.0893,-4.1099,-4.1099,-4.1415,-4.1588,-4.1588,-4.1489,-4.1489,-4.1588,-4.1223,-4.1086,-4.1117,-4.078,-4.0593,-4.0489,-4.0489,-4.0489,-4.0489,-4.0489,-4.0489,-4.0489,-4.0489,-4.0489,-4.0428,-3.9751,-3.949,-3.949,-3.949,-3.949,-3.949,0.0,0.0,0.0,0.0,0.0,0.0,0.0,0.0,-3.4899,-3.4899,-3.4899,-3.4899,-3.4899,-3.4899,-3.4899,-3.4899,-3.5041,-3.5128,0.0,-3.536,-3.5514,-3.5492,-3.4153,-3.3406,-3.3406,-3.1952,-3.119,-3.119,-3.0225,-2.9711,-2.9585,-2.8494,-2.7905,-2.779,-2.765,-2.76,-2.763,-2.8173,-2.8472,-2.8697,-2.9864,-3.0402,-3.0582,-3.1241,-3.1511,-3.1511,-3.1511,-3.1511,-3.1511,-3.1539,-3.1769,-3.1981,-3.2038,-3.2219,-3.2398,-3.2398,-3.2425,0.0,0.0,0.0,0.0,0.0,0.0,0.0,0.0,0.0,-3.4541,-3.4683,-3.5173,-3.5805,-3.65,-3.6708,-3.7166,-3.8333,-3.8618,-3.8934,-3.9629,-4.023,-4.0435,-3.9961,-3.9914,-4.0135,-4.0735,-4.0798,-4.102,-4.1541,-4.1588,-4.1588,-4.1588,-4.1588,-4.1588,-4.1588,-4.1588,-4.1588,-4.1588,-4.139,-4.1239,-4.1117,-4.0916,-4.0696,-4.0489,-4.0489,-4.0489,-4.0489,-4.0489,-4.0489,-4.0489,-4.0489,-4.0489,-4.0489,-4.0489,-4.0489,-4.0489,-4.0489,-4.0489,-4.0489,0.0,0.0,0.0,0.0,0.0,0.0,0.0,0.0,0.0,-3.4899,-3.4899,-3.4899,-3.4899,-3.4899,-3.4899,-3.4899,-3.5111,0.0,-3.5105,-3.5412,-3.5571,-3.5492,-3.4153,-3.3406,-3.3406,-3.1952,-3.119,-3.119,-3.0145,-2.9607,-2.9585,-2.8383,-2.7815,-2.779,-2.765,-2.76,-2.76,-2.7675,-2.8064,-2.8667,-2.9385,-3.0013,-3.0582,-3.1241,-3.1511,-3.1511,-3.1511,-3.1511,-3.1539,-3.1698,-3.1855,-3.2025,-3.215,-3.2274,-3.2398,-3.2398,0.0,-3.2621,-3.2816,-3.3058,-3.3256,-3.3309,-3.3751,-3.4178,0.0,0.0,-3.5442,-3.6029,-3.6219,-3.6503,-3.7227,-3.7859,-3.8333,-3.8491,-3.9013,-3.9645,-4.0372,-4.0546,-4.0783,-4.1288,-4.1351,-4.1399,-4.1478,-4.1478,-4.1509,-4.1588,-4.1588,-4.1588,-4.1588,-4.1588,-4.1588,-4.1588,-4.1588,-4.1588,-4.1588,-4.139,-4.1239,-4.1117,-4.0916,-4.0696,-4.0489,-4.0489,-4.0489,-4.0489,-4.0489,-4.0489,-4.0489,-4.0489,-4.0489,-4.0489,-4.0489,-4.0489,-4.0489,-4.0489,-4.0489,-4.0489,0.0,0.0,0.0,0.0,0.0,0.0,0.0,0.0,0.0,0.0,-3.4899,-3.4899,-3.4899,-3.4899,-3.4899,-3.4899,-3.5152,0.0,-3.5105,-3.5396,-3.5571,-3.5492,-3.4558,-3.3846,-3.3423,-3.2374,-3.1633,-3.119,-3.0477,-3.0043,-2.9886,-2.8826,-2.8238,-2.8091,-2.776,-2.76,-2.76,-2.76,-2.7764,-2.8124,-2.9172,-2.9756,-3.0088,-3.1107,-3.1511,-3.1511,-3.1511,-3.1511,0.0,0.0,-3.1898,-3.201,-3.2163,-3.2287,-3.2425,-3.2496,-3.2551,-3.2676,-3.2935,-3.3433,-3.3878,-3.3878,-3.4415,-3.4936,-3.4936,-3.5473,-3.6045,-3.6329,-3.704,-3.7733,-3.8033,-3.8634,-3.9234,0.0,-3.9961,-4.0388,-4.1083,-4.1178,-4.1288,-4.1557,-4.1588,-4.1588,-4.1588,-4.1588,-4.1588,-4.1588,-4.1588,-4.1588,-4.1588,-4.1588,-4.1588,-4.1588,-4.1588,-4.1588,-4.1588,-4.1522,-4.139,-4.1205,-4.1052,-4.0882,-4.0662,-4.0558,-4.0489,-4.0489,-4.0489,-4.0489,-4.0489,-4.0489,-4.0489,-4.0489,-4.0489,-4.0489,-4.0489,-4.0489,-4.0489,-4.0489,0.0,0.0,0.0,0.0,0.0,0.0,0.0,0.0,0.0,0.0,0.0,-3.4923,-3.4947,-3.4947,-3.4947,-3.4947,0.0,0.0,0.0,-3.5418,-3.5594,-3.552,-3.4868,-3.4252,-3.3728,-3.2784,-3.2039,-3.1495,-3.0799,-3.033,-3.0081,-2.9088,-2.8519,-2.828,-2.7795,-2.76,-2.76,-2.76,-2.7705,-2.7989,-2.9142,-2.9711,-2.9968,-3.1077,-3.1511,-3.1511,-3.1511,-3.1539,-3.1597,-3.1784,-3.194,-3.2066,-3.2219,-3.2315,-3.2425,-3.2551,-3.28,-3.3076,-3.3363,-3.3986,-3.4589,-3.4589,-3.5142,-3.5679,-3.5679,-3.6216,-3.674,-3.6929,-3.7782,-3.857,-3.8744,-3.9345,-3.9977,-4.0514,-4.0751,-4.1035,-4.1525,-4.1588,-4.1588,-4.1588,-4.1588,-4.1588,-4.1588,-4.1588,-4.1588,-4.1588,-4.1588,-4.1588,-4.1588,-4.1588,-4.1588,-4.1588,-4.1588,-4.1588,-4.1588,-4.1588,-4.1489,-4.129,-4.1153,-4.1,-4.0799,-4.0593,-4.0489,-4.0489,-4.0489,-4.0489,-4.0489,-4.0489,-4.0489,-4.0489,-4.0489,-4.0489,-4.0489,-4.0489,-4.0489,-4.0489,0.0,0.0,0.0,0.0,0.0,0.0,0.0,0.0,0.0,0.0,0.0,0.0,0.0,0.0,-3.5088,-3.5088,0.0,0.0,0.0,-3.5481,-3.56,-3.56,-3.4895,-3.4472,-3.4455,-3.3038,-3.2293,-3.2276,-3.095,-3.0246,-3.0081,-2.9012,-2.8439,-2.828,-2.7795,-2.76,-2.76,-2.76,-2.7989,-2.8622,-2.931,-2.9939,-3.0552,-3.1241,-3.1511,-3.1511,-3.1511,0.0,-3.1813,-3.194,-3.2066,-3.2219,-3.2342,-3.2398,0.0,-3.2551,-3.3291,-3.4081,-3.423,-3.4794,-3.5363,-3.5363,-3.5884,-3.6361,-3.6361,-3.6943,-3.7638,-3.8318,-3.8491,-3.8713,-3.9345,-4.0072,-4.0577,-4.0609,-4.1146,-4.1573,-4.1588,-4.1588,-4.1588,-4.1588,-4.1588,-4.1588,0.0,-4.1588,-4.1588,-4.1588,-4.1588,-4.1588,-4.1588,-4.1588,-4.1588,-4.1588,-4.1588,-4.1588,-4.1588,-4.1588,-4.1489,-4.129,-4.1153,-4.1,-4.0799,-4.0593,-4.0489,-4.0489,-4.0489,-4.0489,-4.0489,-4.0489,-4.0489,-4.0489,-4.0489,-4.0489,-4.0489,-4.0489,-4.0489,-4.0489,0.0,0.0,0.0,0.0,0.0,0.0,0.0,0.0,0.0,0.0,0.0,0.0,0.0,0.0,0.0,0.0,-3.5268,0.0,0.0,-3.5549,-3.56,-3.56,-3.5346,-3.5013,-3.4506,-3.402,-3.3508,-3.3034,-3.2092,-3.1537,-3.1328,-3.0136,-2.9293,-2.8818,-2.828,-2.7894,-2.763,-2.8053,-2.8382,-2.8697,-2.9759,-3.0313,-3.0582,-3.1399,-3.1698,-3.1727,0.0,-3.1826,-3.1841,-3.2066,-3.2163,-3.2219,-3.237,-3.2398,-3.2545,-3.3258,-3.383,-3.4344,-3.4889,-3.5537,-3.6045,-3.6045,-3.6611,-3.7117,-3.7117,-3.7306,-3.77,-3.8365,-3.8855,-3.9376,-4.0103,-4.0798,-4.1257,-4.1257,-4.1446,-4.1588,-4.1588,-4.1588,-4.1588,-4.1588,-4.1588,0.0,0.0,0.0,0.0,-4.1588,-4.1588,-4.1588,-4.1588,-4.1588,-4.1588,-4.1588,-4.1588,-4.1588,-4.1588,-4.1588,-4.1555,-4.1489,-4.1236,-4.0932,-4.0593,-4.0524,-4.0489,-4.0489,-4.0489,-4.0489,-4.0489,-4.0489,-4.0489,-4.0489,-4.0489,-4.0489,-4.0489,-4.0489,-4.0489,-4.0489,0.0,0.0,0.0,0.0,0.0,0.0,0.0,0.0,0.0,0.0,0.0,0.0,0.0,0.0,0.0,0.0,0.0,-3.5423,0.0,0.0,-3.56,-3.56,-3.56,-3.538,-3.4912,-3.4624,-3.4269,-3.3795,-3.3051,-3.2613,-3.2442,-3.1379,-3.0522,-2.9872,-2.9306,-2.8768,-2.8349,-2.8757,-2.9086,-2.9355,-3.0261,-3.0741,-3.1039,-3.1632,-3.187,0.0,0.0,-3.2025,-3.1968,-3.215,-3.2247,-3.2302,-3.237,-3.265,-3.3067,-3.3711,-3.4446,-3.5157,-3.5631,-3.6263,-3.6801,-3.6801,-3.7148,-3.751,-3.751,-3.77,-3.8049,-3.8728,-3.9408,-4.0103,-4.083,-4.1304,-4.1588,-4.1588,-4.1802,-4.1867,-4.1621,-4.1981,-4.219,-4.1997,-4.2142,-4.2285,0.0,0.0,0.0,-4.1964,-4.1964,-4.1964,-4.1964,-4.1964,-4.1835,-4.1621,-4.1835,-4.1835,-4.1588,-4.1588,-4.1555,-4.1489,-4.1236,-4.0932,-4.0593,-4.0524,-4.0489,-4.0489,-4.0489,-4.0489,-4.0489,-4.0489,-4.0489,-4.0489,-4.0489,-4.0489,-4.0489,-4.0489,-4.0489,-4.0489,0.0,0.0,0.0,0.0,0.0,0.0,0.0,0.0,0.0,0.0,0.0,0.0,0.0,0.0,0.0,0.0,0.0,0.0,0.0,0.0,0.0,-3.56,-3.56,-3.56,-3.56,-3.4912,-3.4556,-3.4556,-3.3829,-3.341,-3.3338,-3.2657,-3.1976,-3.1268,-3.0688,-3.0116,-2.9606,-2.9636,-2.9968,-3.0535,-3.0762,-3.124,-3.1813,-3.1968,0.0,0.0,0.0,-3.2247,-3.2219,-3.2219,-3.2287,-3.2398,-3.2425,-3.3098,-3.3907,-3.3954,-3.5122,-3.6408,-3.644,-3.6975,-3.751,-3.751,-3.751,-3.751,-3.751,-3.8017,-3.8697,-3.936,-4.0087,-4.0814,0.0,0.0,-4.1621,-4.1654,-4.2158,-4.2333,-4.1687,-4.2661,-4.3243,0.0,0.0,0.0,0.0,0.0,0.0,-4.2725,0.0,-4.2648,-4.2648,-4.2648,-4.2365,-4.172,-4.2269,-4.2301,-4.1654,-4.1621,-4.1489,-4.129,-4.1153,-4.1,-4.0799,-4.0593,-4.0489,-4.0489,-4.0489,-4.0489,-4.0489,-4.0489,-4.0489,-4.0489,-4.0489,-4.0489,-4.0489,-4.0489,-4.0489,-4.0489,0.0,0.0,0.0,0.0,0.0,0.0,0.0,0.0,0.0,0.0,0.0,0.0,0.0,0.0,0.0,0.0,0.0,0.0,0.0,0.0,0.0,0.0,0.0,0.0,0.0,0.0,0.0,-3.5312,-3.459,-3.4192,-3.41,-3.3289,-3.2348,-3.1292,-3.1022,-3.0438,-2.9636,-3.0073,-3.0456,-3.0762,0.0,-3.1719,-3.1968,0.0,0.0,0.0,0.0,0.0,-3.2342,-3.2342,-3.237,-3.2425,-3.2523,-3.3153,-3.4045,-3.4689,-3.56,-3.6519,-3.7069,-3.7368,-3.751,-3.751,-3.751,-3.751,-3.751,-3.8017,-3.8697,-3.936,-4.0087,-4.0959,0.0,0.0,0.0,-4.2269,-4.2061,0.0,-4.1621,-4.2317,0.0,-4.2617,0.0,-4.3512,-4.3512,-4.3939,0.0,0.0,-4.3558,-4.3273,-4.3273,-4.3273,-4.3183,-4.3031,-4.2756,-4.2522,-4.2333,-4.1835,-4.1489,-4.129,-4.1153,-4.1,-4.0799,-4.0593,-4.0489,-4.0489,-4.0489,-4.0489,-4.0489,-4.0489,-4.0489,-4.0489,-4.0489,-4.0489,-4.0489,-4.0489,-4.0489,-4.0489,0.0,0.0,0.0,0.0,0.0,0.0,0.0,0.0,0.0,0.0,0.0,0.0,0.0,0.0,0.0,0.0,0.0,0.0,0.0,0.0,0.0,0.0,0.0,0.0,0.0,0.0,0.0,0.0,0.0,0.0,-3.4925,-3.4387,-3.3663,-3.2741,-3.2348,-3.1747,-3.1021,-3.1099,0.0,0.0,0.0,0.0,0.0,0.0,0.0,0.0,0.0,0.0,0.0,0.0,0.0,-3.2722,-3.2633,-3.3576,-3.4758,-3.5115,-3.5991,-3.6975,-3.7399,-3.751,-3.751,-3.751,-3.751,-3.751,-3.751,-3.8017,-3.8618,-3.8981,-4.007,-4.1228,-4.1973,-4.206,-4.2142,0.0,0.0,0.0,-4.2029,-4.2849,-4.3426,0.0,-4.3985,0.0,-4.4339,-4.4652,-4.4906,0.0,-4.4299,-4.3939,-4.3939,-4.3939,-4.3806,-4.3512,-4.3469,-4.3155,-4.2617,-4.1932,-4.1555,-4.1423,-4.1203,-4.1034,-4.0916,-4.0627,-4.0489,-4.0489,0.0,-4.0489,-4.0489,-4.0489,-4.0489,-4.0489,-4.0489,-4.0489,-4.0489,-4.0489,-4.0489,-4.0489,0.0,0.0,0.0,0.0,0.0,0.0,0.0,0.0,0.0,0.0,0.0,0.0,0.0,0.0,0.0,0.0,0.0,0.0,0.0,0.0,0.0,0.0,0.0,0.0,0.0,0.0,0.0,0.0,-3.56,0.0,0.0,0.0,0.0,0.0,0.0,0.0,0.0,0.0,0.0,0.0,0.0,0.0,0.0,0.0,0.0,0.0,0.0,0.0,0.0,0.0,-3.3691,-3.3266,-3.2955,-3.4164,-3.5664,-3.5517,-3.6511,-3.7612,-3.7685,-3.7671,-3.7612,-3.7612,-3.7612,-3.7612,-3.7612,-3.8195,-3.8704,-3.8613,-4.0134,-4.1508,-4.1606,-4.2172,-4.2596,-4.2709,0.0,-4.2694,-4.2617,-4.3693,-4.4502,-4.4502,-4.5015,-4.5397,-4.5397,-4.5397,-4.5397,-4.5397,-4.4906,-4.4614,-4.4614,-4.4614,-4.4316,-4.366,-4.4186,-4.3927,-4.2725,-4.2142,-4.1802,-4.172,-4.1421,-4.1203,-4.1083,-4.0712,-4.0539,-4.0489,-4.0489,-4.0489,-4.0489,-4.0489,-4.0489,-4.0489,-4.0489,-4.0489,-4.0489,-4.0489,-4.0489,-4.0489,0.0,0.0,0.0,0.0,0.0,0.0,0.0,0.0,0.0,0.0,-3.5175,-3.5152,0.0,0.0,0.0,0.0,0.0,0.0,0.0,0.0,0.0,0.0,0.0,0.0,0.0,-3.56,-3.56,-3.56,-3.56,-3.56,0.0,0.0,0.0,0.0,0.0,0.0,0.0,0.0,0.0,0.0,0.0,0.0,0.0,0.0,0.0,0.0,0.0,0.0,0.0,0.0,-3.3935,-3.3905,-3.4255,-3.4951,-3.587,-3.6699,-3.7524,-3.8282,-3.8756,-3.8535,-3.8153,-3.8153,-3.8153,-3.8153,-3.8153,-3.9072,0.0,-3.9353,-4.0319,-4.1461,-4.2204,-4.2406,-4.2627,-4.3234,-4.3333,-4.3169,-4.2663,-4.3693,-4.4502,0.0,-4.5015,-4.5397,-4.5397,-4.5397,0.0,0.0,-4.53,-4.5247,-4.5247,-4.5247,-4.4961,-4.4344,-4.4446,-4.4128,-4.3363,-4.3243,-4.2925,-4.2428,-4.2206,-4.1737,-4.1083,-4.0848,-4.0662,-4.0489,-4.0489,0.0,-4.0489,-4.0489,-4.0489,-4.0489,-4.0489,-4.0489,-4.0489,-4.0489,-4.0489,-4.0489,0.0,0.0,0.0,0.0,0.0,0.0,0.0,-3.4994,-3.5088,-3.5377,-3.5354,-3.5337,-3.5435,-3.5458,-3.5481,0.0,0.0,0.0,0.0,0.0,0.0,0.0,0.0,0.0,0.0,-3.56,-3.56,-3.56,0.0,-3.56,-3.56,-3.5571,-3.5418,-3.5075,-3.4202,-3.3665,-3.3381,-3.2841,0.0,-3.3119,-3.3407,-3.3716,0.0,0.0,0.0,0.0,0.0,0.0,0.0,0.0,-3.4816,-3.4805,-3.4723,-3.5564,-3.6672,-3.7156,-3.8008,-3.8821,-3.9109,-3.8974,-3.8767,-3.8767,-3.8767,-3.8767,-3.8767,0.0,0.0,-3.9335,-4.031,-4.1452,-4.2244,-4.2669,0.0,-4.3879,-4.3735,-4.3512,-4.3575,-4.4117,-4.4631,-4.4934,-4.522,-4.5397,-4.5397,-4.5397,-4.5397,-4.5397,-4.5397,-4.5397,-4.5397,-4.5397,-4.5264,-4.4988,-4.4642,-4.4344,-4.4026,-4.366,-4.3363,-4.3078,-4.2894,-4.2553,-4.2078,-4.1917,-4.1541,-4.1024,-4.1024,-4.0802,-4.0524,-4.087,-4.1024,-4.1024,-4.1024,-4.1243,-4.1492,-4.1158,-4.1024,-4.1024,0.0,0.0,0.0,0.0,0.0,0.0,0.0,-3.5111,-3.5222,-3.5469,-3.5492,-3.552,-3.56,-3.56,-3.56,0.0,0.0,0.0,0.0,0.0,0.0,0.0,0.0,0.0,0.0,0.0,0.0,-3.56,-3.56,0.0,0.0,0.0,0.0,0.0,-3.4601,-3.4185,-3.4136,-3.3614,-3.3443,0.0,0.0,-3.4235,0.0,0.0,0.0,0.0,0.0,0.0,0.0,0.0,-3.5701,-3.5795,-3.5386,-3.6246,-3.7461,-3.7765,-3.8556,-3.9401,-3.9532,-3.9454,-3.9375,-3.9375,-3.9375,-3.9375,-3.9375,-3.9454,0.0,-3.9401,-4.0314,-4.1384,-4.2163,-4.2833,-4.3529,0.0,-4.4186,-4.4054,-4.4429,-4.4614,-4.4879,0.0,-4.5397,0.0,-4.5397,-4.5397,0.0,-4.5397,-4.5397,-4.5397,-4.5397,-4.5397,-4.5397,-4.5397,-4.4934,-4.4697,-4.4697,-4.4169,-4.3835,-4.3718,-4.3604,-4.338,-4.3059,-4.2892,-4.2458,-4.1787,-4.1739,-4.1426,-4.0956,-4.1492,-4.1706,-4.1706,-4.1706,-4.2062,-4.2426,-4.1901,-4.1706,-4.1706,0.0,0.0,0.0,0.0,0.0,0.0,0.0,-3.5198,-3.5314,-3.5469,-3.5492,-3.552,-3.56,-3.56,-3.56,0.0,0.0,0.0,0.0,0.0,0.0,0.0,0.0,0.0,0.0,0.0,0.0,-3.56,-3.56,0.0,0.0,0.0,0.0,0.0,0.0,-3.4721,-3.4697,-3.4144,0.0,0.0,0.0,0.0,0.0,0.0,0.0,0.0,0.0,0.0,0.0,0.0,0.0,-3.6743,-3.7058,-3.7252,-3.7685,-3.9143,0.0,0.0,-4.0573,-4.0336,-3.9927,-3.9927,-3.9927,-3.9927,-3.9927,0.0,-4.059,-4.0028,-4.0478,-4.1212,-4.213,-4.2783,-4.3486,-4.4366,-4.4906,-4.5042,-4.4558,-4.4961,-4.5344,-4.5397,0.0,0.0,-4.5397,-4.5397,-4.5397,-4.5397,-4.5397,-4.5397,-4.5397,-4.5397,-4.5397,-4.5397,-4.5344,-4.5318,-4.5318,-4.5247,-4.4961,-4.4418,-4.4418,-4.4001,-4.3276,-4.3075,-4.2876,-4.2661,-4.2489,-4.2363,0.0,-4.2395,-4.2426,-4.2426,-4.2426,-4.2458,-4.2489,-4.2426,-4.2426,-4.2426,0.0,0.0,0.0,0.0,0.0,0.0,-3.5198,-3.5314,-3.5452,-3.5566,-3.5549,-3.5571,-3.56,-3.56,-3.56,-3.56,0.0,0.0,0.0,0.0,0.0,0.0,0.0,0.0,0.0,0.0,-3.56,-3.56,-3.56,0.0,0.0,0.0,0.0,0.0,0.0,-3.4793,-3.4785,-3.4577,0.0,0.0,0.0,0.0,0.0,0.0,0.0,0.0,0.0,0.0,-3.5667,0.0,0.0,0.0,-3.8135,-3.8539,0.0,0.0,-4.0237,-4.0597,-4.0823,-4.071,-4.0549,-4.0549,-4.0549,-4.0549,-4.0549,0.0,-4.0823,-4.0597,-4.0734,-4.1288,-4.2603,-4.3047,-4.3614,-4.4829,-4.5247,0.0,-4.5086,-4.5247,-4.5397,-4.5397,-4.5397,0.0,0.0,0.0,-4.5397,-4.5397,-4.5397,-4.5397,-4.5397,-4.5397,-4.5397,-4.5397,-4.5397,-4.5397,-4.5397,-4.5397,-4.5291,-4.5059,-4.5059,-4.4835,-4.444,-4.4299,-4.391,-4.341,-4.3196,-4.2892,0.0,-4.2953,-4.3106,-4.3106,-4.3106,-4.3363,-4.371,-4.3273,-4.3106,-4.3106,0.0,0.0,0.0,0.0,0.0,-3.5198,-3.5291,-3.5429,-3.5543,-3.56,-3.56,-3.56,-3.56,-3.56,-3.56,-3.56,-3.56,0.0,0.0,0.0,0.0,0.0,0.0,0.0,0.0,0.0,-3.56,-3.56,-3.56,-3.56,0.0,0.0,-3.56,-3.5577,0.0,0.0,0.0,0.0,0.0,0.0,0.0,0.0,0.0,0.0,0.0,0.0,0.0,0.0,0.0,0.0,0.0,0.0,0.0,0.0,0.0,0.0,-4.0524,-4.0912,-4.0912,-4.0912,-4.0912,-4.0912,-4.0912,-4.0912,0.0,0.0,-4.0912,-4.0912,-4.0912,-4.1378,-4.2913,-4.3189,-4.369,-4.5156,0.0,-4.5397,-4.5397,-4.5397,-4.5397,0.0,0.0,-4.5397,0.0,-4.5397,-4.5397,-4.5397,-4.5397,-4.5397,-4.5397,-4.5397,-4.5397,-4.5397,-4.5397,-4.5397,-4.5397,-4.5397,-4.5397,-4.5397,-4.5397,-4.5371,-4.5247,-4.5086,-4.4686,-4.4145,-4.3927,-4.3558,0.0,-4.3617,-4.3839,-4.3839,-4.3839,-4.4133,-4.4542,-4.4018,-4.3839,-4.3839,0.0,0.0,0.0,0.0,0.0,0.0,-3.5291,-3.5481,-3.56,-3.56,-3.56,-3.56,-3.56,-3.56,-3.56,-3.56,-3.56,0.0,0.0,0.0,0.0,0.0,0.0,0.0,0.0,0.0,-3.56,-3.56,-3.56,-3.56,-3.56,-3.56,-3.56,-3.56,0.0,0.0,0.0,0.0,0.0,0.0,0.0,0.0,0.0,0.0,0.0,0.0,0.0,0.0,0.0,0.0,0.0,0.0,0.0,0.0,0.0,0.0,-4.0793,-4.0912,-4.0912,-4.0912,-4.0912,-4.0912,-4.0912,-4.0912,0.0,0.0,-4.0912,-4.0912,-4.0912,-4.1378,-4.2913,-4.3189,-4.369,-4.5156,-4.5397,0.0,-4.5397,-4.5397,-4.5397,0.0,0.0,-4.5397,-4.5397,-4.5397,-4.5397,-4.5397,-4.5397,0.0,-4.5397,-4.5397,-4.5397,-4.5397,-4.5397,-4.5397,-4.5397,-4.5397,-4.5397,-4.5397,-4.5397,-4.5397,-4.5397,-4.5113,-4.5005,-4.4978,-4.4692,-4.457,0.0,-4.4587,-4.4587,-4.4587,-4.4587,-4.4598,-4.4615,-4.4598,-4.4587,-4.4587,0.0,0.0,0.0,0.0,0.0,0.0,0.0,-3.5481,-3.56,-3.56,-3.56,-3.56,-3.56,-3.56,-3.56,-3.56,-3.56,0.0,0.0,0.0,0.0,0.0,0.0,0.0,0.0,0.0,-3.56,-3.56,-3.56,-3.56,-3.56,-3.56,-3.56,-3.56,-3.56,-3.56,0.0,0.0,0.0,0.0,0.0,0.0,0.0,0.0,0.0,0.0,0.0,0.0,0.0,0.0,0.0,0.0,0.0,0.0,0.0,0.0,0.0,0.0,-4.0912,-4.0912,-4.0912,-4.0912,-4.0912,-4.0912,-4.0912,0.0,-4.0912,-4.0912,-4.0912,-4.1378,-4.2913,-4.3189,-4.369,-4.5156,-4.5397,0.0,0.0,0.0,0.0,-4.5397,-4.5397,-4.5397,0.0,0.0,-4.5397,-4.5397,-4.5397,-4.5397,-4.5397,-4.5397,-4.5397,-4.5397,-4.5397,-4.5397,-4.5397,-4.5397,-4.5397,-4.5397,-4.5397,-4.5397,-4.5397,-4.5113,-4.5005,-4.4978,-4.4709,-4.4615,-4.4615,-4.4615,-4.4615,-4.4615,-4.4615,-4.4615,-4.4615,-4.4615,-4.4615,-4.4615,0.0,0.0,0.0,0.0,0.0,0.0,0.0,-3.5503,-3.56,-3.56,-3.56,-3.56,-3.56,-3.56,-3.56,-3.56,-3.56,0.0,0.0,0.0,0.0,0.0,0.0,0.0,0.0,-3.56,-3.56,-3.56,-3.56,-3.56,-3.56,-3.56,-3.56,-3.56,-3.56,-3.56,0.0,0.0,0.0,0.0,0.0,0.0,-3.56,0.0,0.0,0.0,0.0,0.0,0.0,0.0,0.0,0.0,0.0,0.0,0.0,0.0,-4.0607,-4.0817,0.0,-4.0817,-4.084,-4.0888,-4.0912,0.0,0.0,-4.0912,-4.0912,-4.0912,-4.1119,-4.1705,-4.2965,-4.3431,-4.4018,-4.5207,-4.5397,0.0,0.0,0.0,0.0,-4.5397,0.0,0.0,0.0,-4.5397,-4.5397,-4.5397,-4.5397,-4.5397,-4.5397,-4.5397,-4.5397,-4.5397,-4.5397,-4.5397,-4.5397,-4.5397,-4.5397,-4.5397,-4.5397,-4.5397,-4.5397,-4.5113,-4.5005,-4.4978,-4.4709,-4.4615,0.0,-4.4615,-4.4615,-4.4615,-4.4615,-4.4615,-4.4615,-4.4615,-4.4615,-4.4615,0.0,0.0,0.0,0.0,0.0,0.0,0.0,-3.5549,-3.56,-3.56,-3.56,-3.56,-3.56,-3.56,-3.56,-3.56,0.0,0.0,0.0,0.0,0.0,0.0,0.0,0.0,-3.56,-3.56,-3.56,-3.56,-3.56,-3.56,-3.56,-3.56,-3.56,-3.56,-3.56,-3.56,0.0,0.0,0.0,0.0,0.0,0.0,0.0,0.0,0.0,0.0,0.0,0.0,0.0,0.0,0.0,0.0,0.0,0.0,0.0,0.0,0.0,0.0,0.0,-4.0697,-4.0745,-4.0864,-4.0912,-4.0912,-4.0912,-4.0946,0.0,-4.0981,-4.1585,-4.2344,-4.3138,-4.3845,-4.4552,-4.5276,0.0,0.0,0.0,-4.5397,0.0,0.0,-4.5397,0.0,-4.5397,-4.5397,-4.5397,-4.5397,-4.5397,-4.5397,-4.5397,-4.5397,-4.5397,-4.5397,-4.5397,-4.5397,-4.5397,-4.5397,-4.5397,-4.5397,-4.5397,-4.5397,-4.5397,-4.5113,-4.5005,0.0,-4.4737,-4.4598,-4.4615,-4.4615,-4.4615,-4.4615,-4.4615,-4.4615,-4.4615,-4.4615,-4.4615,-4.4615,0.0,0.0,0.0,0.0,0.0,0.0,0.0,0.0,0.0,0.0,-3.56,-3.56,-3.56,-3.56,-3.56,0.0,0.0,0.0,0.0,0.0,0.0,0.0,0.0,0.0,-3.56,-3.56,-3.56,-3.56,-3.56,-3.56,-3.56,-3.56,-3.56,-3.56,-3.56,-3.56,0.0,0.0,0.0,0.0,0.0,0.0,0.0,0.0,0.0,0.0,-3.7364,-3.799,0.0,0.0,0.0,0.0,0.0,0.0,0.0,0.0,-4.0188,-4.0263,-4.0379,0.0,-4.0864,-4.0888,-4.0912,-4.0912,0.0,0.0,-4.1757,-4.1757,-4.2378,-4.3155,-4.3897,-4.419,0.0,0.0,0.0,-4.5397,-4.5397,0.0,0.0,-4.5397,-4.5397,-4.5397,-4.5397,-4.5397,-4.5397,-4.5397,-4.5397,-4.5397,-4.5397,-4.5397,-4.5397,-4.5397,-4.5397,-4.5397,-4.5397,-4.5397,-4.5397,-4.5397,-4.5397,-4.5397,-4.5397,-4.522,-4.5113,-4.4978,-4.4831,-4.4709,-4.4615,-4.4615,-4.4615,-4.4615,-4.4615,-4.4615,-4.4615,-4.4615,-4.4615,-4.4615,0.0,0.0,0.0,0.0,0.0,0.0,0.0,0.0,0.0,0.0,0.0,0.0,0.0,0.0,0.0,0.0,0.0,0.0,0.0,0.0,0.0,0.0,0.0,-3.56,-3.56,-3.56,-3.56,-3.56,-3.56,-3.56,-3.56,-3.56,-3.56,-3.56,-3.56,-3.5825,0.0,0.0,0.0,0.0,-3.6648,0.0,0.0,0.0,0.0,0.0,-3.8142,-3.8667,0.0,-3.9402,-3.9774,-4.0096,0.0,0.0,0.0,0.0,-4.0121,-4.0213,-4.028,-4.051,-4.0728,-4.0793,-4.1123,-4.1412,-4.1412,0.0,0.0,0.0,0.0,0.0,0.0,0.0,0.0,0.0,-4.5397,0.0,0.0,0.0,-4.5397,-4.5397,-4.5397,-4.5397,0.0,-4.5397,-4.5397,-4.5397,-4.5397,-4.5397,-4.5397,-4.5397,-4.5397,-4.5397,-4.5397,-4.5397,-4.5397,-4.5397,-4.5397,-4.5397,-4.5397,-4.5397,-4.5397,-4.5274,-4.515,-4.5086,-4.4886,-4.4748,-4.4682,-4.4643,-4.4615,-4.4615,-4.4615,-4.4615,-4.4615,-4.4615,-4.4615,-4.4615,0.0,0.0,0.0,0.0,0.0,0.0,0.0,0.0,0.0,0.0,0.0,0.0,0.0,0.0,0.0,0.0,0.0,0.0,0.0,0.0,0.0,0.0,0.0,-3.56,-3.56,-3.56,-3.56,-3.56,-3.56,-3.56,-3.56,-3.56,-3.56,-3.56,-3.5718,-3.6163,0.0,0.0,-3.733,-3.7905,-3.7905,0.0,0.0,0.0,0.0,0.0,0.0,0.0,0.0,-3.9893,-4.0096,-4.0096,-4.0096,0.0,0.0,0.0,0.0,0.0,-4.028,-4.0447,-4.0681,-4.0796,-4.1405,-4.2002,-4.2105,0.0,0.0,0.0,0.0,0.0,0.0,-4.4992,0.0,0.0,0.0,0.0,-4.5397,-4.5397,-4.5397,-4.5397,-4.5397,0.0,-4.5397,-4.5397,-4.5397,-4.5397,-4.5397,-4.5397,-4.5397,-4.5397,-4.5397,-4.5397,-4.5397,-4.5397,-4.5397,-4.5397,-4.5397,-4.5397,-4.5397,-4.5397,-4.5397,-4.5274,-4.522,-4.5194,0.0,0.0,-4.4776,-4.4654,-4.4615,-4.4615,-4.4615,-4.4615,-4.4615,-4.4615,-4.4615,-4.4615,0.0,0.0,0.0,0.0,0.0,0.0,0.0,0.0,0.0,0.0,0.0,0.0,0.0,0.0,0.0,0.0,0.0,0.0,0.0,0.0,0.0,0.0,-3.56,-3.56,-3.56,-3.56,-3.56,-3.56,-3.56,-3.56,-3.56,-3.56,-3.56,-3.5616,-3.6315,-3.6694,-3.6846,-3.7466,-3.7804,-3.7905,-3.7905,0.0,0.0,0.0,0.0,0.0,0.0,0.0,0.0,-4.0062,-4.0096,-4.0096,-4.0096,0.0,0.0,0.0,0.0,0.0,-4.0121,-4.0679,-4.1299,-4.1417,-4.1652,-4.1992,-4.261,0.0,0.0,0.0,0.0,0.0,0.0,-4.5311,-4.5397,0.0,0.0,-4.5397,0.0,0.0,-4.5397,-4.5397,0.0,-4.5397,-4.5397,-4.5397,-4.5397,-4.5397,-4.5397,-4.5397,-4.5397,-4.5397,-4.5397,-4.5397,-4.5397,-4.5397,-4.5397,-4.5397,-4.5397,-4.5397,-4.5397,-4.5397,-4.5397,-4.5371,-4.53,-4.5177,0.0,-4.4896,-4.4776,-4.4654,-4.4615,-4.4615,-4.4615,-4.4615,-4.4615,-4.4615,-4.4615,-4.4615,0.0,0.0,0.0,0.0,0.0,0.0,0.0,0.0,0.0,0.0,0.0,0.0,0.0,0.0,0.0,0.0,0.0,0.0,0.0,0.0,0.0,-3.56,-3.56,-3.56,-3.56,-3.56,-3.56,-3.56,-3.56,-3.56,-3.56,-3.56,-3.5819,-3.6265,-3.6643,-3.7252,-3.8007,-3.8345,-3.8717,-3.9089,0.0,0.0,0.0,0.0,0.0,0.0,0.0,0.0,0.0,0.0,-4.0096,-4.0096,-4.0096,0.0,0.0,0.0,0.0,0.0,-4.0578,-4.0985,-4.1494,-4.236,-4.2748,-4.3057,0.0,0.0,0.0,0.0,0.0,0.0,0.0,0.0,-4.5397,-4.5397,0.0,-4.5397,-4.5397,-4.5397,-4.5397,0.0,0.0,-4.5397,-4.5397,-4.5397,-4.5397,-4.5397,-4.5397,-4.5397,-4.5397,-4.5397,-4.5397,-4.5397,-4.5397,-4.5397,-4.5397,-4.5397,-4.5397,-4.5397,-4.5397,-4.5397,-4.5397,-4.5397,-4.5371,-4.53,0.0,-4.5032,-4.4913,-4.4748,-4.4654,-4.4615,-4.4615,-4.4615,-4.4615,-4.4615,-4.4615,-4.4615,0.0,0.0,0.0,0.0,0.0,0.0,0.0,0.0,0.0,0.0,0.0,0.0,0.0,0.0,0.0,0.0,0.0,0.0,0.0,0.0,-3.56,-3.56,-3.56,-3.56,-3.56,-3.56,-3.56,-3.56,-3.56,-3.56,-3.56,-3.56,-3.6028,-3.6812,-3.6981,-3.777,-3.9005,-3.9174,-3.9588,-4.0096,0.0,0.0,0.0,0.0,0.0,0.0,0.0,0.0,0.0,0.0,0.0,0.0,0.0,0.0,0.0,-4.0096,-4.0096,-4.0265,-4.1001,-4.1339,-4.1779,-4.3054,0.0,0.0,0.0,0.0,0.0,0.0,0.0,0.0,0.0,-4.5371,0.0,-4.5397,-4.5397,-4.5397,-4.5397,-4.5397,-4.5397,-4.5397,-4.5397,-4.5397,-4.5397,-4.5397,-4.5397,-4.5397,-4.5397,-4.5397,-4.5397,-4.5397,-4.5397,-4.5397,-4.5397,-4.5397,-4.5397,-4.5397,-4.5397,-4.5397,-4.5397,-4.5397,-4.5397,-4.5397,-4.5397,-4.5397,-4.5274,-4.514,-4.5032,-4.4886,-4.4737,-4.4654,-4.4598,-4.4615,-4.4615,-4.4615,-4.4615,-4.4615,0.0,0.0,0.0,0.0,0.0,0.0,0.0,0.0,0.0,0.0,0.0,0.0,0.0,0.0,0.0,0.0,0.0,0.0,0.0,0.0,-3.56,-3.56,-3.56,-3.56,-3.56,-3.56,-3.56,-3.56,-3.56,-3.56,-3.56,-3.56,-3.6028,-3.6829,-3.7516,-3.8261,-3.9039,-3.974,-4.0045,-4.0096,-4.0096,0.0,0.0,0.0,0.0,0.0,0.0,0.0,0.0,0.0,0.0,0.0,0.0,0.0,-4.0096,-4.0096,-4.0096,-4.0265,-4.1001,-4.1694,-4.2405,-4.3189,-4.3545,0.0,-4.4593,-4.4906,0.0,-4.5032,0.0,0.0,0.0,-4.5318,-4.5397,-4.5397,-4.5397,-4.5397,-4.5397,0.0,-4.5397,-4.5397,-4.5397,-4.5397,-4.5397,-4.5397,-4.5397,-4.5397,-4.5397,-4.5397,-4.5397,-4.5397,-4.5397,-4.5397,-4.5397,-4.5397,-4.5397,-4.5397,-4.5397,-4.5397,-4.5397,-4.5397,-4.5397,-4.5397,-4.5397,-4.5397,-4.5274,-4.5177,-4.5167,-4.4913,-4.4776,-4.4776,-4.4654,-4.4615,-4.4615,-4.4615,-4.4615,-4.4615,0.0,0.0,0.0,0.0,0.0,0.0,0.0,0.0,0.0,0.0,0.0,0.0,0.0,0.0,0.0,0.0,0.0,0.0,0.0,0.0,-3.56,-3.56,-3.56,-3.56,-3.56,-3.56,-3.56,-3.56,-3.56,-3.56,-3.5616,-3.6113,-3.6738,-3.7516,-3.8244,-3.8988,-3.9706,-3.9994,-4.0096,-4.0096,-4.0096,-4.0096,0.0,0.0,0.0,0.0,0.0,0.0,0.0,0.0,-4.0096,-4.0096,-4.0096,-4.0096,-4.0096,-4.0096,-4.0409,-4.095,-4.1677,-4.2422,-4.3183,-4.3944,-4.4202,0.0,0.0,-4.4831,-4.4913,-4.4978,-4.5032,0.0,0.0,0.0,-4.5274,-4.5274,-4.5274,-4.5274,-4.5274,-4.5274,-4.5274,-4.5274,-4.5344,-4.5371,-4.5274,-4.5371,-4.5397,-4.5397,-4.5397,-4.5397,-4.5397,-4.5397,-4.5397,-4.5397,-4.5397,-4.5397,-4.5397,-4.5397,-4.5397,-4.5397,-4.5397,-4.5397,-4.5397,-4.5397,-4.5397,-4.5397,-4.5344,-4.522,-4.5059,-4.4968,-4.4831,-4.4682,-4.4626,-4.4615,-4.4615,-4.4615,-4.4615,-4.4615,0.0,0.0,0.0,0.0,0.0,0.0,0.0,0.0,0.0,0.0,0.0,0.0,0.0,0.0,0.0,0.0,0.0,0.0,-3.7224,-3.6654,-3.6326,-3.6326,-3.6326,-3.6326,-3.6326,-3.6326,-3.609,-3.56,-3.5836,-3.5994,-3.6011,-3.6772,-3.7533,-3.8278,-3.8768,-3.9419,-4.0096,-4.0096,-4.0096,-4.0096,-4.0096,-4.0096,0.0,0.0,0.0,0.0,0.0,0.0,0.0,0.0,-4.0096,-4.0096,-4.0096,-4.0096,-4.0096,-4.0096,-4.0612,-4.1373,-4.21,-4.2844,-4.3578,-4.4412,0.0,0.0,-4.4709,-4.4737,-4.4748,-4.4858,-4.4913,-4.4978,-4.5113,0.0,0.0,0.0,-4.514,-4.514,-4.514,-4.514,-4.514,-4.514,-4.5247,-4.53,-4.522,-4.53,-4.5397,-4.5397,-4.5397,-4.5397,-4.5397,-4.5397,-4.5397,-4.5397,-4.5397,-4.5397,-4.5397,-4.5397,-4.5397,-4.5397,-4.5397,-4.5397,-4.5397,-4.5397,-4.5397,-4.5397,-4.5397,-4.5264,-4.5059,-4.5005,-4.4831,-4.4615,-4.4615,-4.4615,-4.4615,-4.4615,-4.4615,-4.4615,0.0,0.0,0.0,0.0,0.0,0.0,0.0,0.0,0.0,0.0,0.0,0.0,0.0,0.0,0.0,0.0,0.0,0.0,-3.922,-3.8397,-3.7905,-3.7905,-3.7905,-3.7905,-3.7905,-3.7905,-3.7138,-3.5616,-3.6417,-3.6812,-3.6829,-3.7567,-3.8311,-3.8988,-3.9005,-3.9436,-4.0096,-4.0096,-4.0096,-4.0096,-4.0096,-4.0096,-4.0096,0.0,0.0,0.0,0.0,0.0,0.0,0.0,-4.0096,-4.0096,-4.0096,-4.0096,-4.0096,-4.0113,-4.0629,-4.1373,-4.21,-4.2861,-4.3606,-4.4412,0.0,0.0,-4.4615,-4.4615,-4.4615,-4.4615,-4.4709,-4.4831,-4.4978,-4.5005,0.0,-4.5005,-4.5005,-4.5005,-4.5005,-4.5005,-4.5005,-4.5005,-4.5113,-4.5203,-4.5203,-4.53,-4.5397,-4.5397,-4.5397,-4.5397,-4.5397,-4.5397,-4.5397,-4.5397,-4.5397,-4.5397,-4.5397,-4.5397,-4.5397,-4.5397,-4.5397,-4.5397,-4.5397,-4.5397,-4.5397,-4.5397,-4.5397,-4.53,-4.5177,-4.5059,-4.4831,-4.4615,-4.4615,-4.4615,-4.4615,-4.4615,-4.4615,-4.4615,0.0,0.0,0.0,0.0,0.0,0.0,0.0,0.0,0.0,0.0,0.0,0.0,0.0,0.0,0.0,0.0,0.0,0.0,-3.9684,-3.9193,-3.8737,-3.8419,-3.8397,-3.823,-3.7905,-3.7905,-3.7686,-3.7229,-3.7466,-3.7567,-3.7584,-3.8328,-3.8785,-3.9005,-3.9529,-3.991,-4.0096,-4.0096,-4.0096,-4.0096,-4.0096,-4.0096,-4.0096,0.0,0.0,0.0,0.0,0.0,0.0,0.0,0.0,0.0,-4.0096,-4.0096,-4.0197,-4.0713,-4.139,-4.2134,-4.2878,-4.3656,0.0,-4.4547,0.0,0.0,0.0,-4.4615,0.0,0.0,-4.4626,-4.4709,-4.4831,-4.4858,0.0,-4.4858,-4.4858,-4.4858,-4.4858,-4.4858,-4.4858,-4.4858,-4.4978,-4.5059,-4.5059,-4.5194,-4.53,-4.5397,-4.5397,-4.5397,-4.5397,-4.5397,-4.5397,-4.5397,-4.5397,-4.5397,-4.5397,-4.5397,-4.5397,-4.5397,-4.5397,-4.5397,-4.5397,-4.5397,-4.5397,-4.5397,-4.5397,-4.5264,-4.5032,-4.4803,-4.4682,-4.4615,-4.4615,-4.4615,-4.4615,-4.4615,-4.4615,-4.4615,0.0,0.0,0.0,0.0,0.0,0.0,0.0,0.0,0.0,0.0,0.0,0.0,0.0,0.0,0.0,0.0,0.0,0.0,0.0,-4.0403,-3.9957,-3.9485,-3.9462,-3.9249,-3.8792,-3.8768,-3.8768,-3.8768,-3.8481,-3.8345,-3.8345,-3.9089,-3.9453,-3.9469,-3.991,-4.0096,-4.0096,-4.0096,-4.0096,-4.0096,-4.0096,-4.0096,-4.0096,0.0,0.0,0.0,0.0,0.0,0.0,0.0,0.0,0.0,-4.0096,0.0,-4.0612,-4.1068,-4.1931,-4.2828,-4.3274,-4.3995,0.0,-4.4615,-4.4615,-4.4615,-4.4615,0.0,0.0,0.0,-4.4615,-4.4626,-4.4709,-4.4737,0.0,-4.4737,-4.4737,-4.4737,-4.4737,-4.4737,-4.4737,-4.4737,-4.4831,-4.4923,-4.4978,-4.5113,-4.5247,-4.5397,-4.5397,-4.5397,-4.5397,-4.5397,-4.5397,-4.5397,-4.5397,-4.5397,-4.5397,-4.5397,-4.5397,-4.5397,-4.5397,-4.5397,-4.5397,-4.5397,-4.5397,-4.5397,-4.5327,-4.5194,-4.4978,-4.4776,-4.4654,-4.4615,-4.4615,-4.4615,-4.4615,-4.4615,-4.4615,-4.4615,0.0,0.0,0.0,0.0,0.0,0.0,0.0,0.0,0.0,0.0,0.0,0.0,0.0,0.0,0.0,0.0,0.0,0.0,0.0,0.0,-4.1432,-4.0949,-4.0849,-4.058,-4.0096,-4.0096,-4.0096,-4.0096,-3.9436,-3.9089,-3.9106,-3.9791,-4.0096,-4.0096,-4.0096,-4.0096,-4.0096,-4.0096,-4.0096,-4.0096,-4.0096,-4.0096,-4.0096,-4.0096,0.0,0.0,0.0,0.0,0.0,0.0,0.0,0.0,-4.0096,-4.0595,-4.1221,-4.1288,-4.232,-4.3409,-4.3504,-4.4045,0.0,-4.4615,-4.4615,0.0,-4.4615,-4.4615,-4.4615,-4.4615,0.0,-4.4615,-4.4615,-4.4615,-4.4615,-4.4615,-4.4615,-4.4615,-4.4615,-4.4615,-4.4615,-4.4615,-4.4709,-4.4831,-4.4951,-4.5096,-4.5247,-4.5371,-4.5397,-4.5397,-4.5397,-4.5397,-4.5397,-4.5397,-4.5397,-4.5397,-4.5397,-4.5397,-4.5397,-4.5397,-4.5397,-4.5397,-4.5397,-4.5397,-4.5397,-4.5397,-4.5274,-4.5123,-4.4978,-4.4858,-4.4737,-4.4615,-4.4615,-4.4615,-4.4615,-4.4615,-4.4615,-4.4615,0.0,0.0,0.0,0.0,0.0,0.0,0.0,0.0,0.0,0.0,0.0,0.0,0.0,0.0,0.0,0.0,0.0,0.0,0.0,0.0,-4.238,-4.1927,-4.1202,-4.058,-4.0096,-4.0096,-4.0096,-4.0096,-3.9943,-3.9859,-3.9876,-4.0028,-4.0096,-4.0096,-4.0096,-4.0096,-4.0096,-4.0096,-4.0096,-4.0096,-4.0096,-4.0096,-4.0096,-4.0096,-4.0096,0.0,0.0,0.0,0.0,0.0,0.0,0.0,-4.0096,-4.0595,-4.1322,-4.188,-4.2709,-4.3527,-4.4164,-4.4479,0.0,0.0,-4.4615,-4.4615,-4.4615,-4.4615,-4.4615,-4.4615,-4.4615,-4.4615,-4.4615,-4.4615,-4.4615,-4.4615,-4.4615,-4.4615,-4.4615,-4.4615,-4.4615,-4.4615,-4.4643,-4.4709,-4.4831,-4.4951,-4.5113,-4.523,-4.5344,-4.5397,-4.5397,-4.5397,-4.5397,-4.5397,-4.5397,-4.5397,-4.5397,-4.5397,-4.5397,-4.5397,-4.5397,-4.5397,-4.5397,-4.5397,-4.5397,-4.5397,-4.5274,-4.5123,-4.4978,-4.4858,-4.4737,-4.4615,-4.4615,-4.4615,-4.4615,-4.4615,-4.4615,-4.4615,0.0,0.0,0.0,0.0,0.0,0.0,0.0,0.0,0.0,0.0,0.0,0.0,0.0,0.0,0.0,0.0,0.0,0.0,0.0,0.0,-4.2577,-4.1888,-4.1162,-4.058,-4.0096,-4.0096,-4.0096,-4.0096,-4.0096,-4.0096,-4.0096,-4.0096,-4.0096,-4.0096,-4.0096,-4.0096,-4.0096,-4.0096,-4.0096,-4.0096,-4.0096,-4.0096,-4.0096,-4.0096,-4.0096,-4.0096,-4.0096,0.0,0.0,0.0,0.0,0.0,0.0,0.0,-4.2337,-4.2709,-4.3369,-4.4062,-4.4496,0.0,0.0,-4.4615,0.0,-4.4615,-4.4615,-4.4615,-4.4615,-4.4615,-4.4615,-4.4615,-4.4615,-4.4615,-4.4615,-4.4615,-4.4615,-4.4615,-4.4615,-4.4615,-4.4615,-4.4615,-4.4615,-4.4654,-4.4793,-4.4913,-4.5059,-4.5177,-4.5327,-4.5397,-4.5397,-4.5397,-4.5397,-4.5397,-4.5397,-4.5397,-4.5397,-4.5397,-4.5397,-4.5397,-4.5397,-4.5397,-4.5397,-4.5397,-4.5397,-4.5397,-4.5344,-4.522,-4.5086,-4.4951,-4.4803,-4.4682,-4.4643,-4.4615,-4.4615,-4.4615,-4.4615,-4.4615,0.0,0.0,0.0,0.0,0.0,0.0,0.0,0.0,0.0,0.0,0.0,0.0,0.0,0.0,0.0,0.0,0.0,0.0,0.0,0.0,0.0,-4.1656,-4.1253,-4.0778,-4.0229,-4.0221,-4.0171,-4.0096,-4.0096,-4.0096,-4.0096,-4.0096,-4.0096,-4.0096,-4.0096,-4.0096,-4.0096,-4.0096,-4.0096,-4.0096,-4.0096,-4.0096,-4.0096,-4.0096,-4.018,-4.0299,-4.0299,-4.0383,-4.0485,-4.0485,0.0,0.0,0.0,0.0,-4.3392,-4.3392,-4.3961,-4.4615,-4.4615,0.0,-4.4615,-4.4615,-4.4615,0.0,-4.4615,-4.4615,-4.4615,-4.4615,-4.4615,-4.4615,-4.4615,-4.4615,-4.4615,-4.4615,-4.4615,-4.4615,-4.4615,-4.4615,-4.4615,-4.4615,-4.4615,-4.4654,-4.4748,-4.4913,-4.5059,-4.5167,-4.53,-4.5397,-4.5397,-4.5397,-4.5397,-4.5397,-4.5397,-4.5397,-4.5397,-4.5397,-4.5397,-4.5397,-4.5397,-4.5397,-4.5397,-4.5397,-4.5397,-4.5397,-4.5397,-4.5327,-4.5177,-4.5059,-4.4913,-4.4793,-4.4654,-4.4615,-4.4615,-4.4615,-4.4615,-4.4615,0.0,0.0,0.0,0.0,0.0,0.0,0.0,0.0,0.0,0.0,0.0,0.0,0.0,0.0,0.0,0.0,0.0,0.0,0.0,0.0,0.0,-4.2136,-4.2053,-4.1609,-4.0748,-4.0724,-4.0507,-4.0096,-4.0096,-4.0096,-4.0096,-4.0096,-4.0096,-4.0096,-4.0096,-4.0096,-4.0096,-4.0096,-4.0096,-4.0096,-4.0096,-4.0096,-4.0096,-4.0096,-4.0519,-4.1052,-4.1052,-4.1457,-4.1999,-4.1999,-4.2066,0.0,0.0,0.0,-4.3392,-4.3392,-4.3961,-4.4615,0.0,0.0,-4.4615,0.0,-4.4615,-4.4615,0.0,0.0,-4.4615,0.0,-4.4615,-4.4615,-4.4615,-4.4615,-4.4615,-4.4615,-4.4615,-4.4615,-4.4615,-4.4615,-4.4615,-4.4615,-4.4615,-4.4615,-4.4626,-4.4858,-4.5005,-4.5032,-4.5264,-4.5397,-4.5397,-4.5397,-4.5397,-4.5397,-4.5397,-4.5397,-4.5397,-4.5397,-4.5397,-4.5397,-4.5397,-4.5397,-4.5397,-4.5397,-4.5397,-4.5397,-4.5397,-4.5327,-4.5177,-4.5059,-4.4913,-4.4793,-4.4654,-4.4615,-4.4615,-4.4615,-4.4615,-4.4615,0.0,0.0,0.0,0.0,0.0,0.0,0.0,0.0,0.0,0.0,0.0,0.0,0.0,0.0,0.0,0.0,0.0,0.0,0.0,0.0,0.0,-4.2218,-4.2198,-4.176,-4.0825,-4.0802,-4.058,-4.0096,-4.0096,-4.0096,-4.0096,-4.0096,-4.0096,-4.0096,-4.0096,-4.0096,-4.0096,-4.0096,-4.0096,-4.0096,-4.0096,-4.0367,-4.0713,-4.0713,-4.117,-4.1813,-4.1813,-4.2016,-4.2286,-4.2286,-4.2574,-4.2929,-4.2929,0.0,0.0,0.0,-4.4316,-4.4615,-4.4615,-4.4615,-4.4615,0.0,-4.4615,-4.4615,-4.4615,0.0,-4.4615,-4.4615,-4.4615,-4.4615,-4.4615,-4.4615,-4.4615,-4.4615,-4.4615,-4.4615,-4.4615,-4.4615,-4.4615,-4.4615,-4.4615,-4.4615,-4.4615,-4.4776,-4.4913,-4.4978,-4.5167,-4.53,-4.5397,-4.5397,-4.5397,-4.5397,-4.5397,-4.5397,-4.5397,-4.5397,-4.5397,-4.5397,-4.5397,-4.5397,-4.5397,-4.5397,-4.5397,-4.5397,-4.5397,-4.5371,-4.53,-4.5167,-4.5032,-4.4913,-4.4748,-4.4654,-4.4615,-4.4615,-4.4615,-4.4615,0.0,0.0,0.0,0.0,0.0,0.0,0.0,0.0,0.0,0.0,0.0,0.0,0.0,0.0,0.0,0.0,0.0,0.0,0.0,0.0,0.0,-4.2398,-4.2378,-4.1931,-4.0995,-4.0972,-4.0683,-4.0096,-4.0096,-4.0096,-4.0096,-4.0096,-4.0096,-4.0096,-4.0096,-4.0096,-4.0096,-4.0096,-4.0096,-4.013,-4.0316,-4.0696,-4.1221,-4.1407,-4.1931,-4.2574,-4.2574,-4.2709,-4.2861,-4.2861,-4.325,-4.3707,-4.3707,-4.4113,0.0,0.0,0.0,-4.4615,0.0,0.0,-4.4615,-4.4615,-4.4615,-4.4615,0.0,0.0,-4.4615,0.0,-4.4615,-4.4615,-4.4615,-4.4615,-4.4615,-4.4615,-4.4615,-4.4615,-4.4615,-4.4615,-4.4615,-4.4615,-4.4615,-4.4615,-4.4615,-4.4737,-4.4858,-4.4978,-4.5123,-4.5274,-4.5397,-4.5397,-4.5397,-4.5397,-4.5397,-4.5397,-4.5397,-4.5397,-4.5397,-4.5397,-4.5397,-4.5397,-4.5397,-4.5397,-4.5397,-4.5397,-4.5397,-4.5397,-4.5397,-4.5247,-4.514,-4.5032,-4.4858,-4.4737,-4.4654,-4.4598,-4.4615,-4.4615,0.0,0.0,0.0,0.0,0.0,0.0,0.0,0.0,0.0,0.0,0.0,0.0,-4.2901,-4.2901,-4.2901,-4.2901,-4.2901,0.0,0.0,0.0,0.0,-4.2863,-4.2863,0.0,-4.1481,-4.1459,-4.1024,-4.0096,-4.0096,-4.0096,-4.0096,-4.0096,-4.0096,-4.0096,-4.0096,-4.0096,-4.0096,-4.0096,-4.0096,-4.0163,-4.0849,-4.117,-4.1288,-4.1965,-4.2709,-4.3325,-4.3325,-4.3826,-4.4479,-4.4479,-4.4513,-4.4547,-4.4547,-4.4581,-4.4615,0.0,0.0,0.0,0.0,-4.4615,0.0,-4.4615,0.0,0.0,0.0,0.0,-4.4615,-4.4615,-4.4615,-4.4615,-4.4615,-4.4615,-4.4615,-4.4615,-4.4615,-4.4615,-4.4615,-4.4615,-4.4615,-4.4615,-4.4615,-4.4615,-4.4615,-4.4737,-4.4858,-4.4978,-4.5123,-4.5274,-4.5397,-4.5397,-4.5397,-4.5397,-4.5397,-4.5397,-4.5397,-4.5397,-4.5397,-4.5397,-4.5397,-4.5397,-4.5397,-4.5397,-4.5397,-4.5397,-4.5397,-4.5397,-4.5397,-4.5247,-4.5194,-4.515,-4.4913,-4.482,-4.4776,-4.4654,-4.4615,-4.4615,0.0,0.0,0.0,0.0,0.0,0.0,0.0,0.0,0.0,0.0,0.0,0.0,0.0,-4.2901,-4.2901,-4.2901,-4.2901,0.0,0.0,0.0,0.0,-4.2901,-4.2901,-4.2596,-4.1952,-4.1952,-4.1499,-4.0556,-4.0556,-4.0402,-4.0096,-4.0096,-4.0096,-4.0096,-4.0096,-4.0096,-4.013,-4.0595,-4.0798,-4.0865,-4.161,-4.2202,-4.2632,-4.2912,-4.3487,-4.4164,-4.4164,-4.435,-4.4615,-4.4615,-4.4615,-4.4615,-4.4615,-4.4615,-4.4615,-4.4615,-4.4615,0.0,0.0,0.0,0.0,-4.4615,-4.4615,-4.4615,-4.4615,-4.4615,-4.4615,-4.4615,-4.4615,-4.4615,-4.4615,-4.4615,-4.4615,-4.4615,-4.4615,-4.4615,-4.4615,-4.4615,-4.4615,-4.4615,-4.4615,-4.4615,-4.4615,-4.4654,-4.4748,-4.4978,-4.5032,-4.5167,-4.5397,-4.5397,-4.5397,-4.5397,-4.5397,-4.5397,-4.5397,-4.5397,-4.5397,-4.5397,-4.5397,-4.5397,-4.5397,-4.5397,-4.5397,-4.5397,-4.5397,-4.5397,-4.5397,-4.5344,-4.5274,-4.5177,-4.5005,-4.4886,-4.4776,-4.4654,-4.4615,-4.4615,0.0,0.0,0.0,0.0,0.0,0.0,0.0,0.0,0.0,-4.2901,0.0,0.0,0.0,0.0,-4.2901,-4.2901,-4.2901,-4.2901,-4.2901,-4.2901,-4.2901,-4.2901,-4.2901,-4.2673,-4.2198,-4.2198,-4.1739,-4.0802,-4.0802,-4.0556,-4.0096,-4.0096,-4.0096,-4.0096,-4.0096,-4.0096,-4.0146,-4.0882,-4.1204,-4.1288,-4.2269,-4.2963,-4.3426,-4.3707,-4.413,-4.4615,-4.4615,-4.4615,-4.4615,-4.4615,-4.4615,-4.4615,-4.4615,-4.4615,-4.4615,-4.4615,-4.4615,0.0,-4.4615,0.0,0.0,0.0,0.0,-4.4615,-4.4615,0.0,-4.4615,-4.4615,-4.4615,-4.4615,-4.4615,-4.4615,-4.4615,-4.4615,-4.4615,-4.4615,-4.4615,-4.4615,-4.4615,-4.4615,-4.4615,-4.4615,-4.4615,-4.4615,-4.4709,-4.4913,-4.4978,0.0,-4.53,-4.5371,-4.5485,-4.5667,-4.5485,-4.5502,-4.5667,-4.5502,-4.5397,-4.5397,-4.5397,-4.5397,-4.5397,-4.5397,-4.5397,-4.5397,-4.5397,-4.5397,-4.5397,-4.5397,-4.53,-4.5194,-4.5059,-4.4913,-4.4776,-4.4654,-4.4615,-4.4615,0.0,0.0,0.0,0.0,0.0,0.0,0.0,0.0,-4.2901,-4.2901,0.0,0.0,0.0,0.0,0.0,-4.2901,-4.2901,-4.2901,-4.2901,-4.2901,-4.2901,-4.2901,0.0,0.0,0.0,-4.2198,-4.1739,-4.0802,-4.0802,-4.0556,-4.0096,-4.0096,-4.0096,-4.0096,-4.0096,-4.0113,-4.018,-4.0916,-4.1255,-4.139,-4.2861,-4.3426,-4.3511,-4.4282,-4.4615,-4.4615,-4.4615,-4.4615,-4.4615,-4.4615,-4.4615,-4.4615,-4.4615,-4.4615,-4.4615,-4.4615,-4.4615,-4.4615,0.0,0.0,0.0,0.0,0.0,0.0,-4.4615,0.0,-4.4615,-4.4615,-4.4615,-4.4615,-4.4615,-4.4615,-4.4615,-4.4615,-4.4615,-4.4615,-4.4615,-4.4615,-4.4615,-4.4615,-4.4615,-4.4615,-4.4615,-4.4615,-4.4654,-4.4776,-4.4923,-4.5059,-4.5177,-4.5344,-4.5641,-4.6186,-4.5693,-4.5667,-4.6186,-4.5693,-4.5423,-4.5397,-4.5397,-4.5397,-4.5397,-4.5397,-4.5397,-4.5397,-4.5397,-4.5397,-4.5397,-4.5397,-4.53,-4.5194,-4.5059,-4.4913,-4.4776,-4.4654,-4.4615,-4.4615,0.0,0.0,0.0,0.0,0.0,0.0,-4.2901,-4.2901,-4.2901,0.0,0.0,0.0,-4.2901,-4.2901,-4.2901,-4.2901,-4.2901,-4.2901,-4.2901,-4.2901,-4.2901,-4.2901,-4.2901,-4.2673,-4.2198,-4.2198,-4.1739,-4.0802,-4.0802,-4.0556,-4.0096,-4.0096,-4.0096,-4.0096,-4.0096,-4.0417,-4.0933,-4.1677,-4.2303,-4.2868,-4.3859,-4.4265,-4.4282,-4.453,-4.4615,-4.4615,-4.4615,-4.4615,-4.4615,-4.4615,-4.4615,-4.4615,-4.4615,-4.4615,-4.4615,-4.4615,-4.4615,-4.4615,-4.4615,0.0,0.0,0.0,0.0,0.0,0.0,0.0,-4.4615,-4.4615,-4.4615,-4.4615,-4.4615,-4.4615,-4.4615,-4.4615,-4.4615,-4.4615,-4.4615,-4.4615,-4.4615,-4.4615,-4.4615,-4.4615,-4.4615,-4.4615,-4.4654,0.0,-4.4923,-4.5059,-4.5177,-4.5344,-4.5641,-4.6186,-4.6055,-4.6038,-4.6211,-4.6038,-4.5778,-4.5397,-4.5397,-4.5397,-4.5397,-4.5397,-4.5397,-4.5397,-4.5397,-4.5397,-4.5397,-4.5397,-4.53,-4.5194,-4.5059,-4.4913,-4.4776,-4.4654,-4.4615,-4.4615,0.0,0.0,0.0,0.0,0.0,-4.2901,-4.2901,-4.2901,-4.2901,0.0,0.0,0.0,-4.2901,-4.2901,-4.2901,-4.2901,-4.2901,-4.2901,-4.2901,-4.2901,-4.2901,-4.2901,-4.2711,-4.2478,-4.2216,-4.1994,-4.1543,-4.0802,-4.0802,-4.0556,-4.0096,-4.0096,-4.0096,-4.0096,0.0,0.0,-4.1694,-4.2117,-4.2726,-4.346,-4.4265,-4.4615,-4.4615,-4.4615,-4.4615,-4.4615,-4.4615,-4.4615,-4.4615,-4.4615,-4.4615,-4.4615,-4.4615,-4.4615,-4.4615,-4.4615,-4.4615,-4.4615,-4.4615,-4.4615,-4.4615,-4.4615,0.0,0.0,-4.4615,-4.4615,-4.4615,0.0,-4.4615,-4.4615,-4.4615,-4.4615,-4.4615,-4.4615,-4.4615,-4.4615,-4.4615,-4.4615,-4.4615,-4.4615,-4.4615,-4.4615,-4.4615,-4.4615,-4.4626,-4.4709,-4.4886,-4.5086,-4.5274,-4.5572,-4.5963,-4.6483,-4.6507,-4.6584,-4.6776,-4.6387,-4.6038,-4.5727,-4.5528,-4.5397,-4.5397,-4.5397,-4.5397,-4.5397,-4.5397,-4.5397,-4.5397,-4.5397,-4.5274,-4.5096,-4.4951,-4.4831,-4.4709,-4.4626,-4.4615,-4.4615,0.0,0.0,-4.2901,-4.2901,-4.2901,-4.2901,-4.2901,-4.2901,-4.2901,0.0,-4.2901,-4.2901,-4.2901,-4.2901,-4.2901,-4.2901,-4.2901,-4.2901,-4.2901,-4.2901,-4.2901,-4.2901,-4.2498,-4.2239,-4.2198,-4.1803,-4.1321,-4.0802,-4.0802,-4.0556,-4.0096,-4.0096,-4.0096,-4.0096,0.0,0.0,0.0,-4.2388,-4.2844,-4.3606,-4.4299,-4.4615,-4.4615,-4.4615,-4.4615,-4.4615,-4.4615,-4.4615,-4.4615,-4.4615,-4.4615,-4.4615,-4.4615,-4.4615,-4.4615,-4.4615,-4.4615,-4.4615,-4.4615,-4.4615,-4.4615,-4.4615,-4.4615,0.0,-4.4615,-4.4615,-4.4615,0.0,-4.4615,-4.4615,-4.4615,-4.4615,-4.4615,-4.4615,-4.4615,-4.4615,-4.4615,-4.453,-4.4479,-4.4479,-4.4395,-4.4344,-4.4344,-4.4429,-4.4479,-4.4479,-4.4807,-4.513,-4.5371,-4.5817,-4.627,-4.6743,-4.6739,-4.6908,-4.7337,-4.6504,-4.6044,-4.5923,-4.5458,-4.5191,-4.5156,-4.5156,-4.519,-4.5276,-4.5276,-4.5311,-4.5397,-4.5397,-4.5238,-4.4978,-4.4886,-4.4737,-4.4615,-4.4615,-4.4615,-4.4615,0.0,-4.2901,-4.2901,-4.2901,-4.2901,-4.2901,-4.2901,-4.2901,-4.2901,-4.2901,-4.2901,-4.2901,-4.2901,-4.2901,-4.2901,-4.2901,-4.2901,-4.2901,-4.2901,-4.2901,-4.2901,-4.2901,-4.2806,-4.2595,-4.2198,-4.2115,-4.1652,-4.0802,-4.0802,-4.0556,-4.0096,-4.0096,-4.0096,-4.013,0.0,0.0,0.0,-4.2929,-4.3639,-4.4395,-4.4547,-4.4615,-4.4615,-4.4615,-4.4615,-4.4615,-4.4615,-4.4615,-4.4615,-4.4615,-4.4615,-4.4615,-4.4615,-4.4615,-4.4615,-4.4615,-4.4615,-4.4615,-4.4615,-4.4615,-4.4615,-4.4615,-4.4615,0.0,-4.4615,-4.4615,-4.4615,0.0,-4.4615,-4.4615,-4.4615,-4.4615,-4.4615,-4.4615,-4.4615,-4.4615,-4.4615,-4.4045,-4.3639,-4.3639,-4.3098,-4.277,-4.277,-4.3301,-4.3639,-4.3639,-4.4473,-4.513,-4.5371,-4.5227,-4.5394,-4.5922,-4.568,-4.5585,-4.5667,-4.5503,-4.5017,-4.426,-4.4165,-4.3934,-4.3638,-4.3638,-4.3966,-4.4492,-4.4492,-4.4854,-4.5397,-4.5274,-4.514,-4.5005,-4.4951,-4.4803,-4.4615,-4.4615,-4.4615,-4.4615,-4.2901,-4.2901,-4.2901,-4.2901,-4.2901,-4.2901,-4.2901,-4.2901,-4.2901,-4.2901,-4.3244,-4.3643,-4.4041,-4.4095,-4.4095,-4.4095,-4.4095,-4.4095,-4.4095,-4.4095,-4.4095,-4.4095,-4.3484,-4.303,-4.2787,-4.1951,-4.1253,-4.0802,-4.058,-4.0328,-4.0096,-4.0096,-4.0299,-4.0646,-4.1035,0.0,0.0,-4.3223,-4.3859,-4.4615,-4.4615,-4.4748,-4.4917,-4.4692,-4.4748,-4.4917,-4.4665,-4.4615,-4.4615,-4.4615,-4.4615,-4.4615,-4.4615,-4.4615,-4.4615,-4.4615,-4.4615,-4.4615,-4.4615,-4.4615,-4.4615,-4.4615,-4.4615,0.0,0.0,-4.4615,-4.4615,-4.4615,-4.4615,-4.4615,-4.4615,-4.4615,-4.4615,-4.4615,-4.4615,-4.4615,-4.4615,-4.391,-4.3392,-4.3392,-4.276,-4.2286,-4.2286,-4.2625,-4.2888,-4.2952,-4.3496,-4.3973,-4.4199,-4.4528,-4.4822,-4.5084,-4.5377,-4.5548,-4.5548,-4.5314,-4.4851,-4.416,-4.3903,-4.3602,-4.3189,-4.3189,-4.3396,-4.3741,-4.3741,-4.3966,-4.4337,-4.4647,-4.4654,-4.4573,-4.4814,-4.4793,-4.4615,-4.4615,-4.4615,-4.4615,-4.2901,-4.2901,-4.2955,-4.3099,-4.3118,-4.3172,-4.3354,-4.3372,-4.3372,-4.3372,-4.3914,-4.4584,-4.5236,-4.5291,-4.5291,-4.5291,-4.5291,-4.5291,-4.5291,-4.5291,-4.5291,-4.5291,-4.4317,-4.3731,-4.3607,-4.2226,-4.1423,-4.1209,-4.0853,-4.062,-4.0519,-4.0519,-4.0832,-4.1424,0.0,0.0,0.0,-4.3589,-4.405,-4.4731,-4.4731,-4.4906,-4.5125,-4.4731,-4.4841,-4.5125,-4.4748,-4.4615,-4.4615,-4.4615,-4.4615,-4.4615,-4.4615,-4.4615,-4.4615,-4.4615,-4.4615,-4.4615,-4.4615,-4.4615,-4.4615,-4.4615,-4.4615,-4.4615,0.0,0.0,0.0,-4.4615,0.0,0.0,0.0,0.0,0.0,0.0,0.0,0.0,0.0,-4.369,0.0,-4.3172,-4.2405,-4.1863,-4.1863,-4.1999,-4.2213,-4.2464,-4.2628,-4.2826,-4.3097,-4.386,-4.431,-4.4414,-4.5089,-4.5443,-4.5443,-4.5054,-4.4646,-4.4199,-4.3806,-4.3366,-4.2888,-4.2888,-4.2926,-4.2965,-4.2965,-4.3051,-4.3241,-4.3845,-4.3984,-4.3889,-4.4555,-4.4765,-4.4626,-4.4598,-4.4615,-4.4615,-4.2901,-4.2901,-4.3137,-4.3824,-4.3951,-4.4186,-4.491,-4.5037,-4.5037,-4.5037,-4.511,-4.52,-4.5291,-4.5291,-4.5291,-4.5291,-4.5291,-4.5291,-4.5291,-4.5291,-4.5291,-4.5291,-4.516,-4.4865,-4.4389,-4.4173,-4.365,-4.2752,-4.2702,-4.2467,-4.2033,-4.2033,-4.2083,-4.2202,-4.2878,-4.324,0.0,-4.4147,-4.4756,-4.5214,-4.5214,-4.5008,-4.4665,-4.4626,-4.4626,-4.4665,-4.4626,-4.4615,-4.4615,-4.4615,-4.4615,-4.4615,-4.4615,-4.4615,-4.4615,-4.4615,-4.4615,-4.4615,-4.4615,-4.4615,-4.4615,-4.4615,-4.4615,-4.4615,-4.4615,0.0,-4.4615,-4.4615,0.0,-4.4615,-4.4615,0.0,0.0,0.0,0.0,0.0,-4.3656,-4.2895,-4.2422,-4.2422,-4.1213,-4.035,-4.035,-4.0933,-4.1645,-4.243,-4.2628,-4.2944,-4.3502,-4.3465,-4.3629,-4.405,-4.3871,-4.3772,-4.3772,-4.3719,-4.3488,-4.3078,-4.3039,-4.2545,-4.1686,-4.1686,-4.1864,-4.2154,-4.2154,-4.2551,-4.3207,-4.3293,-4.3159,-4.3005,-4.4431,-4.4913,-4.4748,-4.4654,-4.4615,-4.4615,-4.3588,-4.3588,-4.3842,-4.4657,-4.4802,-4.491,-4.5254,-4.5291,-4.5472,-4.5943,-4.5997,-4.6178,-4.6649,-4.6703,-4.6703,-4.6703,-4.6703,-4.6703,-4.6703,-4.6703,-4.6703,-4.6703,-4.625,-4.5755,-4.5209,-4.448,-4.3728,-4.3011,-4.2723,-4.2481,-4.2286,-4.2286,-4.2523,-4.2963,-4.324,-4.3673,-4.4113,-4.4479,-4.472,-4.4917,-4.5188,-4.5188,-4.5035,-4.5363,-4.5284,-4.4971,-4.4692,-4.4615,-4.4615,-4.4615,-4.4615,-4.4615,-4.4615,-4.4615,-4.4615,-4.4615,-4.4919,-4.5229,-4.5229,-4.5534,-4.5754,-4.5348,-4.5229,-4.5111,-4.4699,-4.4615,-4.4615,-4.4615,0.0,0.0,0.0,0.0,0.0,0.0,-4.3995,0.0,0.0,0.0,-4.1813,0.0,0.0,0.0,-4.0096,-4.0383,-4.0705,-4.107,-4.1307,-4.1638,-4.212,-4.2479,-4.2882,-4.3352,-4.345,-4.3515,-4.3515,-4.3515,-4.3304,-4.2901,-4.2901,-4.2418,-4.1494,-4.1494,-4.1457,-4.136,-4.136,-4.155,-4.1895,-4.2327,-4.2376,-4.2278,-4.3279,-4.3802,-4.4044,-4.4445,-4.4615,-4.4615,-4.4711,-4.4584,-4.4675,-4.549,-4.5635,-4.5707,-4.5924,-4.5961,-4.6178,-4.6757,-4.683,-4.7065,-4.7645,-4.7717,-4.7717,-4.7717,-4.7717,-4.7717,-4.7717,-4.7717,-4.7717,-4.7717,-4.6994,-4.6374,-4.5831,-4.4776,-4.3965,-4.3434,-4.3083,-4.2912,-4.2912,-4.2912,-4.3217,-4.3741,-4.3741,-4.4111,-4.4786,-4.4786,-4.4961,-4.5266,-4.5588,-4.5843,-4.595,-4.59,-4.5622,-4.5241,-4.4759,-4.4615,-4.4615,-4.4615,-4.4615,0.0,-4.4852,-4.4919,-4.4953,-4.5156,-4.5568,-4.6007,-4.6007,-4.6397,-4.6667,-4.6143,-4.6007,-4.5805,-4.506,-4.4919,-4.4823,-4.4649,-4.4615,0.0,0.0,0.0,-4.4181,-4.4005,0.0,-4.3047,0.0,-4.1897,0.0,0.0,0.0,0.0,0.0,-4.0096,-4.0096,-4.0096,-4.0362,-4.0724,-4.1263,-4.1867,-4.2478,-4.305,-4.3357,-4.3515,-4.3515,-4.3515,-4.3357,-4.305,-4.305,-4.2577,-4.1692,-4.1692,-4.1401,-4.0912,-4.0912,-4.0912,-4.0946,-4.1433,-4.156,-4.1481,-4.2125,-4.2532,-4.2895,-4.3673,-4.4079,-4.4265,-4.6269,-4.5798,-4.5526,-4.6323,-4.6468,-4.6721,-4.7518,-4.7606,-4.7645,-4.7663,-4.7663,-4.7681,-4.7717,-4.7717,-4.7717,-4.7717,-4.7717,-4.7717,-4.7717,-4.7717,-4.7717,-4.7717,-4.7178,-4.6648,-4.6088,-4.5545,-4.5003,-4.4558,-4.453,-4.453,0.0,0.0,-4.4547,-4.4564,-4.4564,-4.4835,-4.5276,-4.5276,-4.5893,-4.684,-4.684,-4.7151,-4.745,0.0,-4.5303,-4.5241,-4.4759,0.0,0.0,-4.4615,-4.4615,0.0,0.0,0.0,0.0,0.0,0.0,0.0,0.0,0.0,-4.6786,-4.6752,-4.6752,-4.6566,-4.5838,-4.5669,-4.5466,-4.475,-4.4615,-4.4615,-4.4615,-4.3961,-4.3217,-4.2489,-4.2337,0.0,0.0,0.0,0.0,0.0,0.0,0.0,0.0,-4.0096,-4.0096,-4.0096,-4.0362,-4.0873,-4.1746,-4.2056,-4.2578,-4.3444,-4.3479,-4.3515,-4.3515,-4.3515,-4.3479,-4.3479,-4.3479,-4.3014,-4.2177,-4.2177,-4.1709,-4.0912,-4.0912,-4.0912,-4.0888,-4.0803,-4.0658,-4.0588,-4.1214,-4.1367,-4.1373,-4.21,-4.2828,-4.3426,-4.7156,-4.7083,-4.6975,-4.7265,-4.7301,-4.7391,-4.7663,-4.7717,-4.7717,-4.7717,-4.7717,-4.7717,-4.7717,-4.7717,-4.7717,-4.7717,-4.7717,-4.7717,-4.7717,-4.7717,-4.7717,-4.7717,-4.7191,-4.666,-4.6098,-4.5571,-4.5089,-4.4615,-4.4615,-4.4615,0.0,0.0,0.0,0.0,0.0,-4.4852,0.0,0.0,0.0,0.0,0.0,-4.8026,-4.8356,0.0,-4.6123,-4.5749,-4.5258,-4.4852,0.0,-4.4615,-4.4615,-4.4649,-4.4874,-4.4959,-4.5111,-4.5855,-4.6413,-4.6904,0.0,0.0,-4.8139,-4.7665,0.0,0.0,-4.5991,-4.5703,-4.55,-4.4767,-4.4181,-4.3809,-4.3809,-4.3183,-4.2591,-4.2337,-4.188,-4.1491,0.0,0.0,0.0,-4.046,-4.0265,0.0,0.0,0.0,-4.0096,-4.0096,-4.0263,-4.0795,-4.1746,-4.1976,-4.2501,-4.3462,-4.3515,-4.3515,-4.3515,-4.3515,-4.3515,-4.3515,-4.3515,-4.305,-4.2198,-4.2198,-4.1731,-4.0912,-4.0912,-4.0912,-4.0888,-4.0745,-4.0624,-4.0502,-4.0627,-4.0586,-4.0637,-4.1847,-4.2455,-4.2675,-4.7609,-4.7717,-4.7717,-4.7717,-4.7717,-4.7717,-4.7717,-4.7717,-4.7717,-4.7717,-4.7717,-4.7717,-4.7717,-4.7717,-4.7717,-4.7717,-4.7717,-4.7717,-4.7717,-4.7717,-4.7717,-4.7717,-4.7191,-4.673,-4.6382,-4.5673,-4.5152,-4.4852,-4.4665,-4.4615,0.0,0.0,0.0,0.0,0.0,-4.4988,-4.5571,-4.5571,-4.6455,0.0,0.0,-4.8411,0.0,0.0,-4.6863,-4.631,0.0,-4.5372,-4.5106,-4.4906,-4.4852,-4.4865,-4.4976,-4.5128,-4.5375,-4.593,-4.6559,-4.7134,-4.7437,-4.7868,0.0,-4.7631,-4.7513,0.0,-4.5991,0.0,-4.5077,-4.4316,-4.3555,-4.3014,-4.3014,-4.2405,-4.1914,-4.1914,-4.1288,-4.0798,0.0,-4.0417,-4.0096,-4.0096,-4.0096,-4.0096,0.0,-4.0096,-4.0096,-4.0096,-4.0213,-4.0731,-4.1746,-4.1916,-4.2464,-4.3462,-4.3515,-4.3515,-4.3515,-4.3515,-4.3515,-4.3515,-4.3515,-4.3124,-4.2438,-4.2277,-4.1799,-4.1111,-4.0965,-4.0871,-4.0817,-4.0697,-4.0534,-4.0412,-4.0288,-4.0188,-4.0231,-4.1179,-4.1677,-4.1948,-4.7826,-4.7826,-4.7826,-4.7826,-4.779,-4.7753,-4.7717,-4.7735,-4.7753,-4.7717,-4.7717,-4.7717,-4.7717,-4.7717,-4.7717,-4.7717,-4.7717,-4.7717,-4.7717,-4.7717,-4.7717,-4.7717,-4.7191,-4.6908,-4.6908,-4.585,-4.5303,-4.5303,-4.4824,-4.4615,0.0,0.0,0.0,0.0,-4.4615,0.0,-4.6098,-4.6151,-4.7245,-4.8945,-4.8945,-4.8475,-4.7772,-4.7735,-4.7385,-4.6863,-4.6334,-4.6123,-4.6024,-4.5511,-4.5329,-4.5388,-4.5637,-4.6054,-4.6505,-4.6759,-4.7176,-4.7485,-4.6956,-4.6844,-4.6844,-4.6832,-4.6786,0.0,0.0,0.0,-4.435,0.0,0.0,0.0,0.0,-4.1644,-4.1153,-4.1153,-4.0544,-4.0096,-4.0096,-4.0096,-4.0096,-4.0096,-4.0096,-4.0096,-4.0096,-4.0096,-4.0096,-4.0096,-4.0213,-4.0731,0.0,-4.1916,-4.2464,-4.3462,-4.3515,-4.3515,-4.3515,-4.3515,-4.3515,-4.3515,-4.3515,-4.3286,-4.2882,-4.2418,-4.1948,-4.149,-4.1088,-4.0817,-4.0697,-4.0558,-4.0412,-4.0305,-4.0163,-4.0096,-4.0096,-4.0096,-4.0527,-4.1255,-4.9474,-4.9474,-4.9474,-4.9474,-4.8985,-4.8384,-4.7787,-4.8203,-4.8366,-4.779,-4.7717,-4.7717,-4.7717,-4.7717,-4.7717,-4.7717,-4.7717,-4.7717,-4.7717,-4.7717,-4.7717,-4.7717,-4.7191,-4.6908,-4.6908,-4.585,-4.5303,-4.5303,-4.4824,-4.4615,-4.4615,0.0,0.0,0.0,0.0,-4.5159,-4.6151,-4.673,-4.8087,-4.9782,-4.9782,-4.9311,-4.8529,0.0,-4.7615,-4.7428,-4.6886,-4.643,-4.6074,-4.5925,-4.59,-4.5928,-4.5985,-4.6089,-4.6322,-4.6917,-4.7195,-4.7335,-4.7393,-4.7397,-4.7301,-4.6903,-4.6786,-4.6447,0.0,0.0,0.0,0.0,0.0,0.0,0.0,0.0,-4.0383,-4.0383,-4.0231,-4.0096,-4.0096,-4.0096,-4.0096,-4.0096,-4.0096,-4.0096,-4.0096,-4.0096,-4.0096,-4.0096,-4.0121,-4.0618,-4.1746,0.0,-4.2346,-4.348,-4.3515,-4.3515,-4.3515,-4.3515,-4.3515,-4.3515,-4.3515,-4.3286,-4.2882,-4.2418,-4.1948,-4.149,-4.1088,-4.0817,-4.0697,-4.0558,-4.0412,-4.0305,-4.0163,-4.0096,-4.0096,-4.0096,-4.0231,-4.0417,-4.9039,-4.9039,-4.9039,-4.9039,-4.8967,-4.8746,-4.8275,-4.8294,-4.8203,-4.7772,-4.7717,-4.7717,-4.7717,-4.7717,-4.7717,-4.7717,-4.7717,-4.7717,-4.7717,-4.7717,-4.7717,-4.7717,-4.7407,-4.7258,-4.7258,-4.643,-4.5875,-4.5648,-4.5169,-4.4814,-4.4615,0.0,0.0,0.0,0.0,-4.523,-4.6367,-4.76,-4.8348,-4.8735,-4.9354,-4.9094,0.0,-4.788,-4.7717,-4.7657,-4.7363,-4.7062,-4.6753,-4.6525,-4.6454,-4.6406,-4.6172,-4.6262,-4.6495,-4.6674,-4.6723,-4.6685,-4.6627,-4.6457,-4.6214,-4.5891,-4.585,-4.5517,-4.4333,-4.3826,-4.3278,0.0,-4.1221,-4.0713,0.0,0.0,0.0,-4.0096,-4.0096,-4.0096,-4.0096,-4.0096,-4.0096,-4.0096,-4.0096,-4.0096,-4.0096,-4.0096,-4.0096,-4.0096,-4.0279,-4.0814,0.0,0.0,-4.2542,-4.3462,-4.3515,-4.3515,-4.3515,-4.3515,-4.3515,-4.3515,-4.3515,-4.3375,-4.3142,-4.248,-4.2053,-4.1778,-4.1163,-4.0776,-4.0624,-4.0534,-4.0387,-4.0213,-4.0138,-4.0096,-4.0096,-4.0096,-4.0096,-4.0096,-4.8025,-4.8025,-4.8025,-4.8025,-4.8514,-4.8891,-4.8891,-4.8294,-4.7826,-4.7696,-4.7717,-4.7717,-4.7717,-4.7717,-4.7717,-4.7717,-4.7717,-4.7717,-4.7717,-4.7717,-4.7717,-4.7717,-4.7717,-4.7717,-4.7717,-4.7173,-4.6637,-4.6098,-4.5545,-4.5062,-4.4615,0.0,0.0,0.0,0.0,0.0,0.0,-4.8505,-4.8413,-4.7277,-4.8431,-4.842,-4.7717,-4.7717,-4.7717,-4.7717,-4.7717,-4.7717,-4.7636,-4.7151,-4.6999,-4.6931,-4.6454,-4.6637,-4.6908,-4.6454,-4.631,-4.6189,-4.5588,-4.5115,-4.4776,-4.4626,-4.4654,-4.4489,-4.3698,-4.2971,-4.2303,-4.1546,-4.0806,-4.0279,-4.0279,0.0,0.0,0.0,0.0,-4.0196,-4.0196,-4.0146,-4.0096,-4.0096,-4.0096,0.0,-4.0096,-4.0096,-4.0096,-4.0096,-4.0483,-4.1024,0.0,0.0,-4.2734,-4.3479,-4.3515,-4.3515,-4.3515,-4.3515,-4.3515,-4.3515,-4.3515,-4.3515,-4.3462,-4.2598,-4.2198,-4.2136,-4.1277,-4.0752,-4.051,-4.051,-4.032,-4.0096,-4.0096,-4.0096,-4.0096,-4.0096,-4.0096,-4.0096,-4.9695,-4.9695,-4.9695,-4.9695,-4.9257,-4.8891,-4.8891,-4.8764,-4.8438,-4.7787,-4.7717,-4.7717,-4.7717,-4.7717,-4.7717,-4.7717,-4.7717,-4.7717,-4.7717,-4.7717,-4.7717,-4.7717,-4.7717,-4.7717,-4.7717,-4.7173,-4.6637,-4.6098,-4.5545,-4.5062,-4.4615,0.0,0.0,0.0,0.0,0.0,-4.8119,-4.8866,0.0,-4.8565,-4.8815,-4.842,-4.7717,-4.7717,-4.7717,-4.7717,-4.7717,-4.7717,-4.7696,-4.7593,-4.7554,-4.7533,-4.745,-4.749,-4.7533,-4.7446,-4.7407,-4.7214,-4.6238,-4.5893,-4.5631,-4.4803,-4.4906,-4.4972,-4.4216,-4.3796,-4.333,-4.2585,-4.1817,-4.1236,-4.1236,0.0,0.0,0.0,0.0,-4.0676,-4.0676,-4.0353,-4.0096,-4.0096,-4.0096,-4.0096,-4.0096,-4.0096,-4.0096,-4.0096,-4.0171,-4.0689,-4.1729,0.0,-4.2406,0.0,-4.3515,-4.3515,0.0,0.0,-4.3515,-4.3515,-4.3515,-4.3515,-4.3462,-4.2598,-4.2198,-4.2136,-4.1277,-4.0752,-4.051,-4.051,-4.032,-4.0096,-4.0096,-4.0096,-4.0096,-4.0096,-4.0096,-4.0096,-4.8858,-4.8858,-4.8858,-4.8858,-4.8532,-4.8275,-4.8275,-4.8275,-4.8152,-4.7753,-4.7717,-4.7717,-4.7717,-4.7717,-4.7717,-4.7717,-4.7717,-4.7717,-4.7717,-4.7717,-4.7717,-4.7717,-4.7717,-4.7717,-4.7717,-4.7446,-4.6908,-4.6098,-4.5825,-4.5337,-4.4615,-4.4976,0.0,0.0,0.0,-4.6746,0.0,0.0,0.0,-4.7895,-4.8172,-4.8061,-4.7717,-4.7717,-4.7717,-4.7717,-4.7717,-4.7717,-4.7717,-4.7717,-4.7717,-4.7717,-4.7717,-4.7717,-4.7717,-4.7717,-4.732,-4.6753,-4.6238,-4.5918,-4.5563,-4.5089,-4.5346,-4.5403,-4.4254,-4.389,-4.3483,-4.2311,-4.1767,-4.1503,-4.1503,-4.1298,0.0,0.0,0.0,-4.0896,-4.1116,-4.0955,-4.0754,-4.0483,-4.0683,-4.0618,-4.0146,-4.0538,-4.0618,-4.0146,-4.0328,-4.0838,-4.175,0.0,-4.2581,0.0,0.0,0.0,-4.3515,0.0,-4.3515,-4.3515,-4.3515,-4.3392,-4.3178,-4.2518,-4.2074,-4.1799,-4.1094,-4.068,-4.0485,-4.0345,-4.0238,-4.0096,-4.0096,-4.0096,-4.0096,-4.0096,-4.0096,-4.0096,-4.7717,-4.7717,-4.7717,-4.7717,-4.7717,-4.7717,-4.7717,-4.7717,-4.7717,-4.7717,-4.7717,-4.7717,-4.7717,-4.7717,-4.7717,-4.7717,-4.7717,-4.7717,-4.7717,-4.7717,-4.7717,-4.7717,-4.7717,-4.7717,-4.7717,-4.7717,-4.7236,-4.6286,-4.6286,-4.5759,-4.4748,-4.5343,-4.5716,0.0,0.0,0.0,0.0,0.0,-4.7645,-4.7107,-4.7533,-4.7717,-4.7717,-4.7717,-4.7717,-4.7717,-4.7717,-4.7717,-4.7717,-4.7717,-4.7717,-4.7717,-4.7717,-4.7717,-4.7717,-4.7717,-4.7107,-4.6406,-4.631,-4.595,-4.5597,-4.5511,-4.5875,-4.5916,-4.4519,-4.417,-4.3726,-4.2334,-4.1931,-4.1764,-4.1656,-4.1432,0.0,0.0,0.0,0.0,0.0,-4.1415,-4.1253,-4.0972,-4.1094,-4.0978,-4.0458,-4.0902,-4.0949,-4.0303,-4.0683,-4.1208,-4.1768,-4.2144,-4.2694,0.0,0.0,-4.3375,-4.3375,0.0,-4.3463,-4.3375,-4.3375,-4.3142,-4.2749,-4.2277,-4.1842,-4.1468,-4.0924,-4.0624,-4.0436,-4.0213,-4.0096,-4.0096,-4.0096,-4.0096,-4.0096,-4.0096,-4.0096,-4.0096,-4.7717,-4.7717,-4.7717,-4.7717,-4.7717,-4.7717,-4.7717,-4.7717,-4.7717,-4.7717,-4.7717,-4.7717,-4.7717,-4.7717,-4.7717,-4.7717,-4.7717,-4.7717,-4.7717,-4.7717,-4.7717,-4.7717,-4.7717,-4.7717,-4.7717,-4.7717,-4.7407,-4.684,-4.684,-4.6286,-4.5241,-4.531,-4.5713,0.0,0.0,0.0,0.0,-4.7921,-4.7868,-4.7636,-4.7678,-4.7717,-4.7717,-4.7717,-4.7717,-4.7717,-4.7717,-4.7717,-4.7717,-4.7717,-4.7717,-4.7717,-4.7717,-4.7717,-4.7717,-4.7717,-4.7636,-4.7428,-4.6954,-4.6776,-4.6637,-4.6165,-4.643,-4.6608,-4.5713,-4.5326,-4.4899,-4.4052,-4.3293,-4.2653,-4.2218,-4.2458,-4.2458,0.0,0.0,0.0,0.0,0.0,-4.1019,-4.137,-4.0713,-4.0514,-4.1281,-4.0666,-4.0377,-4.0707,-4.1162,-4.1547,-4.1789,-4.1888,-4.2257,-4.292,-4.2975,-4.2975,-4.2975,-4.3322,-4.3322,-4.2975,-4.2975,-4.2711,-4.2239,-4.1778,-4.1539,-4.1468,-4.0924,-4.0551,-4.0305,-4.0163,-4.0096,-4.0096,-4.0096,-4.0096,-4.0096,-4.0096,-4.0096,-4.0096,-4.7717,-4.7717,-4.7717,-4.7717,-4.7717,-4.7717,-4.7717,-4.7717,-4.7717,-4.7717,-4.7717,-4.7717,-4.7717,-4.7717,-4.7717,-4.7717,-4.7717,-4.7717,-4.7717,-4.7717,-4.7717,-4.7717,-4.7717,-4.7717,-4.7717,-4.7717,-4.7446,-4.6908,-4.6908,-4.6358,-4.532,-4.6091,-4.6603,0.0,0.0,-4.7373,-4.7372,-4.7684,-4.776,-4.7717,-4.7717,-4.7717,-4.7717,-4.7717,-4.7717,-4.7717,-4.7717,-4.7717,-4.7717,-4.7717,-4.7717,-4.7717,-4.7717,-4.7717,-4.7717,-4.7717,-4.7468,-4.7173,-4.6954,-4.6908,-4.6863,-4.6637,-4.6976,-4.7043,-4.5765,-4.5387,-4.4928,-4.3643,-4.3137,-4.2844,-4.2653,-4.2537,-4.2458,-4.236,0.0,0.0,0.0,0.0,0.0,-4.1931,-4.1846,-4.17,-4.1525,-4.1813,-4.1673,0.0,-4.0707,-4.0838,-4.1246,-4.1587,-4.1927,-4.2223,0.0,-4.3068,-4.2769,-4.325,-4.3304,-4.2901,-4.2901,-4.2498,-4.1778,-4.1583,-4.1288,-4.089,-4.0662,-4.0436,-4.0188,-4.0138,-4.0096,-4.0096,-4.0096,-4.0096,-4.0096,-4.0096,-4.0096,-4.0096,-4.7717,-4.7717,-4.7717,-4.7717,-4.7717,-4.7717,-4.7717,-4.7717,-4.7717,-4.7717,-4.7717,-4.7717,-4.7717,-4.7717,-4.7717,-4.7717,-4.7717,-4.7717,-4.7717,-4.7717,-4.7717,-4.7717,-4.7717,-4.7717,-4.7717,-4.7717,-4.7511,-4.7129,-4.7129,-4.666,-4.5792,-4.6518,-4.6956,0.0,-4.7506,-4.7454,-4.7151,-4.7533,-4.7717,-4.7717,-4.7717,-4.7717,-4.7717,-4.7717,-4.7717,-4.7717,-4.7717,-4.7717,-4.7717,-4.7717,-4.7717,-4.7717,-4.7717,-4.7717,-4.7717,-4.7717,-4.7428,-4.7129,-4.7129,-4.7129,-4.7129,-4.7129,-4.7407,-4.7283,-4.5671,-4.5291,-4.4838,-4.3226,-4.2901,-4.2901,-4.2901,-4.2634,-4.2458,-4.2653,0.0,0.0,0.0,-4.2692,0.0,-4.2438,-4.2458,-4.234,-4.1952,-4.2431,-4.2343,0.0,0.0,-4.0689,-4.1105,-4.1499,0.0,0.0,0.0,0.0,-4.275,-4.325,-4.3304,-4.2901,-4.2768,-4.2259,-4.1494,-4.1333,-4.096,-4.0436,-4.0436,-4.0313,-4.0096,-4.0096,-4.0096,-4.0096,-4.0096,-4.0096,-4.0096,-4.0096,-4.0096,-4.0096,-4.7717,-4.7717,-4.7717,-4.7717,-4.7717,-4.7717,-4.7717,-4.7717,-4.7717,-4.7717,-4.7717,-4.7717,-4.7717,-4.7717,-4.7717,-4.7717,-4.7717,-4.7717,-4.7717,-4.7717,-4.7717,0.0,-4.7717,-4.7717,-4.7717,-4.7717,-4.7696,-4.7678,0.0,-4.7407,-4.6863,-4.6334,-4.64,-4.6903,-4.6926,-4.7191,-4.7678,-4.7696,-4.7717,-4.7717,-4.7717,-4.7717,-4.7717,-4.7717,-4.7717,-4.7717,-4.7717,-4.7717,-4.7717,-4.7717,-4.7717,-4.7717,-4.7717,-4.7717,-4.7717,-4.7717,-4.7696,-4.7678,-4.7678,-4.7678,-4.7678,-4.7678,-4.7696,-4.7283,-4.5671,-4.5291,-4.4838,-4.3226,-4.2901,-4.2901,-4.2901,-4.29,-4.2731,-4.2279,0.0,0.0,0.0,-4.2198,0.0,-4.2844,-4.2077,-4.1888,-4.2788,-4.2056,0.0,0.0,0.0,0.0,0.0,0.0,0.0,-4.2673,-4.2711,0.0,-4.29,-4.3304,-4.3304,-4.2882,-4.2438,-4.1969,-4.1472,-4.0948,-4.0551,-4.0305,-4.0305,-4.0213,-4.0096,-4.0096,-4.0096,-4.0096,-4.0096,-4.0096,-4.0096,-4.0096,-4.0096,-4.0096,-4.7717,-4.7717,-4.7717,-4.7717,-4.7717,-4.7717,-4.7717,-4.7717,-4.7717,-4.7717,-4.7717,-4.7717,-4.7717,-4.7717,-4.7717,0.0,-4.7717,-4.7717,0.0,-4.7717,-4.7717,-4.7717,-4.7717,-4.7717,-4.7717,-4.7717,-4.7717,-4.7717,0.0,0.0,0.0,-4.6908,-4.6931,-4.7446,-4.7446,-4.7533,-4.7717,-4.7717,-4.7717,-4.7717,-4.7717,-4.7717,-4.7717,-4.7717,-4.7717,-4.7717,-4.7717,-4.7717,-4.7717,-4.7717,-4.7717,-4.7717,-4.7717,-4.7717,-4.7717,-4.7717,-4.7717,-4.7717,-4.7717,-4.7717,-4.7717,-4.7717,-4.7717,-4.7283,-4.5671,-4.444,-4.3516,-4.301,-4.2901,-4.2901,-4.2901,-4.2901,-4.2844,-4.2692,-4.2806,0.0,-4.2692,0.0,-4.2731,-4.2882,-4.2653,-4.2577,-4.2863,-4.2803,0.0,0.0,0.0,0.0,0.0,0.0,0.0,0.0,-4.2674,0.0,-4.2769,-4.325,-4.3304,-4.2901,-4.275,-4.2378,-4.1803,-4.1283,-4.0954,-4.0748,-4.0444,-4.0213,-4.0096,-4.0096,-4.0096,-4.0096,-4.0096,-4.0096,-4.0096,-4.0096,-4.0096,-4.0096,-4.7717,-4.7717,-4.7717,-4.7717,-4.7717,-4.7717,-4.7717,-4.7717,-4.7717,-4.7717,-4.7717,-4.7717,-4.7717,-4.7717,0.0,-4.7717,-4.7717,-4.7717,-4.7717,-4.7717,-4.7717,-4.7717,-4.7717,-4.7717,-4.7717,-4.7717,0.0,-4.7717,-4.7717,-4.7717,-4.7678,-4.7363,-4.7385,-4.7717,-4.7717,-4.7717,-4.7717,-4.7717,-4.7717,-4.7717,-4.7717,-4.7717,-4.7717,-4.7717,-4.7717,-4.7717,-4.7717,-4.7717,-4.7717,-4.7717,-4.7717,-4.7717,-4.7717,-4.7717,-4.7717,-4.7717,-4.7717,-4.7717,-4.7717,-4.7717,-4.7717,-4.7717,-4.7717,-4.7283,-4.5671,-4.4059,-4.2901,-4.2901,-4.2901,-4.2901,-4.2901,-4.2901,-4.2901,-4.2901,-4.2901,-4.2901,-4.2901,0.0,-4.2901,0.0,0.0,-4.2901,0.0,-4.3046,-4.2958,0.0,0.0,0.0,0.0,0.0,-4.2216,-4.2234,-4.2863,-4.3123,-4.2957,-4.3322,-4.3357,-4.3105,-4.2881,-4.2476,-4.1885,-4.1534,-4.1311,-4.1162,-4.0676,-4.0427,-4.0353,-4.0171,-4.0096,-4.0096,-4.0096,-4.0096,-4.0096,-4.0096,-4.0096,-4.0096,-4.788,-4.7826,-4.779,-4.779,-4.7732,-4.7717,-4.7717,-4.7717,-4.7717,-4.7717,-4.7717,-4.7717,-4.7717,-4.7717,-4.7717,-4.7717,0.0,0.0,-4.7717,-4.7717,-4.7717,-4.7717,-4.7717,-4.7717,-4.7717,-4.7717,-4.7717,-4.7717,-4.7717,-4.7717,-4.7717,-4.7717,-4.7717,-4.7717,-4.7717,-4.7717,-4.7717,-4.7717,-4.7717,-4.7717,-4.7717,-4.7717,-4.7717,-4.7717,-4.7717,-4.7717,-4.7717,-4.7717,-4.7717,-4.7717,-4.7717,-4.7717,-4.7717,-4.7717,-4.7717,-4.7717,-4.7717,-4.7717,-4.7717,-4.7717,-4.7717,-4.7717,-4.7606,-4.7138,-4.5562,-4.4005,-4.2901,-4.2901,-4.2901,-4.2901,-4.2901,-4.2901,-4.2901,-4.2901,-4.2901,-4.2901,-4.2901,-4.2901,-4.2901,-4.2901,0.0,0.0,-4.2901,-4.2901,-4.2901,0.0,0.0,0.0,0.0,0.0,-4.2516,-4.3086,-4.316,-4.3269,-4.3376,-4.3445,-4.3445,-4.3394,-4.288,-4.2333,-4.1796,-4.1753,-4.1648,-4.1459,-4.0995,-4.0778,-4.0707,-4.0279,-4.0096,-4.0096,-4.0096,-4.0096,-4.0096,-4.0096,-4.0096,-4.0096,0.0,0.0,-4.8619,-4.8619,-4.8094,-4.7717,-4.7717,-4.7717,-4.7717,-4.7717,-4.7717,-4.7717,-4.7717,-4.7717,-4.7717,-4.7717,-4.7717,-4.7717,-4.7717,-4.7717,-4.7717,-4.7717,-4.7717,-4.7717,-4.7717,-4.7717,-4.7717,-4.7717,-4.7717,-4.7717,-4.7717,-4.7717,-4.7717,-4.7717,-4.7717,-4.7717,-4.7717,-4.7717,-4.7717,-4.7717,-4.7717,-4.7717,-4.7717,-4.7717,-4.7717,-4.7717,-4.7717,-4.7717,-4.7717,-4.7717,-4.7717,-4.7717,-4.7717,-4.7717,-4.7717,-4.7717,-4.7717,-4.7717,-4.7717,-4.7717,-4.7717,-4.7717,-4.6794,-4.5617,-4.4603,-4.3607,-4.2901,-4.2901,-4.2901,-4.2901,-4.2901,-4.2901,-4.2901,-4.2901,-4.2901,-4.2901,-4.2901,-4.2901,-4.2901,0.0,-4.2901,-4.2901,-4.2901,-4.2901,-4.2901,0.0,0.0,-4.2901,-4.2901,-4.2806,-4.2843,-4.3086,-4.3123,-4.316,-4.3251,-4.325,-4.325,-4.3251,-4.3068,-4.2918,-4.2747,-4.2277,-4.1867,-4.1459,-4.0995,-4.0604,-4.0271,-4.0146,-4.0096,-4.0096,-4.0096,-4.0096,-4.0096,-4.0096,-4.0096,-4.0096,-5.0112,-4.9745,-4.9456,-4.9456,-4.8786,-4.8239,-4.8239,-4.7932,-4.7717,-4.7717,-4.7717,-4.7717,-4.7717,-4.7717,-4.7717,-4.7717,-4.7717,-4.7717,-4.7717,-4.7717,-4.7717,-4.7717,-4.7717,-4.7717,-4.7717,-4.7717,-4.7717,-4.7717,-4.7717,-4.7717,-4.7717,-4.7717,-4.7717,-4.7717,-4.7717,-4.7717,-4.7717,-4.7717,-4.7717,-4.7717,-4.7717,-4.7717,-4.7717,-4.7717,-4.7717,-4.7717,-4.7717,-4.7717,-4.7717,-4.7717,-4.7717,-4.7717,-4.7717,-4.7717,-4.7717,-4.7717,-4.7717,-4.7717,-4.7717,-4.7717,-4.7627,-4.7246,-4.6214,-4.5091,-4.4277,-4.3462,-4.2901,-4.2901,-4.2901,-4.2901,-4.2901,-4.2901,-4.2901,-4.2901,-4.2901,-4.2901,-4.2901,-4.2901,-4.2901,-4.2901,-4.2901,-4.2901,-4.2901,-4.2901,-4.2901,-4.2901,-4.2901,0.0,-4.2901,-4.2901,-4.2938,-4.3012,-4.3067,-4.3123,-4.3142,-4.3142,-4.3142,-4.316,-4.3068,-4.3012,-4.2994,-4.2456,-4.2074,-4.1782,-4.1111,-4.0676,-4.0385,-4.0196,-4.0096,-4.0096,-4.0096,-4.0246,-4.0427,-4.0427,-4.0556,-4.0737,-5.0474,-5.0365,-5.0293,-5.0293,-4.9528,-4.8891,-4.8891,-4.8203,-4.7717,-4.7717,-4.7717,-4.7717,-4.7717,-4.7717,-4.7717,-4.7717,-4.7717,-4.7717,-4.7717,-4.7717,-4.7717,-4.7717,-4.7717,-4.7717,-4.7717,-4.7717,-4.7717,-4.7717,-4.7717,-4.7717,-4.7717,-4.7717,-4.7717,-4.7717,-4.7717,-4.7717,-4.7717,-4.7717,-4.7717,-4.7717,-4.7717,-4.7717,-4.7717,-4.7717,-4.7717,-4.7717,-4.7717,-4.7717,-4.7717,-4.7717,-4.7717,-4.7717,-4.7717,-4.7717,-4.7717,-4.7717,-4.7717,-4.7717,-4.7717,-4.7717,-4.7482,-4.6558,-4.5816,-4.5055,-4.4132,-4.339,-4.2901,-4.2901,-4.2901,-4.2901,-4.2901,-4.2901,-4.2901,-4.2901,-4.2901,-4.2901,-4.2901,0.0,-4.2901,-4.2901,-4.2901,-4.2901,-4.2901,-4.2901,-4.2901,-4.2901,-4.2901,-4.2901,-4.2901,-4.2901,-4.2901,-4.2901,-4.3012,-4.3067,-4.3067,-4.3067,-4.3067,-4.3067,-4.2938,-4.2901,-4.2882,-4.2418,-4.2157,-4.2053,-4.118,-4.0802,-4.0778,-4.0377,-4.0254,-4.0328,-4.0328,-4.0538,-4.0919,-4.0919,-4.1162,-4.1503,-5.2118,-5.1574,-5.1104,-5.1104,-4.989,-4.8891,-4.8891,-4.8203,-4.7717,-4.7717,-4.7717,-4.7717,-4.7717,-4.7717,-4.7717,-4.7717,-4.7717,-4.7717,-4.7717,-4.7717,-4.7717,-4.7717,-4.7717,-4.7717,-4.7717,-4.7717,-4.7717,-4.7717,-4.7717,-4.7717,-4.7717,-4.7717,-4.7717,-4.7717,-4.7717,-4.7717,-4.7717,-4.7717,-4.7717,-4.7717,-4.7717,-4.7717,-4.7717,-4.7717,-4.7717,-4.7717,-4.7717,-4.7717,-4.7717,-4.7717,-4.7717,-4.7717,-4.7717,-4.7717,-4.7717,-4.7717,-4.7717,-4.7717,-4.7717,-4.7717,-4.7355,-4.5852,-4.5399,-4.491,-4.3407,-4.2992,-4.2901,-4.2901,-4.2901,-4.2901,-4.2901,-4.2901,-4.2901,-4.2901,-4.2901,-4.2901,-4.2901,0.0,-4.2901,-4.2901,-4.2901,-4.2901,-4.2901,-4.2901,-4.2901,-4.2901,-4.2901,-4.2901,-4.2901,-4.2901,-4.2901,-4.2901,-4.2919,-4.2938,-4.2938,-4.2938,-4.2938,-4.2938,-4.2919,-4.2901,-4.2882,-4.2418,-4.1973,-4.1569,-4.1042,-4.0802,-4.0802,-4.0707,-4.0926,-4.1281,-4.1281,-4.1326,-4.1393,-4.1393,-4.1437,-4.1503,-5.2498,-5.219,-5.1937,-5.1937,-5.0615,-4.9546,-4.9546,-4.8514,-4.7717,-4.7717,-4.7717,-4.7717,-4.7717,-4.7717,-4.7717,-4.7717,-4.7717,-4.7717,-4.7717,-4.7717,-4.7717,-4.7717,-4.7717,-4.7717,-4.7717,-4.7717,-4.7717,-4.7717,-4.7717,-4.7717,-4.7717,-4.7717,-4.7717,-4.7717,-4.7717,-4.7717,-4.7717,-4.7717,-4.7717,-4.7717,-4.7717,-4.7717,-4.7717,-4.7717,-4.7717,-4.7717,-4.7717,-4.7717,-4.7717,-4.7717,-4.7717,-4.7717,-4.7717,-4.7717,-4.7717,-4.7717,-4.7717,-4.7717,-4.7717,-4.7391,-4.6776,-4.5599,-4.4965,-4.4349,-4.3173,-4.2901,-4.2901,-4.2901,-4.2901,-4.2901,-4.2901,-4.2901,-4.2901,-4.2901,-4.2901,-4.2901,-4.2901,-4.2901,-4.2901,-4.2901,-4.2901,-4.2901,-4.2901,-4.2901,-4.2901,-4.2901,-4.2901,-4.2901,-4.2901,-4.2901,-4.2901,-4.2901,-4.2901,-4.2901,-4.2901,-4.2975,-4.3012,-4.3012,-4.3012,-4.3012,-4.2975,-4.2456,-4.2074,-4.1846,-4.1388,-4.1185,-4.1185,-4.1185,-4.1281,-4.1503,-4.1503,-4.1656,-4.1867,-4.1867,-4.2035,-4.2241,-5.2498,-5.2498,-5.2444,-5.2245,-5.1031,-5.0057,-4.9836,-4.8605,-4.7717,-4.7717,-4.7717,-4.7717,-4.7717,-4.7717,-4.7717,-4.7717,-4.7717,-4.7717,-4.7717,-4.7717,-4.7717,-4.7717,-4.7717,-4.7717,-4.7717,-4.7717,-4.7717,-4.7717,-4.7717,-4.7717,-4.7717,-4.7717,-4.7717,-4.7717,-4.7717,-4.7717,-4.7717,-4.7717,-4.7717,-4.7717,-4.7717,-4.7717,-4.7717,-4.7717,-4.7717,-4.7717,-4.7717,-4.7717,-4.7717,-4.7717,-4.7717,-4.7717,-4.7717,-4.7717,-4.7717,-4.7717,-4.7717,-4.7717,-4.7717,-4.712,-4.6305,-4.549,-4.4693,-4.3878,-4.3063,-4.2901,-4.2901,-4.2901,-4.2901,-4.2901,-4.2901,-4.2901,-4.2901,-4.2901,0.0,-4.2901,-4.2901,-4.2901,-4.2901,-4.2901,-4.2901,-4.2901,-4.2901,-4.2901,-4.2901,-4.2901,-4.2901,-4.2901,-4.2901,-4.2938,-4.2957,-4.2975,-4.2957,-4.2938,-4.2938,-4.3068,-4.3123,-4.3104,-4.3104,-4.3086,-4.303,-4.2456,-4.2198,-4.2177,-4.17,-4.1547,-4.1656,-4.1656,-4.1739,-4.1846,-4.1846,-4.2035,-4.2358,-4.2358,-4.2595,-4.2901,-5.2498,-5.2498,-5.2263,-5.1502,-5.0651,-4.9836,-4.909,-4.8257,-4.7717,-4.7717,-4.7717,-4.7717,-4.7717,-4.7717,-4.7717,-4.7717,-4.7717,-4.7717,-4.7717,-4.7717,-4.7717,-4.7717,-4.7717,-4.7717,-4.7717,-4.7717,-4.7717,-4.7717,-4.7717,-4.7717,-4.7717,-4.7717,-4.7717,-4.7717,-4.7717,-4.7717,-4.7717,-4.7717,-4.7717,-4.7717,-4.7717,-4.7717,-4.7717,-4.7717,-4.7717,-4.7717,-4.7717,-4.7717,-4.7717,-4.7717,-4.7717,-4.7717,-4.7717,-4.7717,-4.7717,-4.7717,-4.7717,-4.7717,-4.7717,-4.712,-4.6305,-4.549,-4.4693,-4.3878,-4.3063,-4.2901,-4.2901,-4.2901,-4.2901,-4.2901,-4.2901,-4.2901,-4.2901,-4.2901,0.0,0.0,-4.2901,-4.2901,-4.2901,-4.2901,-4.2901,-4.2901,-4.2901,-4.2901,-4.2901,-4.2901,-4.2901,-4.2901,-4.2901,-4.303,-4.3105,-4.3178,-4.3123,-4.3086,-4.3086,-4.316,-4.316,-4.3104,-4.3104,-4.303,-4.29,-4.2418,-4.2198,-4.2177,-4.17,-4.176,-4.2157,-4.2157,-4.24,-4.2806,-4.2806,-4.2825,-4.2844,-4.2844,-4.2863,-4.2901,-5.2498,-5.21,-5.1647,-5.1339,-5.0216,-4.9257,-4.8945,-4.8203,-4.7717,-4.7717,-4.7717,-4.7717,-4.7717,-4.7717,-4.7717,-4.7717,-4.7717,-4.7717,-4.7717,-4.7717,-4.7717,-4.7717,-4.7717,-4.7717,-4.7717,-4.7717,-4.7717,-4.7717,-4.7717,-4.7717,-4.7717,-4.7717,-4.7717,-4.7717,-4.7717,-4.7717,-4.7717,-4.7717,-4.7717,-4.7717,-4.7717,-4.7717,-4.7717,-4.7717,-4.7717,-4.7717,-4.7717,-4.7717,-4.7717,-4.7717,-4.7717,-4.7717,-4.7717,-4.7717,-4.7717,-4.7717,-4.7355,-4.6975,-4.6975,-4.6377,-4.5562,-4.4747,-4.3951,-4.3262,-4.2973,-4.2901,-4.2901,-4.2901,-4.2901,-4.2901,-4.2901,-4.2901,-4.2901,-4.2901,0.0,-4.2901,-4.2901,-4.2901,-4.2901,-4.2901,-4.2901,-4.2901,-4.2901,-4.2975,-4.3012,-4.3012,-4.3068,-4.3087,-4.3087,-4.3086,-4.3068,-4.3013,-4.3068,-4.3104,-4.3104,-4.316,-4.316,-4.3104,-4.3104,-4.3068,-4.303,-4.2749,-4.2634,-4.2634,-4.2458,-4.2478,-4.2634,-4.2634,-4.2731,-4.2901,-4.2901,-4.2901,-4.2901,-4.2901,-4.2901,-4.2901,-5.2172,-5.1665,-5.114,-5.0633,-4.9637,-4.88,-4.8547,-4.804,-4.7717,-4.7717,-4.7717,-4.7717,-4.7717,-4.7717,-4.7717,-4.7717,-4.7717,-4.7717,-4.7717,-4.7717,-4.7717,-4.7717,-4.7717,-4.7717,-4.7717,-4.7717,-4.7717,-4.7717,-4.7717,-4.7717,-4.7717,-4.7717,-4.7717,-4.7717,-4.7717,-4.7717,-4.7717,-4.7717,-4.7717,-4.7717,-4.7717,-4.7717,-4.7717,-4.7717,-4.7717,-4.7717,-4.7717,-4.7717,-4.7717,-4.7717,-4.7717,-4.7717,-4.7717,-4.7536,-4.7319,-4.7319,-4.6757,-4.6069,-4.5816,-4.5345,-4.4784,-4.424,-4.3498,-4.2901,-4.2901,-4.2901,-4.2901,-4.2901,-4.2901,-4.2901,-4.2901,-4.2901,-4.2901,-4.2901,-4.2901,-4.2901,-4.2901,-4.2901,-4.2901,-4.2901,-4.2901,-4.2919,-4.2957,-4.3049,-4.3104,-4.3123,-4.3178,-4.3214,-4.3214,-4.3196,-4.3142,-4.305,-4.3178,-4.3233,-4.3196,-4.3196,-4.316,-4.3104,-4.3104,-4.3086,-4.303,-4.2938,-4.2901,-4.2901,-4.2901,-4.2901,-4.2901,-4.2901,-4.2901,-4.2901,-4.2901,-4.2901,-4.2901,-4.2901,-4.2901,-4.2901,-5.147,-5.1307,-5.0778,-4.9184,-4.8891,-4.8619,-4.7826,-4.7717,-4.7717,-4.7717,-4.7717,-4.7717,-4.7717,-4.7717,-4.7717,-4.7717,-4.7717,-4.7717,-4.7717,-4.7717,-4.7717,-4.7717,-4.7717,-4.7717,-4.7717,-4.7717,-4.7717,-4.7717,-4.7717,-4.7717,-4.7717,-4.7717,-4.7717,-4.7717,-4.7717,-4.7717,-4.7717,-4.7717,-4.7717,-4.7717,-4.7717,-4.7717,-4.7717,-4.7717,-4.7717,-4.7717,-4.7717,-4.7717,-4.7717,-4.7717,-4.7717,-4.7717,-4.7678,-4.7156,-4.6504,-4.6504,-4.5924,-4.511,-4.4313,-4.4095,-4.4077,-4.4077,-4.348,-4.2901,-4.2901,-4.2901,-4.2901,-4.2901,-4.2901,-4.2901,-4.2901,-4.2901,-4.2901,-4.2901,-4.2901,-4.2901,-4.2901,-4.2901,-4.2901,-4.2901,-4.2901,-4.2938,-4.3086,-4.3104,-4.3123,-4.3196,-4.3214,-4.3214,-4.3214,-4.3323,-4.3394,-4.3394,-4.3463,-4.3463,-4.3394,-4.3269,-4.316,-4.3104,-4.3104,-4.303,-4.2901,-4.2901,-4.2901,-4.2901,-4.2901,-4.2901,-4.2901,-4.2901,-4.2901,-4.2901,-4.2901,-4.2901,-4.2901,-4.2901,-4.2901,-4.2901,-5.1809,-5.1013,-5.0126,-4.9094,-4.842,-4.7968,-4.7732,-4.7717,-4.7717,-4.7717,-4.7717,-4.7717,-4.7717,-4.7717,-4.7717,-4.7717,-4.7717,-4.7717,-4.7717,-4.7717,-4.7717,-4.7717,-4.7717,-4.7717,-4.7717,-4.7717,-4.7717,-4.7717,-4.7717,-4.7717,-4.7717,-4.7717,-4.7717,-4.7717,-4.7717,-4.7717,-4.7717,-4.7717,-4.7717,-4.7717,-4.7717,-4.7717,-4.7717,-4.7717,-4.7717,-4.7717,-4.7717,-4.7717,-4.7717,-4.7717,-4.7717,-4.7609,-4.7047,-4.6305,-4.5653,-4.5653,-4.5091,-4.4403,-4.4168,-4.3679,-4.3263,-4.3263,-4.3082,-4.2901,-4.2901,-4.2901,-4.2901,-4.2901,-4.2901,-4.2901,-4.2901,-4.2901,-4.2901,-4.2901,-4.2901,-4.2901,-4.2901,-4.2901,-4.2901,-4.2901,-4.2975,-4.3067,-4.3086,-4.3233,-4.3323,-4.334,-4.334,-4.3305,-4.3214,-4.3233,-4.3251,-4.3251,-4.3286,-4.3286,-4.3251,-4.3323,-4.3287,-4.316,-4.316,-4.316,-4.3105,-4.3105,-4.3105,-4.3105,-4.305,-4.303,-4.303,-4.2938,-4.2901,-4.2901,-4.2901,-4.2901,-4.2901,-4.2901,-4.2901,-4.2901,-5.165,-5.0576,-4.9522,-4.8722,-4.8091,-4.7717,-4.7717,-4.7717,-4.7717,-4.7717,-4.7717,-4.7717,-4.7717,-4.7717,-4.7717,-4.7717,-4.7717,-4.7717,-4.7717,-4.7717,-4.7717,-4.7717,-4.7717,-4.7717,-4.7717,-4.7717,-4.7717,-4.7717,-4.7717,-4.7717,-4.7717,-4.7717,-4.7717,-4.7717,-4.7717,-4.7717,-4.7717,-4.7717,-4.7717,-4.7717,-4.7717,-4.7717,-4.7717,-4.7717,-4.7717,-4.7717,-4.7717,-4.7717,-4.7663,-4.7337,-4.7011,-4.6667,-4.6178,-4.5472,-4.482,-4.482,-4.4258,-4.3625,-4.3625,-4.3281,-4.2901,-4.2901,-4.2901,-4.2901,-4.2901,-4.2901,-4.2901,-4.2901,-4.2901,-4.2901,-4.2901,-4.2901,-4.2901,-4.2901,-4.2901,-4.2919,-4.2975,-4.2975,-4.2994,-4.3013,-4.3087,-4.316,-4.3215,-4.3323,-4.3412,-4.3446,-4.3446,-4.3394,-4.3269,-4.3304,-4.3304,-4.3269,-4.3304,-4.3304,-4.3304,-4.3393,-4.3358,-4.3214,-4.3214,-4.3214,-4.3214,-4.3214,-4.3196,-4.316,-4.3123,-4.3067,-4.3012,-4.2938,-4.2901,-4.2901,-4.2901,-4.2901,-4.2901,-4.2901,-4.2901,-4.2901,-5.11,-5.0055,-4.9085,-4.8242,-4.7891,-4.772,-4.7699,-4.7717,-4.7717,-4.7717,-4.7717,-4.7717,-4.7717,-4.7717,-4.7717,-4.7717,-4.7717,-4.7717,-4.7717,-4.7717,-4.7717,-4.7717,-4.7717,-4.7717,-4.7717,-4.7717,-4.7717,-4.7717,-4.7717,-4.7717,-4.7717,-4.7717,-4.7717,-4.7717,-4.7717,-4.7717,-4.7717,-4.7717,-4.7717,-4.7717,-4.7717,-4.7717,-4.7717,-4.7717,-4.7717,-4.7678,-4.7606,-4.7588,-4.7482,-4.6667,-4.5852,-4.5182,-4.5182,-4.4639,-4.3987,-4.3987,-4.3462,-4.2901,-4.2901,-4.2901,-4.2901,-4.2901,-4.2901,-4.2901,-4.2901,-4.2901,-4.2901,-4.2901,-4.2901,-4.2901,-4.2901,-4.2901,-4.2901,-4.2901,-4.2901,-4.2957,-4.3086,-4.3104,-4.3123,-4.3196,-4.3214,-4.3269,-4.3394,-4.3412,-4.3429,-4.3497,-4.3497,-4.3463,-4.3412,-4.3464,-4.3481,-4.3412,-4.3463,-4.3515,-4.3515,-4.3515,-4.341,-4.3233,-4.3233,-4.3233,-4.3233,-4.3233,-4.3178,-4.3123,-4.3123,-4.3049,-4.2938,-4.2938,-4.2938,-4.2938,-4.2938,-4.2938,-4.2938,-4.2938,-4.2938,-4.2938,-5.0671,-5.001,-4.9358,-4.83,-4.8055,-4.7933,-4.772,-4.7717,-4.7717,-4.7717,-4.7717,-4.7717,-4.7717,-4.7717,-4.7717,-4.7717,-4.7717,-4.7717,-4.7717,-4.7717,-4.7717,-4.7717,-4.7717,-4.7717,-4.7717,-4.7717,-4.7717,-4.7717,-4.7717,-4.7717,-4.7717,-4.7717,-4.7717,-4.7717,-4.7717,-4.7717,-4.7717,-4.7717,-4.7717,-4.7717,-4.7717,-4.7717,-4.7717,-4.7717,-4.7717,-4.7606,-4.6993,-4.6757,-4.6649,-4.5834,-4.5037,-4.4349,-4.4349,-4.3806,-4.3173,-4.3173,-4.3046,-4.2901,-4.2901,-4.2901,-4.2901,-4.2901,-4.2901,-4.2901,-4.2901,-4.2901,-4.2901,-4.2901,-4.2901,-4.2901,-4.2901,-4.2901,-4.2901,-4.2901,-4.2994,-4.3067,-4.3086,-4.3142,-4.3178,-4.3196,-4.3286,-4.3358,-4.3394,-4.3446,-4.3463,-4.3411,-4.3411,-4.3429,-4.3394,-4.3411,-4.3446,-4.348,-4.3497,-4.3515,-4.3515,-4.3515,-4.348,-4.3427,-4.3427,-4.3427,-4.3427,-4.3427,-4.3393,-4.3341,-4.3341,-4.3269,-4.3123,-4.3123,-4.3123,-4.3123,-4.3123,-4.3123,-4.3123,-4.3123,-4.3123,-4.3123,-5.0609,-4.9887,-4.9231,-4.8642,-4.8289,-4.8055,-4.7911,-4.7785,-4.7717,-4.7717,-4.7717,-4.7717,-4.7717,-4.7717,-4.7717,-4.7717,-4.7717,-4.7717,-4.7717,-4.7717,-4.7717,-4.7717,-4.7717,-4.7717,-4.7717,-4.7717,-4.7717,-4.7717,-4.7717,-4.7717,-4.7717,-4.7717,-4.7717,-4.7717,-4.7717,-4.7717,-4.7717,-4.7717,-4.7717,-4.7717,-4.7717,-4.7717,-4.7663,-4.7283,-4.7138,-4.7029,-4.6214,-4.5689,-4.5291,-4.4874,-4.4186,-4.3516,-4.3516,-4.3245,-4.2901,-4.2901,-4.2901,-4.2901,-4.2901,-4.2901,-4.2901,-4.2901,-4.2901,-4.2901,-4.2901,-4.2901,-4.2901,-4.2901,-4.2901,-4.2901,-4.2901,-4.2938,-4.2994,-4.2994,-4.3068,-4.3178,-4.3233,-4.3269,-4.3304,-4.3339,-4.341,-4.3446,-4.3446,-4.348,-4.348,-4.3464,-4.3446,-4.3446,-4.3446,-4.3446,-4.3463,-4.3515,-4.3515,-4.3515,-4.3515,-4.3515,-4.3515,-4.3515,-4.3515,-4.3515,-4.3515,-4.3515,-4.3463,-4.3394,-4.3394,-4.3323,-4.3214,-4.3214,-4.3214,-4.3214,-4.3214,-4.3214,-4.3214,-4.3214,-4.3214,-4.3214,-5.0504,-4.9728,-4.9077,-4.9008,-4.8587,-4.8212,-4.8134,-4.7911,-4.7762,-4.7717,-4.7717,-4.7717,-4.7717,-4.7717,-4.7717,-4.7717,-4.7717,-4.7717,-4.7717,-4.7717,-4.7717,-4.7717,-4.7717,-4.7717,-4.7717,-4.7717,-4.7717,-4.7717,-4.7717,-4.7717,-4.7717,-4.7717,-4.7717,-4.7717,-4.7717,-4.7717,-4.7717,-4.7717,-4.7717,-4.7717,-4.7717,-4.7606,-4.7428,-4.6757,-4.6413,-4.6196,-4.5381,-4.4584,-4.3878,-4.3878,-4.3444,-4.2901,-4.2901,-4.2901,-4.2901,-4.2901,-4.2901,-4.2901,-4.2901,-4.2901,-4.2901,-4.2901,-4.2901,-4.2901,-4.2901,-4.2901,-4.2901,-4.2901,-4.2919,-4.2938,-4.2938,-4.3031,-4.3123,-4.3123,-4.3196,-4.3269,-4.3376,-4.3412,-4.3446,-4.3497,-4.3515,-4.3515,-4.3515,-4.3515,-4.3515,-4.3515,-4.3515,-4.3515,-4.3515,-4.3515,-4.3515,-4.3515,-4.3515,-4.3515,-4.3515,-4.3515,-4.3515,-4.3515,-4.3515,-4.3515,-4.3515,-4.3515,-4.3463,-4.3394,-4.3394,-4.3358,-4.3233,-4.3251,-4.325,-4.325,-4.325,-4.325,-4.325,-4.325,-4.3232,-4.3233,-4.979,-4.9534,-4.9345,-4.9061,-4.894,-4.8695,-4.8174,-4.8075,-4.7953,-4.772,-4.7717,-4.7717,-4.7717,-4.7717,-4.7717,-4.7717,-4.7717,-4.7717,-4.7717,-4.7717,-4.7717,-4.7717,-4.7717,-4.7717,-4.7717,-4.7717,-4.7717,-4.7717,-4.7717,-4.7717,-4.7717,-4.7717,-4.7717,-4.7717,-4.7717,-4.7717,-4.7717,-4.7717,-4.7717,-4.7717,-4.7717,-4.7283,-4.6649,-4.654,-4.6069,-4.5363,-4.4548,-4.3733,-4.3064,-4.3064,-4.2992,-4.2901,-4.2901,-4.2901,-4.2901,-4.2901,-4.2901,-4.2901,-4.2901,-4.2901,-4.2901,-4.2901,-4.2901,-4.2901,-4.2901,-4.2901,-4.2901,-4.2901,-4.2994,-4.3068,-4.3068,-4.3142,-4.3196,-4.3196,-4.3287,-4.3394,-4.3394,-4.3464,-4.3497,-4.3515,-4.3515,-4.3515,-4.3515,-4.3515,-4.3515,-4.3515,-4.3515,-4.3515,-4.3515,-4.3515,-4.3515,-4.3515,-4.3515,-4.3515,-4.3515,-4.3515,-4.3515,-4.3515,-4.3515,-4.3515,-4.3515,-4.3515,-4.3463,-4.3412,-4.3463,-4.3428,-4.3394,-4.3428,-4.3463,-4.3463,-4.3463,-4.3463,-4.3463,-4.3463,-4.341,-4.3358,-4.9778,-4.9721,-4.9673,-4.9533,-4.9358,-4.9083,-4.8676,-4.844,-4.8194,-4.7911,-4.7868,-4.7866,-4.7819,-4.7738,-4.7717,-4.7717,-4.7717,-4.7717,-4.7717,-4.7717,-4.7717,-4.7717,-4.7717,-4.7717,-4.7717,-4.7717,-4.7738,-4.7819,-4.7738,-4.7717,-4.7717,-4.7717,-4.7717,-4.7717,-4.7717,-4.7717,-4.7717,-4.7717,-4.7446,-4.7029,-4.7029,-4.6558,-4.578,-4.5327,-4.4928,-4.4512,-4.3715,-4.319,-4.2901,-4.2901,-4.2901,-4.2901,-4.2901,-4.2901,-4.2901,-4.2901,-4.2901,-4.2901,-4.2901,-4.2901,-4.2901,-4.2901,-4.2901,-4.2901,-4.2901,-4.2957,-4.3012,-4.3012,-4.3049,-4.3123,-4.316,-4.3251,-4.3323,-4.3323,-4.3375,-4.3464,-4.3464,-4.348,-4.3515,-4.3515,-4.3515,-4.3515,-4.3515,-4.3515,-4.3515,-4.3515,-4.3515,-4.3515,-4.3515,-4.3515,-4.3515,-4.3515,-4.3515,-4.3515,-4.3515,-4.3515,-4.3515,-4.3515,-4.3515,-4.3515,-4.3515,-4.3515,-4.348,-4.3464,-4.3497,-4.348,-4.3464,-4.3497,-4.3515,-4.3515,-4.3515,-4.3515,-4.3515,-4.3515,-4.3464,-4.3394]},{"header":{"parameterUnit":"m.s-1","parameterCategory":1,"la1":30.6,"la2":28.766,"lo1":-90.7593,"lo2":-88.6598,"dy":0.0162,"dx":0.0183,"nx":116,"ny":114,"refTime":"2023-06-06T06:00:00:Z","depth":0,"parameterNumber":3,"parameterNumberName":"V-component_of_WINDS"},"data":[0.0,0.0,0.0,0.0,0.0,0.0,0.0,0.0,0.0,0.0,0.0,0.0,0.0,0.0,0.0,0.0,0.0,0.0,0.0,0.0,0.0,0.0,0.0,0.0,0.0,0.0,0.0,0.0,0.0,0.0,0.0,0.0,0.0,0.0,0.0,0.0,0.0,0.0,0.0,0.0,0.0,0.0,0.0,0.0,0.0,0.0,0.0,0.0,0.0,0.0,0.0,0.0,0.0,0.0,0.0,0.0,0.0,0.0,0.0,0.0,0.0,0.0,0.0,0.0,0.0,0.0,0.0,0.0,0.0,0.0,0.0,0.0,0.0,0.0,0.0,0.0,0.0,0.0,0.0,0.0,0.0,0.0,0.0,0.0,0.0,0.0,0.0,0.0,0.0,0.0,0.0,0.0,0.0,0.0,0.0,0.0,0.0,0.0,0.0,0.0,0.0,0.0,0.0,0.0,0.0,0.0,0.0,0.0,0.0,0.0,0.0,0.0,0.0,0.0,0.0,0.0,0.0,0.0,0.0,0.0,0.0,0.0,0.0,0.0,0.0,0.0,0.0,0.0,0.0,0.0,0.0,0.0,0.0,0.0,0.0,0.0,0.0,0.0,0.0,0.0,0.0,0.0,0.0,0.0,0.0,0.0,0.0,0.0,0.0,0.0,0.0,0.0,0.0,0.0,0.0,0.0,0.0,0.0,0.0,0.0,0.0,0.0,0.0,0.0,0.0,0.0,0.0,0.0,0.0,0.0,0.0,0.0,0.0,0.0,0.0,0.0,0.0,0.0,0.0,0.0,0.0,0.0,0.0,0.0,0.0,0.0,0.0,0.0,0.0,0.0,0.0,0.0,0.0,0.0,0.0,0.0,0.0,0.0,0.0,0.0,0.0,0.0,0.0,0.0,0.0,0.0,0.0,0.0,0.0,0.0,0.0,0.0,0.0,0.0,0.0,0.0,0.0,0.0,0.0,0.0,0.0,0.0,0.0,0.0,0.0,0.0,0.0,0.0,0.0,0.0,0.0,0.0,0.0,0.0,0.0,0.0,0.0,0.0,0.0,0.0,0.0,0.0,0.0,0.0,0.0,0.0,0.0,0.0,0.0,0.0,0.0,0.0,0.0,0.0,0.0,0.0,0.0,0.0,0.0,0.0,0.0,0.0,0.0,0.0,0.0,0.0,0.0,0.0,0.0,0.0,0.0,0.0,0.0,0.0,0.0,0.0,0.0,0.0,0.0,0.0,0.0,0.0,0.0,0.0,0.0,0.0,0.0,0.0,0.0,0.0,0.0,0.0,0.0,0.0,0.0,0.0,0.0,0.0,0.0,0.0,0.0,0.0,0.0,0.0,0.0,0.0,0.0,0.0,0.0,0.0,0.0,0.0,0.0,0.0,0.0,0.0,0.0,0.0,0.0,0.0,0.0,0.0,0.0,0.0,0.0,0.0,0.0,0.0,0.0,0.0,0.0,0.0,0.0,0.0,0.0,0.0,0.0,0.0,0.0,0.0,0.0,0.0,0.0,0.0,0.0,0.0,0.0,0.0,0.0,0.0,0.0,0.0,0.0,0.0,0.0,0.0,0.0,0.0,0.0,0.0,0.0,0.0,0.0,0.0,0.0,0.0,0.0,0.0,0.0,0.0,0.0,0.0,0.0,0.0,0.0,0.0,0.0,0.0,0.0,0.0,0.0,0.0,0.0,0.0,0.0,0.0,0.0,0.0,0.0,0.0,0.0,0.0,0.0,0.0,0.0,0.0,0.0,0.0,0.0,0.0,0.0,0.0,0.0,0.0,0.0,0.0,0.0,0.0,0.0,0.0,0.0,0.0,0.0,0.0,0.0,0.0,0.0,0.0,0.0,0.0,0.0,0.0,0.0,0.0,0.0,0.0,0.0,0.0,0.0,0.0,0.0,0.0,0.0,0.0,0.0,0.0,0.0,0.0,0.0,0.0,0.0,0.0,0.0,0.0,0.0,0.0,0.0,0.0,0.0,0.0,0.0,0.0,0.0,0.0,0.0,0.0,0.0,0.0,0.0,0.0,0.0,0.0,0.0,0.0,0.0,0.0,0.0,0.0,0.0,0.0,0.0,0.0,0.0,0.0,0.0,0.0,0.0,0.0,0.0,0.0,0.0,0.0,0.0,0.0,0.0,0.0,0.0,0.0,0.0,0.0,0.0,0.0,0.0,0.0,0.0,0.0,0.0,0.0,0.0,0.0,0.0,0.0,0.0,0.0,0.0,0.0,0.0,0.0,0.0,0.0,0.0,0.0,0.0,0.0,0.0,0.0,0.0,0.0,0.0,0.0,0.0,0.0,0.0,0.0,0.0,0.0,0.0,0.0,0.0,0.0,0.0,0.0,0.0,0.0,0.0,0.0,0.0,0.0,0.0,0.0,0.0,0.0,0.0,0.0,0.0,0.0,0.0,0.0,0.0,0.0,0.0,0.0,0.0,0.0,0.0,0.0,0.0,0.0,0.0,0.0,0.0,0.0,0.0,0.0,0.0,0.0,0.0,0.0,0.0,0.0,0.0,0.0,0.0,0.0,0.0,0.0,0.0,0.0,0.0,0.0,0.0,0.0,0.0,0.0,0.0,0.0,0.0,0.0,0.0,0.0,0.0,0.0,0.0,0.0,0.0,0.0,0.0,0.0,0.0,0.0,0.0,0.0,0.0,0.0,0.0,0.0,0.0,0.0,0.0,0.0,0.0,0.0,0.0,0.0,0.0,0.0,0.0,0.0,0.0,0.0,0.0,0.0,0.0,0.0,0.0,0.0,0.0,0.0,0.0,0.0,0.0,0.0,0.0,0.0,0.0,0.0,0.0,0.0,0.0,0.0,0.0,0.0,0.0,0.0,0.0,0.0,0.0,0.0,0.0,0.0,0.0,0.0,0.0,0.0,0.0,0.0,0.0,0.0,0.0,0.0,0.0,0.0,0.0,0.0,0.0,0.0,0.0,0.0,0.0,0.0,0.0,0.0,0.0,0.0,0.0,0.0,0.0,0.0,0.0,0.0,0.0,0.0,0.0,0.0,0.0,0.0,0.0,0.0,0.0,0.0,0.0,0.0,0.0,0.0,0.0,0.0,0.0,0.0,0.0,0.0,0.0,0.0,0.0,0.0,0.0,0.0,0.0,0.0,0.0,0.0,0.0,0.0,0.0,0.0,0.0,0.0,0.0,0.0,0.0,0.0,0.0,0.0,0.0,0.0,0.0,0.0,0.0,0.0,0.0,0.0,0.0,0.0,0.0,0.0,0.0,0.0,0.0,0.0,0.0,0.0,0.0,0.0,0.0,0.0,0.0,0.0,0.0,0.0,0.0,0.0,0.0,0.0,0.0,0.0,0.0,0.0,0.0,0.0,0.0,0.0,0.0,0.0,0.0,0.0,0.0,0.0,0.0,0.0,0.0,0.0,0.0,0.0,0.0,0.0,0.0,0.0,0.0,0.0,0.0,0.0,0.0,0.0,0.0,0.0,0.0,0.0,0.0,0.0,0.0,0.0,0.0,0.0,0.0,0.0,0.0,0.0,0.0,0.0,0.0,0.0,0.0,0.0,0.0,0.0,0.0,0.0,0.0,0.0,0.0,0.0,0.0,0.0,0.0,0.0,0.0,0.0,0.0,0.0,0.0,0.0,0.0,0.0,0.0,0.0,0.0,0.0,0.0,0.0,0.0,0.0,0.0,0.0,0.0,0.0,0.0,0.0,0.0,0.0,0.0,0.0,0.0,0.0,0.0,0.0,0.0,0.0,0.0,0.0,0.0,0.0,0.0,0.0,0.0,0.0,0.0,0.0,0.0,0.0,0.0,0.0,0.0,0.0,0.0,0.0,0.0,0.0,0.0,0.0,0.0,0.0,0.0,0.0,0.0,0.0,0.0,0.0,0.0,0.0,0.0,0.0,0.0,0.0,0.0,0.0,0.0,0.0,0.0,0.0,0.0,0.0,0.0,0.0,0.0,0.0,0.0,0.0,0.0,0.0,0.0,0.0,0.0,0.0,0.0,0.0,0.0,0.0,0.0,0.0,0.0,0.0,0.0,0.0,0.0,0.0,0.0,0.0,0.0,0.0,0.0,0.0,0.0,0.0,0.0,0.0,0.0,0.0,0.0,0.0,0.0,0.0,0.0,0.0,0.0,0.0,0.0,0.0,0.0,0.0,0.0,0.0,0.0,0.0,0.0,0.0,0.0,0.0,0.0,0.0,0.0,0.0,0.0,0.0,0.0,0.0,0.0,0.0,0.0,0.0,0.0,0.0,0.0,0.0,0.0,0.0,0.0,0.0,0.0,0.0,0.0,0.0,0.0,0.0,0.0,0.0,0.0,0.0,0.0,0.0,0.0,0.0,0.0,0.0,0.0,0.0,0.0,0.0,0.0,0.0,0.0,0.0,0.0,0.0,0.0,0.0,0.0,0.0,0.0,0.0,0.0,0.0,0.0,0.0,0.0,0.0,0.0,0.0,0.0,0.0,0.0,0.0,0.0,0.0,0.0,0.0,0.0,0.0,0.0,0.0,0.0,0.0,0.0,0.0,0.0,0.0,0.0,0.0,0.0,0.0,0.0,0.0,0.0,0.0,0.0,0.0,0.0,0.0,0.0,0.0,0.0,0.0,0.0,0.0,0.0,0.0,0.0,0.0,0.0,0.0,0.0,0.0,0.0,0.0,0.0,0.0,0.0,0.0,0.0,0.0,0.0,0.0,0.0,0.0,0.0,0.0,0.0,0.0,0.0,0.0,0.0,0.0,0.0,0.0,0.0,0.0,0.0,0.0,0.0,0.0,0.0,0.0,0.0,0.0,0.0,0.0,0.0,0.0,0.0,0.0,0.0,0.0,0.0,0.0,0.0,0.0,0.0,0.0,0.0,0.0,0.0,0.0,0.0,0.0,0.0,0.0,0.0,0.0,0.0,0.0,0.0,0.0,0.0,0.0,0.0,0.0,0.0,0.0,0.0,0.0,0.0,0.0,0.0,0.0,0.0,0.0,0.0,0.0,0.0,0.0,0.0,0.0,0.0,0.0,0.0,0.0,0.0,0.0,0.0,0.0,0.0,0.0,0.0,0.0,0.0,0.0,0.0,0.0,0.0,0.0,0.0,0.0,0.0,0.0,0.0,0.0,0.0,0.0,0.0,0.0,0.0,0.0,0.0,0.0,0.0,0.0,0.0,0.0,0.0,0.0,0.0,0.0,0.0,0.0,0.0,0.0,0.0,0.0,0.0,0.0,0.0,0.0,0.0,0.0,0.0,0.0,0.0,0.0,0.0,0.0,0.0,0.0,0.0,0.0,0.0,0.0,0.0,0.0,0.0,0.0,0.0,0.0,0.0,0.0,0.0,0.0,0.0,0.0,0.0,0.0,0.0,0.0,0.0,0.0,0.0,0.0,0.0,0.0,0.0,0.0,0.0,0.0,0.0,0.0,0.0,0.0,0.0,0.0,0.0,0.0,0.0,0.0,0.0,0.0,0.0,0.0,0.0,0.0,0.0,0.0,0.0,0.0,0.0,0.0,0.0,0.0,0.0,0.0,0.0,0.0,0.0,0.0,0.0,0.0,0.0,0.0,0.0,0.0,0.0,0.0,0.0,0.0,0.0,0.0,0.0,0.0,0.0,0.0,0.0,0.0,0.0,0.0,0.0,0.0,0.0,0.0,0.0,0.0,0.0,0.0,0.0,0.0,0.0,0.0,0.0,0.0,0.0,0.0,0.0,0.0,0.0,0.0,0.0,0.0,0.0,0.0,0.0,0.0,0.0,0.0,0.0,0.0,0.0,0.0,0.0,0.0,0.0,0.0,0.0,0.0,0.0,0.0,0.0,0.0,0.0,0.0,0.0,0.0,0.0,0.0,0.0,0.0,0.0,0.0,0.0,0.0,0.0,0.0,0.0,0.0,0.0,0.0,0.0,0.0,0.0,0.0,0.0,0.0,0.0,0.0,0.0,0.0,0.0,0.0,0.0,0.0,0.0,0.0,0.0,0.0,0.0,0.0,0.0,0.0,0.0,0.0,0.0,0.0,0.0,0.0,0.0,0.0,0.0,0.0,0.0,0.0,0.0,0.0,0.0,0.0,0.0,0.0,0.0,0.0,0.0,0.0,0.0,0.0,0.0,0.0,0.0,0.0,-2.6954,0.0,0.0,0.0,0.0,0.0,0.0,0.0,0.0,0.0,0.0,0.0,0.0,0.0,0.0,0.0,0.0,0.0,0.0,0.0,0.0,0.0,0.0,0.0,0.0,0.0,0.0,0.0,0.0,0.0,0.0,0.0,0.0,0.0,0.0,0.0,0.0,0.0,0.0,0.0,-2.0605,-2.0605,-2.0605,-2.0605,-2.0605,-2.0605,0.0,0.0,0.0,0.0,0.0,0.0,0.0,0.0,0.0,0.0,0.0,0.0,0.0,0.0,0.0,0.0,0.0,0.0,0.0,0.0,0.0,0.0,0.0,0.0,0.0,0.0,0.0,0.0,0.0,0.0,0.0,0.0,0.0,0.0,0.0,0.0,0.0,0.0,0.0,0.0,0.0,0.0,0.0,0.0,0.0,0.0,0.0,0.0,0.0,0.0,0.0,0.0,0.0,0.0,0.0,0.0,0.0,0.0,0.0,0.0,0.0,0.0,0.0,0.0,0.0,0.0,0.0,0.0,0.0,0.0,0.0,-2.751,0.0,0.0,0.0,0.0,0.0,0.0,0.0,0.0,0.0,0.0,0.0,0.0,0.0,0.0,0.0,0.0,0.0,0.0,0.0,0.0,0.0,0.0,0.0,0.0,-2.0683,-2.0654,-2.0644,0.0,0.0,0.0,0.0,0.0,0.0,0.0,0.0,0.0,0.0,0.0,-2.0605,-2.0605,-2.0605,-2.075,-2.0828,-2.0828,-2.0828,0.0,0.0,0.0,0.0,0.0,0.0,0.0,0.0,0.0,0.0,0.0,0.0,0.0,0.0,0.0,0.0,0.0,0.0,0.0,0.0,0.0,0.0,0.0,0.0,0.0,0.0,0.0,0.0,0.0,0.0,0.0,0.0,0.0,0.0,0.0,0.0,0.0,0.0,0.0,0.0,0.0,0.0,0.0,0.0,0.0,0.0,0.0,0.0,0.0,0.0,0.0,0.0,0.0,0.0,0.0,0.0,0.0,0.0,0.0,0.0,0.0,0.0,0.0,-2.7284,-2.7655,-2.7933,-2.8111,-2.8219,-2.8259,-2.8431,-2.827,-2.7858,-2.833,0.0,0.0,0.0,0.0,0.0,0.0,0.0,0.0,0.0,0.0,0.0,0.0,0.0,0.0,0.0,0.0,0.0,0.0,0.0,0.0,0.0,-2.1128,-2.1051,-2.0867,-2.0867,-2.078,0.0,0.0,0.0,0.0,0.0,0.0,0.0,-2.0605,-2.0605,-2.0605,-2.0605,-2.0605,-2.0605,-2.1308,-2.1652,-2.1652,-2.1783,-2.1973,-2.2258,0.0,0.0,0.0,0.0,0.0,0.0,0.0,0.0,0.0,0.0,0.0,0.0,0.0,0.0,0.0,0.0,0.0,0.0,0.0,0.0,0.0,0.0,0.0,0.0,0.0,0.0,0.0,0.0,0.0,0.0,0.0,0.0,0.0,0.0,0.0,0.0,0.0,0.0,0.0,0.0,0.0,-2.4043,-2.4043,0.0,0.0,0.0,0.0,0.0,0.0,0.0,0.0,0.0,0.0,0.0,0.0,0.0,-2.6409,-2.6409,-2.6875,-2.7128,-2.7128,-2.7377,-2.7655,-2.7933,-2.8111,-2.8299,-2.8471,-2.8471,0.0,-2.8414,-2.8474,0.0,0.0,0.0,0.0,0.0,0.0,0.0,0.0,0.0,0.0,0.0,0.0,0.0,0.0,0.0,0.0,0.0,0.0,0.0,0.0,0.0,-2.1002,-2.0848,-2.0731,-2.0731,-2.0693,-2.0605,0.0,0.0,0.0,0.0,0.0,0.0,-2.0605,-2.0605,-2.0605,-2.0605,-2.0605,-2.0605,-2.0982,-2.1357,-2.1832,-2.2526,-2.2898,-2.3047,-2.3562,0.0,0.0,0.0,0.0,0.0,0.0,0.0,0.0,0.0,0.0,0.0,0.0,0.0,0.0,0.0,0.0,0.0,0.0,0.0,0.0,0.0,0.0,0.0,0.0,0.0,0.0,0.0,0.0,0.0,0.0,0.0,0.0,0.0,0.0,0.0,0.0,0.0,0.0,0.0,-2.397,-2.42,-2.42,-2.443,-2.4602,0.0,0.0,0.0,0.0,0.0,0.0,0.0,0.0,0.0,-2.6129,-2.6634,-2.6898,-2.6898,-2.7116,-2.7313,-2.7598,-2.7667,-2.7909,-2.8243,-2.8311,-2.8431,-2.851,-2.851,-2.851,-2.851,-2.851,-2.851,-2.851,0.0,0.0,0.0,0.0,-2.851,-2.851,0.0,0.0,0.0,0.0,0.0,0.0,0.0,0.0,0.0,0.0,0.0,0.0,-2.1359,-2.1079,-2.0876,-2.0838,-2.076,-2.0731,-2.0693,-2.0644,0.0,0.0,0.0,0.0,0.0,0.0,-2.0605,-2.0605,-2.0605,-2.0605,-2.0605,-2.0828,-2.1346,-2.2199,-2.3305,-2.3818,-2.3854,-2.4289,-2.4921,-2.5594,0.0,0.0,0.0,0.0,0.0,0.0,0.0,0.0,0.0,0.0,0.0,0.0,0.0,0.0,0.0,0.0,0.0,0.0,0.0,0.0,0.0,0.0,0.0,0.0,0.0,0.0,0.0,0.0,0.0,0.0,0.0,0.0,0.0,0.0,0.0,0.0,0.0,-2.4499,-2.4579,-2.4579,-2.49,-2.5119,0.0,0.0,0.0,0.0,0.0,0.0,-2.6094,-2.645,-2.6657,-2.6657,-2.7024,-2.719,-2.719,-2.726,-2.7464,-2.78,-2.7921,-2.8111,-2.8431,-2.8471,-2.851,-2.851,-2.851,-2.851,-2.851,-2.851,-2.851,-2.851,-2.851,-2.851,-2.851,-2.851,-2.851,-2.851,0.0,0.0,0.0,0.0,0.0,0.0,0.0,0.0,0.0,0.0,0.0,-2.1769,-2.1769,-2.1769,-2.1655,-2.1464,-2.1282,-2.1089,-2.0906,-2.0693,-2.0605,-2.0605,-2.0605,0.0,0.0,0.0,-2.0605,-2.0605,-2.0605,-2.0605,-2.0605,-2.1385,-2.2237,-2.3184,-2.4192,-2.4636,-2.4707,-2.5873,-2.6383,-2.643,-2.643,0.0,0.0,0.0,0.0,0.0,0.0,0.0,0.0,0.0,0.0,0.0,0.0,0.0,0.0,0.0,0.0,0.0,0.0,0.0,0.0,0.0,0.0,0.0,0.0,0.0,0.0,0.0,0.0,0.0,0.0,0.0,0.0,0.0,0.0,0.0,0.0,0.0,0.0,-2.5635,-2.5658,0.0,0.0,0.0,0.0,-2.6432,-2.6467,-2.6645,-2.7087,-2.7133,-2.7144,-2.7144,-2.7179,-2.719,-2.719,-2.7412,-2.7482,-2.7522,-2.7966,-2.8179,-2.8219,-2.8431,-2.851,-2.851,-2.851,-2.851,-2.851,-2.851,-2.851,-2.851,-2.851,-2.851,-2.851,-2.851,-2.851,-2.851,0.0,0.0,0.0,0.0,0.0,0.0,0.0,0.0,0.0,-2.1807,-2.1693,-2.1617,-2.1617,-2.1512,-2.1397,-2.132,-2.1128,-2.0984,-2.0906,-2.0693,-2.0605,-2.0605,-2.0605,0.0,0.0,0.0,-2.0605,-2.0605,-2.0605,-2.0605,-2.0605,-2.1423,-2.2312,-2.3257,-2.4264,-2.5052,-2.5688,-2.6245,-2.6499,-2.6499,-2.6499,-2.6612,0.0,0.0,0.0,0.0,0.0,0.0,0.0,0.0,0.0,0.0,0.0,0.0,0.0,0.0,0.0,0.0,0.0,0.0,0.0,0.0,0.0,0.0,0.0,0.0,0.0,0.0,0.0,0.0,0.0,0.0,0.0,0.0,0.0,0.0,0.0,0.0,0.0,-2.567,-2.6003,0.0,-2.6198,-2.6496,-2.672,-2.6944,-2.6955,-2.7036,-2.7179,-2.719,-2.719,-2.719,-2.719,-2.726,-2.7412,-2.7441,-2.7644,-2.7966,-2.8139,-2.8259,-2.8391,-2.8471,-2.851,-2.851,-2.851,-2.851,-2.851,-2.851,-2.851,-2.851,-2.851,-2.851,-2.851,-2.851,-2.851,-2.851,0.0,0.0,0.0,0.0,0.0,0.0,0.0,0.0,0.0,-2.1807,-2.1693,-2.1617,-2.1617,-2.1464,-2.1397,-2.1397,-2.1205,-2.1051,-2.1022,-2.0819,-2.0654,-2.0605,-2.0605,0.0,0.0,-2.0605,-2.0537,-2.0342,-2.0342,-2.0273,-2.0175,-2.1203,-2.2179,-2.3134,-2.4303,-2.5382,-2.6305,-2.643,-2.6499,-2.6499,-2.6499,-2.6499,-2.6499,0.0,0.0,0.0,0.0,0.0,0.0,0.0,0.0,0.0,0.0,0.0,0.0,0.0,0.0,0.0,0.0,0.0,0.0,0.0,0.0,0.0,0.0,0.0,0.0,0.0,0.0,0.0,0.0,0.0,0.0,0.0,0.0,0.0,0.0,0.0,-2.5566,-2.5922,-2.6416,-2.6726,-2.6726,-2.7024,-2.719,-2.719,-2.719,-2.719,-2.719,-2.719,-2.719,-2.719,-2.7421,-2.7625,-2.7778,-2.8128,-2.8427,-2.8755,-2.8796,-2.8918,-2.9039,-2.9039,-2.9039,-2.9039,-2.9039,-2.9039,-2.9039,-2.9039,-2.8931,-2.8751,-2.8582,-2.851,-2.851,-2.851,-2.851,-2.851,0.0,0.0,0.0,0.0,0.0,0.0,0.0,-2.1807,-2.1807,-2.1807,-2.1807,-2.1807,-2.1807,-2.1807,-2.1807,-2.1807,-2.1617,-2.1397,-2.1205,-2.1022,-2.0819,-2.0605,0.0,0.0,-2.0586,-2.0586,-2.037,-1.9893,-1.9893,-1.9687,-1.937,-2.0772,-2.1952,-2.2986,-2.4366,-2.5545,-2.6461,-2.6461,-2.6474,-2.6499,-2.6499,-2.6499,-2.6499,0.0,0.0,0.0,0.0,0.0,0.0,0.0,0.0,0.0,0.0,0.0,0.0,0.0,0.0,0.0,0.0,0.0,0.0,0.0,0.0,0.0,0.0,0.0,0.0,0.0,0.0,0.0,0.0,0.0,0.0,0.0,0.0,0.0,-2.4866,-2.5807,-2.6501,-2.6524,-2.6932,-2.719,-2.719,-2.719,-2.719,-2.719,-2.7201,-2.7213,-2.7213,-2.7224,-2.7236,-2.7236,-2.7932,-2.83,-2.83,-2.93,-2.9784,-2.9784,-3.0013,-3.0086,-3.0086,-3.0086,-3.0086,-3.0086,-3.0086,-3.0086,-3.0086,-3.0086,-2.9785,-2.9268,-2.8739,-2.8522,-2.851,-2.851,-2.851,-2.851,0.0,0.0,0.0,0.0,0.0,0.0,0.0,-2.1807,-2.1807,-2.1807,-2.1807,-2.1807,-2.1807,-2.1807,-2.1807,-2.1807,-2.1617,-2.1397,-2.1205,-2.1167,-2.1022,-2.0819,0.0,0.0,-2.0098,-2.0088,-1.9883,-1.9453,-1.9453,-1.9641,-2.0053,-2.1154,-2.2155,-2.3073,-2.4152,-2.5094,-2.5871,-2.5871,-2.6109,-2.6499,-2.6499,-2.6499,-2.6499,0.0,0.0,0.0,0.0,0.0,0.0,0.0,0.0,0.0,0.0,0.0,0.0,0.0,0.0,0.0,0.0,0.0,0.0,0.0,0.0,0.0,0.0,0.0,0.0,0.0,0.0,0.0,0.0,0.0,0.0,0.0,0.0,-2.49,-2.5417,-2.5739,-2.6186,-2.6932,-2.711,-2.719,-2.719,-2.719,-2.719,-2.719,-2.7564,-2.7782,-2.7782,-2.8103,-2.8299,-2.8299,-2.8649,-2.8858,-2.8804,-2.9477,-2.9772,-2.9718,-2.9959,-3.0086,-3.0086,-3.0086,-3.0086,-3.0086,-3.0086,-3.0086,-3.0086,-3.0086,-3.0001,-2.9821,-2.9292,-2.8847,-2.851,-2.851,-2.851,-2.851,0.0,0.0,0.0,0.0,0.0,0.0,0.0,-2.1807,-2.1807,-2.1807,-2.1807,-2.1807,-2.1807,-2.1807,-2.1807,-2.1807,-2.1693,-2.154,-2.1359,-2.1167,-2.0974,0.0,0.0,-2.0176,-1.9922,-1.9746,-1.9443,-1.9014,-1.9326,-1.9581,-1.9796,-2.1316,-2.2339,-2.285,-2.41,-2.4853,-2.5285,-2.5498,-2.5787,-2.616,-2.6399,-2.6499,-2.6499,-2.6499,-2.6499,-2.6499,-2.6499,-2.6499,-2.6499,-2.6499,0.0,0.0,0.0,0.0,0.0,0.0,0.0,0.0,0.0,0.0,0.0,0.0,0.0,0.0,0.0,0.0,0.0,0.0,0.0,0.0,0.0,0.0,0.0,0.0,-2.5245,-2.5429,-2.5957,-2.6026,-2.6244,-2.6841,-2.7093,-2.727,-2.7518,-2.7552,-2.7633,-2.7828,-2.8115,-2.8287,-2.8287,-2.8551,-2.87,-2.87,-2.9135,-2.9381,-2.9326,-3.008,-3.0414,-3.0359,-3.0661,-3.0747,-3.0747,-3.0747,-3.0747,-3.0747,-3.0747,-3.0747,-3.0747,-3.0747,-3.0657,0.0,0.0,0.0,0.0,0.0,-2.9172,-2.9172,0.0,0.0,0.0,0.0,0.0,0.0,0.0,-2.1807,-2.1807,-2.1807,-2.1807,-2.1807,-2.1807,-2.1807,-2.1807,-2.1807,-2.1807,-2.1731,-2.154,-2.1128,0.0,-2.0683,-2.0184,-1.9893,-1.9844,-1.9424,-1.8994,-1.8529,-1.9251,-1.9448,-1.9187,-2.13,-2.233,-2.2494,-2.3966,-2.4637,-2.4725,-2.5222,-2.5485,-2.5636,-2.6185,-2.6436,-2.6499,-2.6499,-2.6499,-2.6499,-2.6499,-2.6499,-2.6499,-2.6499,0.0,0.0,0.0,0.0,0.0,0.0,0.0,0.0,0.0,0.0,0.0,0.0,0.0,0.0,0.0,0.0,0.0,0.0,0.0,0.0,0.0,0.0,0.0,0.0,-2.5796,-2.6003,-2.6593,-2.6674,-2.6674,-2.6674,-2.7082,-2.7575,-2.8023,-2.8057,-2.8241,-2.8666,-2.8758,-2.8792,-2.8792,0.0,0.0,0.0,0.0,-2.9904,-2.986,-3.0802,-3.1306,-3.1261,-3.1572,-3.1705,-3.1705,-3.1705,-3.1705,-3.1705,-3.1705,-3.1705,-3.1705,-3.1705,-3.1428,-3.0946,-3.0314,-3.0086,-3.0086,-3.0086,-3.0086,-3.0086,0.0,0.0,0.0,0.0,0.0,0.0,0.0,-2.1807,-2.1807,-2.1807,-2.1807,-2.1807,-2.1807,-2.1807,-2.1807,-2.1807,-2.1807,-2.1769,-2.1731,0.0,-2.0809,-2.1079,-2.0308,-1.9756,-1.9414,-1.8984,-1.852,-1.8135,-1.8819,-1.9393,-1.9901,-2.1172,-2.2063,-2.2671,-2.32,-2.3697,-2.4167,-2.4268,-2.4808,-2.5598,-2.5724,-2.6084,-2.6499,-2.6499,-2.6499,-2.6499,-2.6499,-2.6499,-2.6499,-2.6499,-2.6258,-2.5945,-2.591,0.0,0.0,0.0,0.0,0.0,0.0,0.0,0.0,0.0,0.0,0.0,0.0,0.0,0.0,0.0,0.0,0.0,0.0,0.0,0.0,-2.6283,-2.6363,-2.6674,-2.7564,-2.7732,-2.7732,-2.7732,-2.8115,-2.8448,-2.8551,-2.8563,-2.8597,-2.8689,-2.9102,-2.9343,-2.9343,-2.9711,-2.9917,-2.9917,-3.0246,-3.0337,-3.0112,-3.089,-3.1229,-3.1062,0.0,0.0,-3.1705,-3.1705,-3.1705,-3.1705,-3.1705,-3.1705,-3.1705,-3.1705,-3.1645,-3.1464,-3.0458,-3.0086,-3.0086,-3.0086,-3.0086,-3.0086,0.0,0.0,0.0,0.0,0.0,0.0,0.0,-2.1807,-2.1807,-2.1807,-2.1807,-2.1807,-2.1807,-2.1807,-2.1807,-2.1807,-2.1693,-2.1655,0.0,-2.1089,-2.0858,-2.1051,-2.0112,-1.9502,-1.9287,-1.8652,-1.8188,-1.8008,-1.9044,-1.977,-2.0215,-2.1534,-2.2377,-2.28,-2.3017,-2.3271,-2.359,-2.3879,-2.4305,-2.4845,-2.5372,-2.5774,-2.6097,-2.6386,-2.6499,-2.6499,-2.6499,-2.6499,-2.6499,-2.6499,-2.6211,-2.591,-2.591,-2.5606,-2.5312,0.0,0.0,0.0,0.0,0.0,0.0,0.0,0.0,0.0,0.0,0.0,0.0,0.0,0.0,-2.5474,0.0,0.0,-2.6335,-2.7145,-2.726,-2.7525,-2.823,-2.8574,-2.8643,-2.8367,-2.8551,-2.8804,-2.9068,-2.9102,-2.9194,-2.9447,-2.9711,-2.986,-2.986,-3.0089,-3.0216,-3.0216,-3.0352,-3.0352,-3.0216,-3.0713,-3.096,-3.0984,-3.1362,-3.1572,-3.1705,-3.1705,-3.1705,-3.1705,-3.1705,-3.1705,-3.1705,-3.1705,-3.1705,-3.1657,-3.1127,-3.0922,-3.0922,-3.0922,-3.0922,-3.0922,0.0,0.0,0.0,0.0,0.0,0.0,0.0,0.0,-2.1807,-2.1807,-2.1807,-2.1807,-2.1807,-2.1807,-2.1807,-2.1807,-2.1578,-2.1474,0.0,-2.1089,-2.0867,-2.0906,-1.9868,-1.9287,-1.9287,-1.8447,-1.8008,-1.8008,-1.9441,-2.0182,-2.0333,-2.1963,-2.28,-2.2909,-2.3047,-2.3108,-2.3133,-2.364,-2.3891,-2.4079,-2.5059,-2.5511,-2.5661,-2.6273,-2.6499,-2.6499,-2.6499,-2.6499,-2.6499,-2.6465,-2.6188,-2.5898,-2.5828,-2.5571,-2.5312,-2.5312,-2.5276,0.0,0.0,0.0,0.0,0.0,0.0,0.0,0.0,0.0,-2.5096,-2.5199,-2.5555,-2.6014,-2.6519,-2.6731,-2.7065,-2.7851,-2.8057,-2.8287,-2.8792,-2.9228,-2.9378,-2.9033,-2.8999,-2.916,-2.9596,-2.9642,-2.9802,-3.0181,-3.0216,-3.0216,-3.0216,-3.0216,-3.0216,-3.0216,-3.0216,-3.0216,-3.0216,-3.0487,-3.0724,-3.0984,-3.1184,-3.1439,-3.1705,-3.1705,-3.1705,-3.1705,-3.1705,-3.1705,-3.1705,-3.1705,-3.1705,-3.1705,-3.1705,-3.1705,-3.1705,-3.1705,-3.1705,-3.1705,0.0,0.0,0.0,0.0,0.0,0.0,0.0,0.0,0.0,-2.1807,-2.1807,-2.1807,-2.1807,-2.1807,-2.1807,-2.1807,-2.1464,0.0,-2.1512,-2.0964,-2.0693,-2.0906,-1.9868,-1.9287,-1.9287,-1.8447,-1.8008,-1.8008,-1.9529,-2.0301,-2.0333,-2.2075,-2.2878,-2.2909,-2.3047,-2.3108,-2.3108,-2.317,-2.3496,-2.4054,-2.4657,-2.5184,-2.5661,-2.6273,-2.6499,-2.6499,-2.6499,-2.6499,-2.6465,-2.6305,-2.6084,-2.5875,-2.5688,-2.55,-2.5312,-2.5312,0.0,-2.5087,-2.4897,-2.4574,-2.4273,-2.42,-2.4522,-2.4832,0.0,0.0,-2.575,-2.6237,-2.6375,-2.6582,-2.7047,-2.7506,-2.7851,-2.7966,-2.8344,-2.8804,-2.9332,-2.9458,-2.963,-2.9998,-3.0044,-3.0078,-3.0135,-3.0135,-3.0158,-3.0216,-3.0216,-3.0216,-3.0216,-3.0216,-3.0216,-3.0216,-3.0216,-3.0216,-3.0216,-3.0487,-3.0724,-3.0984,-3.1184,-3.1439,-3.1705,-3.1705,-3.1705,-3.1705,-3.1705,-3.1705,-3.1705,-3.1705,-3.1705,-3.1705,-3.1705,-3.1705,-3.1705,-3.1705,-3.1705,-3.1705,0.0,0.0,0.0,0.0,0.0,0.0,0.0,0.0,0.0,0.0,-2.1807,-2.1807,-2.1807,-2.1807,-2.1807,-2.1807,-2.1436,0.0,-2.1512,-2.0954,-2.0693,-2.0906,-2.0103,-1.9541,-1.9297,-1.8691,-1.8217,-1.8008,-1.9044,-1.965,-1.9922,-2.1428,-2.2261,-2.2445,-2.2884,-2.3108,-2.3108,-2.3108,-2.3246,-2.3547,-2.4424,-2.4913,-2.5247,-2.616,-2.6499,-2.6499,-2.6499,-2.6499,0.0,0.0,-2.6062,-2.5863,-2.5641,-2.5453,-2.5276,-2.5218,-2.5147,-2.5016,-2.4706,-2.4626,-2.4613,-2.4613,-2.5004,-2.5383,-2.5383,-2.5773,-2.6249,-2.6455,-2.6973,-2.7415,-2.7633,-2.8069,-2.8505,0.0,-2.9033,-2.9343,-2.9848,-2.9917,-2.9998,-3.0193,-3.0216,-3.0216,-3.0216,-3.0216,-3.0216,-3.0216,-3.0216,-3.0216,-3.0216,-3.0216,-3.0216,-3.0216,-3.0216,-3.0216,-3.0216,-3.0306,-3.0487,-3.0769,-3.1005,-3.1229,-3.1484,-3.1617,-3.1705,-3.1705,-3.1705,-3.1705,-3.1705,-3.1705,-3.1705,-3.1705,-3.1705,-3.1705,-3.1705,-3.1705,-3.1705,-3.1705,0.0,0.0,0.0,0.0,0.0,0.0,0.0,0.0,0.0,0.0,0.0,-2.1769,-2.1731,-2.1731,-2.1731,-2.1731,0.0,0.0,0.0,-2.0915,-2.0654,-2.0819,-2.0232,-1.9775,-1.9473,-1.888,-1.8451,-1.8184,-1.8782,-1.9276,-1.9628,-2.1037,-2.1834,-2.2144,-2.2811,-2.3108,-2.3108,-2.3108,-2.3195,-2.3434,-2.4399,-2.4876,-2.5146,-2.6135,-2.6499,-2.6499,-2.6499,-2.6465,-2.6396,-2.6201,-2.598,-2.5793,-2.5571,-2.5418,-2.5276,-2.5147,-2.5111,-2.5038,-2.4687,-2.4863,-2.513,-2.513,-2.5532,-2.5922,-2.5922,-2.6313,-2.6754,-2.6892,-2.7513,-2.8023,-2.8149,-2.8586,-2.9045,-2.9435,-2.9607,-2.9814,-3.017,-3.0216,-3.0216,-3.0216,-3.0216,-3.0216,-3.0216,-3.0216,-3.0216,-3.0216,-3.0216,-3.0216,-3.0216,-3.0216,-3.0216,-3.0216,-3.0216,-3.0216,-3.0216,-3.0216,-3.0352,-3.0623,-3.0871,-3.1107,-3.1306,-3.1572,-3.1705,-3.1705,-3.1705,-3.1705,-3.1705,-3.1705,-3.1705,-3.1705,-3.1705,-3.1705,-3.1705,-3.1705,-3.1705,-3.1705,0.0,0.0,0.0,0.0,0.0,0.0,0.0,0.0,0.0,0.0,0.0,0.0,0.0,0.0,-2.1502,-2.1502,0.0,0.0,0.0,-2.0848,-2.0605,-2.0605,-2.0146,-1.9902,-1.9893,-1.9026,-1.8598,-1.8588,-1.9059,-1.9408,-1.9628,-2.1175,-2.197,-2.2144,-2.2811,-2.3108,-2.3108,-2.3108,-2.3434,-2.4017,-2.4594,-2.5121,-2.5636,-2.6273,-2.6499,-2.6499,-2.6499,0.0,-2.6166,-2.598,-2.5793,-2.5571,-2.5382,-2.5312,0.0,-2.5147,-2.5143,-2.5161,-2.4926,-2.5279,-2.5693,-2.5693,-2.6071,-2.6478,-2.6478,-2.6841,-2.7346,-2.7839,-2.7966,-2.8126,-2.8586,-2.9114,-2.9481,-2.9504,-2.9894,-3.0204,-3.0216,-3.0216,-3.0216,-3.0216,-3.0216,-3.0216,0.0,-3.0216,-3.0216,-3.0216,-3.0216,-3.0216,-3.0216,-3.0216,-3.0216,-3.0216,-3.0216,-3.0216,-3.0216,-3.0216,-3.0352,-3.0623,-3.0871,-3.1107,-3.1306,-3.1572,-3.1705,-3.1705,-3.1705,-3.1705,-3.1705,-3.1705,-3.1705,-3.1705,-3.1705,-3.1705,-3.1705,-3.1705,-3.1705,-3.1705,0.0,0.0,0.0,0.0,0.0,0.0,0.0,0.0,0.0,0.0,0.0,0.0,0.0,0.0,0.0,0.0,-2.1244,0.0,0.0,-2.0731,-2.0605,-2.0605,-2.0458,-2.0215,-1.9922,-1.9592,-1.9346,-1.9072,-1.8904,-1.8996,-1.9339,-2.0041,-2.0751,-2.1471,-2.2144,-2.2689,-2.3133,-2.354,-2.3816,-2.4079,-2.4971,-2.5435,-2.5661,-2.6115,-2.6305,-2.627,0.0,-2.6119,-2.6131,-2.5793,-2.5641,-2.5571,-2.5347,-2.5312,-2.5313,-2.5347,-2.5205,-2.5067,-2.5348,-2.5819,-2.6249,-2.6249,-2.66,-2.6967,-2.6967,-2.7105,-2.7328,-2.7874,-2.823,-2.8609,-2.9137,-2.9642,-2.9975,-2.9975,-3.0112,-3.0216,-3.0216,-3.0216,-3.0216,-3.0216,-3.0216,0.0,0.0,0.0,0.0,-3.0216,-3.0216,-3.0216,-3.0216,-3.0216,-3.0216,-3.0216,-3.0216,-3.0216,-3.0216,-3.0216,-3.0261,-3.0352,-3.0793,-3.1196,-3.1572,-3.1661,-3.1705,-3.1705,-3.1705,-3.1705,-3.1705,-3.1705,-3.1705,-3.1705,-3.1705,-3.1705,-3.1705,-3.1705,-3.1705,-3.1705,0.0,0.0,0.0,0.0,0.0,0.0,0.0,0.0,0.0,0.0,0.0,0.0,0.0,0.0,0.0,0.0,0.0,-2.1022,0.0,0.0,-2.0605,-2.0605,-2.0605,-2.0478,-2.0156,-1.999,-1.9785,-1.9512,-1.9082,-1.9019,-1.9349,-1.9847,-2.0587,-2.1554,-2.2285,-2.3037,-2.3735,-2.413,-2.4406,-2.4632,-2.5223,-2.5624,-2.5815,-2.6017,-2.6097,0.0,0.0,-2.5875,-2.5945,-2.5688,-2.5535,-2.5465,-2.5347,-2.5337,-2.5373,-2.5461,-2.5489,-2.5543,-2.5888,-2.6347,-2.6737,-2.6737,-2.699,-2.719,-2.719,-2.7328,-2.7644,-2.8138,-2.8632,-2.9137,-2.9665,-3.0009,-3.0216,-3.0216,-2.9886,-2.9795,-3.017,-2.96,-2.9268,-2.9612,-2.9371,-2.913,0.0,0.0,0.0,-2.9658,-2.9658,-2.9658,-2.9658,-2.9658,-2.984,-3.017,-2.984,-2.984,-3.0216,-3.0216,-3.0261,-3.0352,-3.0793,-3.1196,-3.1572,-3.1661,-3.1705,-3.1705,-3.1705,-3.1705,-3.1705,-3.1705,-3.1705,-3.1705,-3.1705,-3.1705,-3.1705,-3.1705,-3.1705,-3.1705,0.0,0.0,0.0,0.0,0.0,0.0,0.0,0.0,0.0,0.0,0.0,0.0,0.0,0.0,0.0,0.0,0.0,0.0,0.0,0.0,0.0,-2.0605,-2.0605,-2.0605,-2.0605,-2.0156,-1.9951,-1.9951,-1.9531,-1.9436,-1.9637,-2.0456,-2.1366,-2.2355,-2.3177,-2.4009,-2.4788,-2.4813,-2.5146,-2.5565,-2.5415,-2.5695,-2.6166,-2.5945,0.0,0.0,0.0,-2.5535,-2.5571,-2.5571,-2.5453,-2.5312,-2.5276,-2.5397,-2.5493,-2.5528,-2.5989,-2.6513,-2.6536,-2.6864,-2.719,-2.719,-2.719,-2.719,-2.719,-2.7621,-2.8115,-2.8597,-2.9125,-2.9653,0.0,0.0,-3.017,-3.0125,-2.9382,-2.9095,-3.008,-2.8505,-2.7615,0.0,0.0,0.0,0.0,0.0,0.0,-2.8481,0.0,-2.8631,-2.8631,-2.8631,-2.9048,-3.0034,-2.9187,-2.9141,-3.0125,-3.017,-3.0352,-3.0623,-3.0871,-3.1107,-3.1306,-3.1572,-3.1705,-3.1705,-3.1705,-3.1705,-3.1705,-3.1705,-3.1705,-3.1705,-3.1705,-3.1705,-3.1705,-3.1705,-3.1705,-3.1705,0.0,0.0,0.0,0.0,0.0,0.0,0.0,0.0,0.0,0.0,0.0,0.0,0.0,0.0,0.0,0.0,0.0,0.0,0.0,0.0,0.0,0.0,0.0,0.0,0.0,0.0,0.0,-2.0439,-1.9971,-1.984,-2.0036,-2.0101,-2.0907,-2.2321,-2.2695,-2.3568,-2.4813,-2.5234,-2.5386,-2.5415,0.0,-2.5973,-2.5945,0.0,0.0,0.0,0.0,0.0,-2.5382,-2.5382,-2.5347,-2.5276,-2.5182,-2.5324,-2.5538,-2.5786,-2.6163,-2.6593,-2.6932,-2.7087,-2.719,-2.719,-2.719,-2.719,-2.719,-2.7621,-2.8115,-2.8597,-2.9125,-2.9419,0.0,0.0,0.0,-2.9187,-2.952,0.0,-3.017,-2.9084,0.0,-2.8678,0.0,-2.7189,-2.7189,-2.6532,0.0,0.0,-2.7152,-2.7568,-2.7568,-2.7568,-2.7709,-2.7945,-2.8434,-2.8817,-2.9095,-2.984,-3.0352,-3.0623,-3.0871,-3.1107,-3.1306,-3.1572,-3.1705,-3.1705,-3.1705,-3.1705,-3.1705,-3.1705,-3.1705,-3.1705,-3.1705,-3.1705,-3.1705,-3.1705,-3.1705,-3.1705,0.0,0.0,0.0,0.0,0.0,0.0,0.0,0.0,0.0,0.0,0.0,0.0,0.0,0.0,0.0,0.0,0.0,0.0,0.0,0.0,0.0,0.0,0.0,0.0,0.0,0.0,0.0,0.0,0.0,0.0,-2.0367,-2.0357,-2.0984,-2.2188,-2.2756,-2.3653,-2.4786,-2.5466,0.0,0.0,0.0,0.0,0.0,0.0,0.0,0.0,0.0,0.0,0.0,0.0,0.0,-2.4826,-2.504,-2.5187,-2.5428,-2.5866,-2.6389,-2.6864,-2.711,-2.719,-2.719,-2.719,-2.719,-2.719,-2.719,-2.7621,-2.8057,-2.8322,-2.8648,-2.8735,-2.8444,-2.9043,-2.9371,0.0,0.0,0.0,-2.9566,-2.8294,-2.74,0.0,-2.6494,0.0,-2.5858,-2.5392,-2.502,0.0,-2.5964,-2.6532,-2.6532,-2.6532,-2.6713,-2.7189,-2.7295,-2.7825,-2.8678,-2.9703,-3.0261,-3.0442,-3.0838,-3.1062,-3.1184,-3.1528,-3.1705,-3.1705,0.0,-3.1705,-3.1705,-3.1705,-3.1705,-3.1705,-3.1705,-3.1705,-3.1705,-3.1705,-3.1705,-3.1705,0.0,0.0,0.0,0.0,0.0,0.0,0.0,0.0,0.0,0.0,0.0,0.0,0.0,0.0,0.0,0.0,0.0,0.0,0.0,0.0,0.0,0.0,0.0,0.0,0.0,0.0,0.0,0.0,-2.0605,0.0,0.0,0.0,0.0,0.0,0.0,0.0,0.0,0.0,0.0,0.0,0.0,0.0,0.0,0.0,0.0,0.0,0.0,0.0,0.0,0.0,-2.3427,-2.4059,-2.4777,-2.505,-2.5205,-2.5746,-2.6405,-2.7015,-2.688,-2.6933,-2.7015,-2.7015,-2.7015,-2.7015,-2.7015,-2.7307,-2.7671,-2.7797,-2.7777,-2.7735,-2.78,-2.8112,-2.8462,-2.847,0.0,-2.8527,-2.8678,-2.6972,-2.5693,-2.5693,-2.4824,-2.4202,-2.4202,-2.4202,-2.4202,-2.4202,-2.502,-2.5499,-2.5499,-2.5499,-2.5974,-2.6952,-2.6157,-2.659,-2.8481,-2.9371,-2.9886,-3.0034,-3.051,-3.0838,-3.1029,-3.1451,-3.1673,-3.1705,-3.1705,-3.1705,-3.1705,-3.1705,-3.1705,-3.1705,-3.1705,-3.1705,-3.1705,-3.1705,-3.1705,-3.1705,0.0,0.0,0.0,0.0,0.0,0.0,0.0,0.0,0.0,0.0,-2.1397,-2.1436,0.0,0.0,0.0,0.0,0.0,0.0,0.0,0.0,0.0,0.0,0.0,0.0,0.0,-2.0605,-2.0605,-2.0605,-2.0605,-2.0605,0.0,0.0,0.0,0.0,0.0,0.0,0.0,0.0,0.0,0.0,0.0,0.0,0.0,0.0,0.0,0.0,0.0,0.0,0.0,0.0,-2.3106,-2.3357,-2.4153,-2.4758,-2.5116,-2.5223,-2.5609,-2.5883,-2.5168,-2.5505,-2.6038,-2.6038,-2.6038,-2.6038,-2.6038,-2.5861,0.0,-2.6669,-2.656,-2.6414,-2.6629,-2.6821,-2.7091,-2.7411,-2.7474,-2.7767,-2.8574,-2.6972,-2.5693,0.0,-2.4824,-2.4202,-2.4202,-2.4202,0.0,0.0,-2.4341,-2.444,-2.444,-2.444,-2.4922,-2.5926,-2.579,-2.6254,-2.7426,-2.7615,-2.8143,-2.8956,-2.9279,-2.9977,-3.1029,-3.1273,-3.1484,-3.1705,-3.1705,0.0,-3.1705,-3.1705,-3.1705,-3.1705,-3.1705,-3.1705,-3.1705,-3.1705,-3.1705,-3.1705,0.0,0.0,0.0,0.0,0.0,0.0,0.0,-2.1655,-2.1502,-2.1099,-2.1138,-2.1128,-2.0925,-2.0886,-2.0848,0.0,0.0,0.0,0.0,0.0,0.0,0.0,0.0,0.0,0.0,-2.0605,-2.0605,-2.0605,0.0,-2.0605,-2.0605,-2.0693,-2.0915,-2.1336,-2.2638,-2.3463,-2.3866,-2.4636,0.0,-2.4228,-2.3829,-2.339,0.0,0.0,0.0,0.0,0.0,0.0,0.0,0.0,-2.1756,-2.2067,-2.3753,-2.4045,-2.3929,-2.4827,-2.5097,-2.5031,-2.4616,-2.4829,-2.5115,-2.5115,-2.5115,-2.5115,-2.5115,0.0,0.0,-2.5423,-2.5127,-2.4907,-2.5257,-2.5575,0.0,-2.6365,-2.6867,-2.7189,-2.7163,-2.6312,-2.5509,-2.4971,-2.4489,-2.4202,-2.4202,-2.4202,-2.4202,-2.4202,-2.4202,-2.4202,-2.4202,-2.4202,-2.4449,-2.4873,-2.545,-2.5926,-2.6388,-2.6952,-2.7426,-2.7908,-2.819,-2.8702,-2.9395,-2.9624,-3.0181,-3.0913,-3.0913,-3.1238,-3.1661,-3.1149,-3.0913,-3.0913,-3.0913,-3.0588,-3.0215,-3.0734,-3.0913,-3.0913,0.0,0.0,0.0,0.0,0.0,0.0,0.0,-2.1464,-2.132,-2.0945,-2.0906,-2.0819,-2.0605,-2.0605,-2.0605,0.0,0.0,0.0,0.0,0.0,0.0,0.0,0.0,0.0,0.0,0.0,0.0,-2.0605,-2.0605,0.0,0.0,0.0,0.0,0.0,-2.2096,-2.2734,-2.2809,-2.3537,-2.3745,0.0,0.0,-2.266,0.0,0.0,0.0,0.0,0.0,0.0,0.0,0.0,-2.0664,-2.1085,-2.3255,-2.3258,-2.2788,-2.4291,-2.4504,-2.4145,-2.393,-2.4059,-2.4188,-2.4188,-2.4188,-2.4188,-2.4188,-2.4059,0.0,-2.4145,-2.3687,-2.3474,-2.4159,-2.4481,-2.4879,0.0,-2.6157,-2.634,-2.5781,-2.5499,-2.5069,0.0,-2.4202,0.0,-2.4202,-2.4202,0.0,-2.4202,-2.4202,-2.4202,-2.4202,-2.4202,-2.4202,-2.4202,-2.4971,-2.5353,-2.5353,-2.6147,-2.6665,-2.6856,-2.7115,-2.7437,-2.7829,-2.8121,-2.8773,-2.9806,-2.9841,-3.0306,-3.1003,-3.0215,-2.9886,-2.9886,-2.9886,-2.9383,-2.8819,-2.9612,-2.9886,-2.9886,0.0,0.0,0.0,0.0,0.0,0.0,0.0,-2.1359,-2.1167,-2.0945,-2.0906,-2.0819,-2.0605,-2.0605,-2.0605,0.0,0.0,0.0,0.0,0.0,0.0,0.0,0.0,0.0,0.0,0.0,0.0,-2.0605,-2.0605,0.0,0.0,0.0,0.0,0.0,0.0,-2.1907,-2.1945,-2.2761,0.0,0.0,0.0,0.0,0.0,0.0,0.0,0.0,0.0,0.0,0.0,0.0,0.0,-2.132,-2.2322,-2.2605,-2.2644,-2.3403,0.0,0.0,-2.2201,-2.2589,-2.3226,-2.3226,-2.3226,-2.3226,-2.3226,0.0,-2.2211,-2.3052,-2.2495,-2.2376,-2.4019,-2.3654,-2.3672,-2.5421,-2.502,-2.4775,-2.5596,-2.4922,-2.4301,-2.4202,0.0,0.0,-2.4202,-2.4202,-2.4202,-2.4202,-2.4202,-2.4202,-2.4202,-2.4202,-2.4202,-2.4202,-2.4301,-2.435,-2.435,-2.444,-2.4922,-2.5839,-2.5839,-2.6504,-2.7636,-2.784,-2.8111,-2.8505,-2.8727,-2.8912,0.0,-2.8866,-2.8819,-2.8819,-2.8819,-2.8773,-2.8727,-2.8819,-2.8819,-2.8819,0.0,0.0,0.0,0.0,0.0,0.0,-2.1359,-2.1167,-2.0935,-2.0741,-2.0731,-2.0693,-2.0605,-2.0605,-2.0605,-2.0605,0.0,0.0,0.0,0.0,0.0,0.0,0.0,0.0,0.0,0.0,-2.0605,-2.0605,-2.0605,0.0,0.0,0.0,0.0,0.0,0.0,-2.1794,-2.1842,-2.2134,0.0,0.0,0.0,0.0,0.0,0.0,0.0,0.0,0.0,0.0,-2.0644,0.0,0.0,0.0,-2.2073,-2.2194,0.0,0.0,-2.2765,-2.2157,-2.182,-2.1989,-2.2246,-2.2246,-2.2246,-2.2246,-2.2246,0.0,-2.182,-2.2157,-2.1945,-2.2069,-2.3252,-2.313,-2.3312,-2.4594,-2.444,0.0,-2.4735,-2.444,-2.4202,-2.4202,-2.4202,0.0,0.0,0.0,-2.4202,-2.4202,-2.4202,-2.4202,-2.4202,-2.4202,-2.4202,-2.4202,-2.4202,-2.4202,-2.4202,-2.4202,-2.4399,-2.4784,-2.4784,-2.5109,-2.5722,-2.5964,-2.658,-2.7389,-2.7652,-2.8121,0.0,-2.8028,-2.7793,-2.7793,-2.7793,-2.7426,-2.6982,-2.7568,-2.7793,-2.7793,0.0,0.0,0.0,0.0,0.0,-2.1359,-2.1205,-2.0974,-2.078,-2.0605,-2.0605,-2.0605,-2.0605,-2.0605,-2.0605,-2.0605,-2.0605,0.0,0.0,0.0,0.0,0.0,0.0,0.0,0.0,0.0,-2.0605,-2.0605,-2.0605,-2.0605,0.0,0.0,-2.0605,-2.0644,0.0,0.0,0.0,0.0,0.0,0.0,0.0,0.0,0.0,0.0,0.0,0.0,0.0,0.0,0.0,0.0,0.0,0.0,0.0,0.0,0.0,0.0,-2.229,-2.1696,-2.1696,-2.1696,-2.1696,-2.1696,-2.1696,-2.1696,0.0,0.0,-2.1696,-2.1696,-2.1696,-2.1943,-2.2757,-2.2904,-2.3169,-2.4073,0.0,-2.4202,-2.4202,-2.4202,-2.4202,0.0,0.0,-2.4202,0.0,-2.4202,-2.4202,-2.4202,-2.4202,-2.4202,-2.4202,-2.4202,-2.4202,-2.4202,-2.4202,-2.4202,-2.4202,-2.4202,-2.4202,-2.4202,-2.4202,-2.4251,-2.444,-2.4735,-2.5411,-2.6264,-2.659,-2.7152,0.0,-2.7057,-2.6733,-2.6733,-2.6733,-2.6322,-2.5781,-2.6514,-2.6733,-2.6733,0.0,0.0,0.0,0.0,0.0,0.0,-2.1205,-2.0848,-2.0605,-2.0605,-2.0605,-2.0605,-2.0605,-2.0605,-2.0605,-2.0605,-2.0605,0.0,0.0,0.0,0.0,0.0,0.0,0.0,0.0,0.0,-2.0605,-2.0605,-2.0605,-2.0605,-2.0605,-2.0605,-2.0605,-2.0605,0.0,0.0,0.0,0.0,0.0,0.0,0.0,0.0,0.0,0.0,0.0,0.0,0.0,0.0,0.0,0.0,0.0,0.0,0.0,0.0,0.0,0.0,-2.1919,-2.1696,-2.1696,-2.1696,-2.1696,-2.1696,-2.1696,-2.1696,0.0,0.0,-2.1696,-2.1696,-2.1696,-2.1943,-2.2757,-2.2904,-2.3169,-2.4073,-2.4202,0.0,-2.4202,-2.4202,-2.4202,0.0,0.0,-2.4202,-2.4202,-2.4202,-2.4202,-2.4202,-2.4202,0.0,-2.4202,-2.4202,-2.4202,-2.4202,-2.4202,-2.4202,-2.4202,-2.4202,-2.4202,-2.4202,-2.4202,-2.4202,-2.4202,-2.4686,-2.4883,-2.4932,-2.5479,-2.5732,0.0,-2.5742,-2.5742,-2.5742,-2.5742,-2.5684,-2.5693,-2.5684,-2.5742,-2.5742,0.0,0.0,0.0,0.0,0.0,0.0,0.0,-2.0848,-2.0605,-2.0605,-2.0605,-2.0605,-2.0605,-2.0605,-2.0605,-2.0605,-2.0605,0.0,0.0,0.0,0.0,0.0,0.0,0.0,0.0,0.0,-2.0605,-2.0605,-2.0605,-2.0605,-2.0605,-2.0605,-2.0605,-2.0605,-2.0605,-2.0605,0.0,0.0,0.0,0.0,0.0,0.0,0.0,0.0,0.0,0.0,0.0,0.0,0.0,0.0,0.0,0.0,0.0,0.0,0.0,0.0,0.0,0.0,-2.1696,-2.1696,-2.1696,-2.1696,-2.1696,-2.1696,-2.1696,0.0,-2.1696,-2.1696,-2.1696,-2.1943,-2.2757,-2.2904,-2.3169,-2.4073,-2.4202,0.0,0.0,0.0,0.0,-2.4202,-2.4202,-2.4202,0.0,0.0,-2.4202,-2.4202,-2.4202,-2.4202,-2.4202,-2.4202,-2.4202,-2.4202,-2.4202,-2.4202,-2.4202,-2.4202,-2.4202,-2.4202,-2.4202,-2.4202,-2.4202,-2.4686,-2.4883,-2.4932,-2.5489,-2.5693,-2.5693,-2.5693,-2.5693,-2.5693,-2.5693,-2.5693,-2.5693,-2.5693,-2.5693,-2.5693,0.0,0.0,0.0,0.0,0.0,0.0,0.0,-2.0809,-2.0605,-2.0605,-2.0605,-2.0605,-2.0605,-2.0605,-2.0605,-2.0605,-2.0605,0.0,0.0,0.0,0.0,0.0,0.0,0.0,0.0,-2.0605,-2.0605,-2.0605,-2.0605,-2.0605,-2.0605,-2.0605,-2.0605,-2.0605,-2.0605,-2.0605,0.0,0.0,0.0,0.0,0.0,0.0,-2.0605,0.0,0.0,0.0,0.0,0.0,0.0,0.0,0.0,0.0,0.0,0.0,0.0,0.0,-2.222,-2.1874,0.0,-2.1874,-2.183,-2.1741,-2.1696,0.0,0.0,-2.1696,-2.1696,-2.1696,-2.1806,-2.2117,-2.2785,-2.3032,-2.3343,-2.4101,-2.4202,0.0,0.0,0.0,0.0,-2.4202,0.0,0.0,0.0,-2.4202,-2.4202,-2.4202,-2.4202,-2.4202,-2.4202,-2.4202,-2.4202,-2.4202,-2.4202,-2.4202,-2.4202,-2.4202,-2.4202,-2.4202,-2.4202,-2.4202,-2.4202,-2.4686,-2.4883,-2.4932,-2.5489,-2.5693,0.0,-2.5693,-2.5693,-2.5693,-2.5693,-2.5693,-2.5693,-2.5693,-2.5693,-2.5693,0.0,0.0,0.0,0.0,0.0,0.0,0.0,-2.0731,-2.0605,-2.0605,-2.0605,-2.0605,-2.0605,-2.0605,-2.0605,-2.0605,0.0,0.0,0.0,0.0,0.0,0.0,0.0,0.0,-2.0605,-2.0605,-2.0605,-2.0605,-2.0605,-2.0605,-2.0605,-2.0605,-2.0605,-2.0605,-2.0605,-2.0605,0.0,0.0,0.0,0.0,0.0,0.0,0.0,0.0,0.0,0.0,0.0,0.0,0.0,0.0,0.0,0.0,0.0,0.0,0.0,0.0,0.0,0.0,0.0,-2.2097,-2.2008,-2.1785,-2.1696,-2.1696,-2.1696,-2.1714,0.0,-2.1733,-2.2053,-2.2455,-2.2876,-2.3251,-2.3627,-2.4137,0.0,0.0,0.0,-2.4202,0.0,0.0,-2.4202,0.0,-2.4202,-2.4202,-2.4202,-2.4202,-2.4202,-2.4202,-2.4202,-2.4202,-2.4202,-2.4202,-2.4202,-2.4202,-2.4202,-2.4202,-2.4202,-2.4202,-2.4202,-2.4202,-2.4202,-2.4686,-2.4883,0.0,-2.544,-2.5684,-2.5693,-2.5693,-2.5693,-2.5693,-2.5693,-2.5693,-2.5693,-2.5693,-2.5693,-2.5693,0.0,0.0,0.0,0.0,0.0,0.0,0.0,0.0,0.0,0.0,-2.0605,-2.0605,-2.0605,-2.0605,-2.0605,0.0,0.0,0.0,0.0,0.0,0.0,0.0,0.0,0.0,-2.0605,-2.0605,-2.0605,-2.0605,-2.0605,-2.0605,-2.0605,-2.0605,-2.0605,-2.0605,-2.0605,-2.0605,0.0,0.0,0.0,0.0,0.0,0.0,0.0,0.0,0.0,0.0,-2.1572,-2.1934,0.0,0.0,0.0,0.0,0.0,0.0,0.0,0.0,-2.2969,-2.2838,-2.2671,0.0,-2.1785,-2.1741,-2.1696,-2.1696,0.0,0.0,-2.2144,-2.2144,-2.2474,-2.2885,-2.3279,-2.3435,0.0,0.0,0.0,-2.4202,-2.4202,0.0,0.0,-2.4202,-2.4202,-2.4202,-2.4202,-2.4202,-2.4202,-2.4202,-2.4202,-2.4202,-2.4202,-2.4202,-2.4202,-2.4202,-2.4202,-2.4202,-2.4202,-2.4202,-2.4202,-2.4202,-2.4202,-2.4202,-2.4202,-2.4489,-2.4686,-2.4932,-2.5235,-2.5489,-2.5693,-2.5693,-2.5693,-2.5693,-2.5693,-2.5693,-2.5693,-2.5693,-2.5693,-2.5693,0.0,0.0,0.0,0.0,0.0,0.0,0.0,0.0,0.0,0.0,0.0,0.0,0.0,0.0,0.0,0.0,0.0,0.0,0.0,0.0,0.0,0.0,0.0,-2.0605,-2.0605,-2.0605,-2.0605,-2.0605,-2.0605,-2.0605,-2.0605,-2.0605,-2.0605,-2.0605,-2.0605,-2.0684,0.0,0.0,0.0,0.0,-2.1212,0.0,0.0,0.0,0.0,0.0,-2.2021,-2.2324,0.0,-2.2691,-2.2906,-2.3091,0.0,0.0,0.0,0.0,-2.3047,-2.2925,-2.2847,-2.2397,-2.1998,-2.1919,-2.1923,-2.1961,-2.1961,0.0,0.0,0.0,0.0,0.0,0.0,0.0,0.0,0.0,-2.4202,0.0,0.0,0.0,-2.4202,-2.4202,-2.4202,-2.4202,0.0,-2.4202,-2.4202,-2.4202,-2.4202,-2.4202,-2.4202,-2.4202,-2.4202,-2.4202,-2.4202,-2.4202,-2.4202,-2.4202,-2.4202,-2.4202,-2.4202,-2.4202,-2.4202,-2.439,-2.4578,-2.4735,-2.5137,-2.5382,-2.5538,-2.5645,-2.5693,-2.5693,-2.5693,-2.5693,-2.5693,-2.5693,-2.5693,-2.5693,0.0,0.0,0.0,0.0,0.0,0.0,0.0,0.0,0.0,0.0,0.0,0.0,0.0,0.0,0.0,0.0,0.0,0.0,0.0,0.0,0.0,0.0,0.0,-2.0605,-2.0605,-2.0605,-2.0605,-2.0605,-2.0605,-2.0605,-2.0605,-2.0605,-2.0605,-2.0605,-2.0674,-2.0879,0.0,0.0,-2.1553,-2.1885,-2.1885,0.0,0.0,0.0,0.0,0.0,0.0,0.0,0.0,-2.2974,-2.3091,-2.3091,-2.3091,0.0,0.0,0.0,0.0,0.0,-2.2847,-2.271,-2.2492,-2.2323,-2.2306,-2.2392,-2.2447,0.0,0.0,0.0,0.0,0.0,0.0,-2.3923,0.0,0.0,0.0,0.0,-2.4202,-2.4202,-2.4202,-2.4202,-2.4202,0.0,-2.4202,-2.4202,-2.4202,-2.4202,-2.4202,-2.4202,-2.4202,-2.4202,-2.4202,-2.4202,-2.4202,-2.4202,-2.4202,-2.4202,-2.4202,-2.4202,-2.4202,-2.4202,-2.4202,-2.439,-2.4489,-2.4538,0.0,0.0,-2.5333,-2.5586,-2.5693,-2.5693,-2.5693,-2.5693,-2.5693,-2.5693,-2.5693,-2.5693,0.0,0.0,0.0,0.0,0.0,0.0,0.0,0.0,0.0,0.0,0.0,0.0,0.0,0.0,0.0,0.0,0.0,0.0,0.0,0.0,0.0,0.0,-2.0605,-2.0605,-2.0605,-2.0605,-2.0605,-2.0605,-2.0605,-2.0605,-2.0605,-2.0605,-2.0605,-2.0615,-2.0967,-2.1132,-2.122,-2.1631,-2.1826,-2.1885,-2.1885,0.0,0.0,0.0,0.0,0.0,0.0,0.0,0.0,-2.3071,-2.3091,-2.3091,-2.3091,0.0,0.0,0.0,0.0,0.0,-2.3047,-2.3133,-2.3188,-2.3017,-2.2792,-2.274,-2.3075,0.0,0.0,0.0,0.0,0.0,0.0,-2.4156,-2.4202,0.0,0.0,-2.4202,0.0,0.0,-2.4202,-2.4202,0.0,-2.4202,-2.4202,-2.4202,-2.4202,-2.4202,-2.4202,-2.4202,-2.4202,-2.4202,-2.4202,-2.4202,-2.4202,-2.4202,-2.4202,-2.4202,-2.4202,-2.4202,-2.4202,-2.4202,-2.4202,-2.4251,-2.4341,-2.4529,0.0,-2.5079,-2.5333,-2.5586,-2.5693,-2.5693,-2.5693,-2.5693,-2.5693,-2.5693,-2.5693,-2.5693,0.0,0.0,0.0,0.0,0.0,0.0,0.0,0.0,0.0,0.0,0.0,0.0,0.0,0.0,0.0,0.0,0.0,0.0,0.0,0.0,0.0,-2.0605,-2.0605,-2.0605,-2.0605,-2.0605,-2.0605,-2.0605,-2.0605,-2.0605,-2.0605,-2.0605,-2.0732,-2.0937,-2.1103,-2.1453,-2.1943,-2.2139,-2.2353,-2.2568,0.0,0.0,0.0,0.0,0.0,0.0,0.0,0.0,0.0,0.0,-2.3091,-2.3091,-2.3091,0.0,0.0,0.0,0.0,0.0,-2.3428,-2.3543,-2.3716,-2.4088,-2.3879,-2.3561,0.0,0.0,0.0,0.0,0.0,0.0,0.0,0.0,-2.4202,-2.4202,0.0,-2.4202,-2.4202,-2.4202,-2.4202,0.0,0.0,-2.4202,-2.4202,-2.4202,-2.4202,-2.4202,-2.4202,-2.4202,-2.4202,-2.4202,-2.4202,-2.4202,-2.4202,-2.4202,-2.4202,-2.4202,-2.4202,-2.4202,-2.4202,-2.4202,-2.4202,-2.4202,-2.4251,-2.4341,0.0,-2.4833,-2.5088,-2.5382,-2.5586,-2.5693,-2.5693,-2.5693,-2.5693,-2.5693,-2.5693,-2.5693,0.0,0.0,0.0,0.0,0.0,0.0,0.0,0.0,0.0,0.0,0.0,0.0,0.0,0.0,0.0,0.0,0.0,0.0,0.0,0.0,-2.0605,-2.0605,-2.0605,-2.0605,-2.0605,-2.0605,-2.0605,-2.0605,-2.0605,-2.0605,-2.0605,-2.0605,-2.0801,-2.12,-2.1298,-2.1807,-2.2519,-2.2617,-2.2799,-2.3091,0.0,0.0,0.0,0.0,0.0,0.0,0.0,0.0,0.0,0.0,0.0,0.0,0.0,0.0,0.0,-2.3091,-2.3091,-2.3188,-2.3672,-2.3867,-2.4121,-2.492,0.0,0.0,0.0,0.0,0.0,0.0,0.0,0.0,0.0,-2.4251,0.0,-2.4202,-2.4202,-2.4202,-2.4202,-2.4202,-2.4202,-2.4202,-2.4202,-2.4202,-2.4202,-2.4202,-2.4202,-2.4202,-2.4202,-2.4202,-2.4202,-2.4202,-2.4202,-2.4202,-2.4202,-2.4202,-2.4202,-2.4202,-2.4202,-2.4202,-2.4202,-2.4202,-2.4202,-2.4202,-2.4202,-2.4202,-2.439,-2.4637,-2.4833,-2.5137,-2.544,-2.5586,-2.5684,-2.5693,-2.5693,-2.5693,-2.5693,-2.5693,0.0,0.0,0.0,0.0,0.0,0.0,0.0,0.0,0.0,0.0,0.0,0.0,0.0,0.0,0.0,0.0,0.0,0.0,0.0,0.0,-2.0605,-2.0605,-2.0605,-2.0605,-2.0605,-2.0605,-2.0605,-2.0605,-2.0605,-2.0605,-2.0605,-2.0605,-2.0801,-2.121,-2.166,-2.209,-2.2539,-2.2886,-2.3062,-2.3091,-2.3091,0.0,0.0,0.0,0.0,0.0,0.0,0.0,0.0,0.0,0.0,0.0,0.0,0.0,-2.3091,-2.3091,-2.3091,-2.3188,-2.3672,-2.4072,-2.4482,-2.4998,-2.4888,0.0,-2.5101,-2.502,0.0,-2.4833,0.0,0.0,0.0,-2.435,-2.4202,-2.4202,-2.4202,-2.4202,-2.4202,0.0,-2.4202,-2.4202,-2.4202,-2.4202,-2.4202,-2.4202,-2.4202,-2.4202,-2.4202,-2.4202,-2.4202,-2.4202,-2.4202,-2.4202,-2.4202,-2.4202,-2.4202,-2.4202,-2.4202,-2.4202,-2.4202,-2.4202,-2.4202,-2.4202,-2.4202,-2.4202,-2.439,-2.4529,-2.4587,-2.5088,-2.5333,-2.5333,-2.5586,-2.5693,-2.5693,-2.5693,-2.5693,-2.5693,0.0,0.0,0.0,0.0,0.0,0.0,0.0,0.0,0.0,0.0,0.0,0.0,0.0,0.0,0.0,0.0,0.0,0.0,0.0,0.0,-2.0605,-2.0605,-2.0605,-2.0605,-2.0605,-2.0605,-2.0605,-2.0605,-2.0605,-2.0605,-2.0615,-2.085,-2.1211,-2.166,-2.208,-2.251,-2.2867,-2.3033,-2.3091,-2.3091,-2.3091,-2.3091,0.0,0.0,0.0,0.0,0.0,0.0,0.0,0.0,-2.3091,-2.3091,-2.3091,-2.3091,-2.3091,-2.3091,-2.333,-2.3643,-2.4062,-2.4492,-2.4932,-2.5371,-2.5392,0.0,0.0,-2.5235,-2.5088,-2.4932,-2.4833,0.0,0.0,0.0,-2.439,-2.439,-2.439,-2.439,-2.439,-2.439,-2.439,-2.439,-2.4301,-2.4251,-2.439,-2.4251,-2.4202,-2.4202,-2.4202,-2.4202,-2.4202,-2.4202,-2.4202,-2.4202,-2.4202,-2.4202,-2.4202,-2.4202,-2.4202,-2.4202,-2.4202,-2.4202,-2.4202,-2.4202,-2.4202,-2.4202,-2.4301,-2.4489,-2.4784,-2.499,-2.5235,-2.5538,-2.5635,-2.5693,-2.5693,-2.5693,-2.5693,-2.5693,0.0,0.0,0.0,0.0,0.0,0.0,0.0,0.0,0.0,0.0,0.0,0.0,0.0,0.0,0.0,0.0,0.0,0.0,-1.9223,-2.037,-2.1026,-2.1026,-2.1026,-2.1026,-2.1026,-2.1026,-2.0889,-2.0605,-2.0742,-2.0781,-2.0791,-2.123,-2.167,-2.21,-2.2383,-2.2701,-2.3091,-2.3091,-2.3091,-2.3091,-2.3091,-2.3091,0.0,0.0,0.0,0.0,0.0,0.0,0.0,0.0,-2.3091,-2.3091,-2.3091,-2.3091,-2.3091,-2.3091,-2.3447,-2.3887,-2.4307,-2.4736,-2.5223,-2.5577,0.0,0.0,-2.5489,-2.544,-2.5382,-2.5186,-2.5088,-2.4932,-2.4686,0.0,0.0,0.0,-2.4637,-2.4637,-2.4637,-2.4637,-2.4637,-2.4637,-2.444,-2.4341,-2.4489,-2.4341,-2.4202,-2.4202,-2.4202,-2.4202,-2.4202,-2.4202,-2.4202,-2.4202,-2.4202,-2.4202,-2.4202,-2.4202,-2.4202,-2.4202,-2.4202,-2.4202,-2.4202,-2.4202,-2.4202,-2.4202,-2.4202,-2.4449,-2.4784,-2.4883,-2.5235,-2.5693,-2.5693,-2.5693,-2.5693,-2.5693,-2.5693,-2.5693,0.0,0.0,0.0,0.0,0.0,0.0,0.0,0.0,0.0,0.0,0.0,0.0,0.0,0.0,0.0,0.0,0.0,0.0,-1.9076,-2.0848,-2.1885,-2.1885,-2.1885,-2.1885,-2.1885,-2.1885,-2.1496,-2.0615,-2.1025,-2.12,-2.121,-2.1689,-2.2119,-2.251,-2.2519,-2.2711,-2.3091,-2.3091,-2.3091,-2.3091,-2.3091,-2.3091,-2.3091,0.0,0.0,0.0,0.0,0.0,0.0,0.0,-2.3091,-2.3091,-2.3091,-2.3091,-2.3091,-2.3101,-2.3457,-2.3887,-2.4307,-2.4746,-2.5176,-2.5577,0.0,0.0,-2.5693,-2.5693,-2.5693,-2.5693,-2.5489,-2.5235,-2.4932,-2.4883,0.0,-2.4883,-2.4883,-2.4883,-2.4883,-2.4883,-2.4883,-2.4883,-2.4686,-2.448,-2.448,-2.4341,-2.4202,-2.4202,-2.4202,-2.4202,-2.4202,-2.4202,-2.4202,-2.4202,-2.4202,-2.4202,-2.4202,-2.4202,-2.4202,-2.4202,-2.4202,-2.4202,-2.4202,-2.4202,-2.4202,-2.4202,-2.4202,-2.4341,-2.4529,-2.4784,-2.5235,-2.5693,-2.5693,-2.5693,-2.5693,-2.5693,-2.5693,-2.5693,0.0,0.0,0.0,0.0,0.0,0.0,0.0,0.0,0.0,0.0,0.0,0.0,0.0,0.0,0.0,0.0,0.0,0.0,-1.8137,-1.9221,-2.0165,-2.0806,-2.0848,-2.1191,-2.1885,-2.1885,-2.1758,-2.1494,-2.1631,-2.1689,-2.1699,-2.2129,-2.2393,-2.2519,-2.2822,-2.2984,-2.3091,-2.3091,-2.3091,-2.3091,-2.3091,-2.3091,-2.3091,0.0,0.0,0.0,0.0,0.0,0.0,0.0,0.0,0.0,-2.3091,-2.3091,-2.3149,-2.3506,-2.3896,-2.4326,-2.4756,-2.5205,0.0,-2.5654,0.0,0.0,0.0,-2.5693,0.0,0.0,-2.5635,-2.5489,-2.5235,-2.5186,0.0,-2.5186,-2.5186,-2.5186,-2.5186,-2.5186,-2.5186,-2.5186,-2.4932,-2.4784,-2.4784,-2.4538,-2.4341,-2.4202,-2.4202,-2.4202,-2.4202,-2.4202,-2.4202,-2.4202,-2.4202,-2.4202,-2.4202,-2.4202,-2.4202,-2.4202,-2.4202,-2.4202,-2.4202,-2.4202,-2.4202,-2.4202,-2.4202,-2.4449,-2.4833,-2.5284,-2.5538,-2.5693,-2.5693,-2.5693,-2.5693,-2.5693,-2.5693,-2.5693,0.0,0.0,0.0,0.0,0.0,0.0,0.0,0.0,0.0,0.0,0.0,0.0,0.0,0.0,0.0,0.0,0.0,0.0,0.0,-1.9002,-1.9922,-2.0884,-2.0927,-2.1366,-2.234,-2.2383,-2.2383,-2.2383,-2.2217,-2.2139,-2.2139,-2.2568,-2.2721,-2.273,-2.2984,-2.3091,-2.3091,-2.3091,-2.3091,-2.3091,-2.3091,-2.3091,-2.3091,0.0,0.0,0.0,0.0,0.0,0.0,0.0,0.0,0.0,-2.3091,0.0,-2.3447,-2.3711,-2.4209,-2.4727,-2.5047,-2.54,0.0,-2.5693,-2.5693,-2.5693,-2.5693,0.0,0.0,0.0,-2.5693,-2.5635,-2.5489,-2.544,0.0,-2.544,-2.544,-2.544,-2.544,-2.544,-2.544,-2.544,-2.5235,-2.503,-2.4932,-2.4686,-2.444,-2.4202,-2.4202,-2.4202,-2.4202,-2.4202,-2.4202,-2.4202,-2.4202,-2.4202,-2.4202,-2.4202,-2.4202,-2.4202,-2.4202,-2.4202,-2.4202,-2.4202,-2.4202,-2.4202,-2.4291,-2.4538,-2.4932,-2.5333,-2.5586,-2.5693,-2.5693,-2.5693,-2.5693,-2.5693,-2.5693,-2.5693,0.0,0.0,0.0,0.0,0.0,0.0,0.0,0.0,0.0,0.0,0.0,0.0,0.0,0.0,0.0,0.0,0.0,0.0,0.0,0.0,-2.0376,-2.1373,-2.1606,-2.2148,-2.3091,-2.3091,-2.3091,-2.3091,-2.2711,-2.2568,-2.2578,-2.2916,-2.3091,-2.3091,-2.3091,-2.3091,-2.3091,-2.3091,-2.3091,-2.3091,-2.3091,-2.3091,-2.3091,-2.3091,0.0,0.0,0.0,0.0,0.0,0.0,0.0,0.0,-2.3091,-2.3437,-2.3799,-2.3838,-2.4434,-2.5125,-2.5117,-2.543,0.0,-2.5693,-2.5693,0.0,-2.5693,-2.5693,-2.5693,-2.5693,0.0,-2.5693,-2.5693,-2.5693,-2.5693,-2.5693,-2.5693,-2.5693,-2.5693,-2.5693,-2.5693,-2.5693,-2.5489,-2.5235,-2.4981,-2.4677,-2.444,-2.4251,-2.4202,-2.4202,-2.4202,-2.4202,-2.4202,-2.4202,-2.4202,-2.4202,-2.4202,-2.4202,-2.4202,-2.4202,-2.4202,-2.4202,-2.4202,-2.4202,-2.4202,-2.4202,-2.439,-2.4627,-2.4932,-2.5186,-2.544,-2.5693,-2.5693,-2.5693,-2.5693,-2.5693,-2.5693,-2.5693,0.0,0.0,0.0,0.0,0.0,0.0,0.0,0.0,0.0,0.0,0.0,0.0,0.0,0.0,0.0,0.0,0.0,0.0,0.0,0.0,-1.8373,-1.9384,-2.0881,-2.2148,-2.3091,-2.3091,-2.3091,-2.3091,-2.3003,-2.2955,-2.2964,-2.3052,-2.3091,-2.3091,-2.3091,-2.3091,-2.3091,-2.3091,-2.3091,-2.3091,-2.3091,-2.3091,-2.3091,-2.3091,-2.3091,0.0,0.0,0.0,0.0,0.0,0.0,0.0,-2.3091,-2.3437,-2.3857,-2.418,-2.4658,-2.5194,-2.5498,-2.5615,0.0,0.0,-2.5693,-2.5693,-2.5693,-2.5693,-2.5693,-2.5693,-2.5693,-2.5693,-2.5693,-2.5693,-2.5693,-2.5693,-2.5693,-2.5693,-2.5693,-2.5693,-2.5693,-2.5693,-2.5645,-2.5489,-2.5235,-2.4981,-2.4686,-2.443,-2.4301,-2.4202,-2.4202,-2.4202,-2.4202,-2.4202,-2.4202,-2.4202,-2.4202,-2.4202,-2.4202,-2.4202,-2.4202,-2.4202,-2.4202,-2.4202,-2.4202,-2.4202,-2.439,-2.4627,-2.4932,-2.5186,-2.544,-2.5693,-2.5693,-2.5693,-2.5693,-2.5693,-2.5693,-2.5693,0.0,0.0,0.0,0.0,0.0,0.0,0.0,0.0,0.0,0.0,0.0,0.0,0.0,0.0,0.0,0.0,0.0,0.0,0.0,0.0,-1.7963,-1.9422,-2.0917,-2.2148,-2.3091,-2.3091,-2.3091,-2.3091,-2.3091,-2.3091,-2.3091,-2.3091,-2.3091,-2.3091,-2.3091,-2.3091,-2.3091,-2.3091,-2.3091,-2.3091,-2.3091,-2.3091,-2.3091,-2.3091,-2.3091,-2.3091,-2.3091,0.0,0.0,0.0,0.0,0.0,0.0,0.0,-2.4443,-2.4658,-2.5039,-2.5439,-2.5625,0.0,0.0,-2.5693,0.0,-2.5693,-2.5693,-2.5693,-2.5693,-2.5693,-2.5693,-2.5693,-2.5693,-2.5693,-2.5693,-2.5693,-2.5693,-2.5693,-2.5693,-2.5693,-2.5693,-2.5693,-2.5693,-2.5586,-2.5342,-2.5088,-2.4784,-2.4529,-2.4291,-2.4202,-2.4202,-2.4202,-2.4202,-2.4202,-2.4202,-2.4202,-2.4202,-2.4202,-2.4202,-2.4202,-2.4202,-2.4202,-2.4202,-2.4202,-2.4202,-2.4202,-2.4301,-2.4489,-2.4735,-2.4981,-2.5284,-2.5538,-2.5645,-2.5693,-2.5693,-2.5693,-2.5693,-2.5693,0.0,0.0,0.0,0.0,0.0,0.0,0.0,0.0,0.0,0.0,0.0,0.0,0.0,0.0,0.0,0.0,0.0,0.0,0.0,0.0,0.0,-1.9869,-2.0737,-2.1739,-2.2818,-2.2872,-2.296,-2.3091,-2.3091,-2.3091,-2.3091,-2.3091,-2.3091,-2.3091,-2.3091,-2.3091,-2.3091,-2.3091,-2.3091,-2.3091,-2.3091,-2.3091,-2.3091,-2.3091,-2.314,-2.3208,-2.3208,-2.3257,-2.3315,-2.3315,0.0,0.0,0.0,0.0,-2.5116,-2.5116,-2.5381,-2.5693,-2.5693,0.0,-2.5693,-2.5693,-2.5693,0.0,-2.5693,-2.5693,-2.5693,-2.5693,-2.5693,-2.5693,-2.5693,-2.5693,-2.5693,-2.5693,-2.5693,-2.5693,-2.5693,-2.5693,-2.5693,-2.5693,-2.5693,-2.5586,-2.5382,-2.5088,-2.4784,-2.4587,-2.4341,-2.4202,-2.4202,-2.4202,-2.4202,-2.4202,-2.4202,-2.4202,-2.4202,-2.4202,-2.4202,-2.4202,-2.4202,-2.4202,-2.4202,-2.4202,-2.4202,-2.4202,-2.4202,-2.4291,-2.4529,-2.4784,-2.5088,-2.5342,-2.5586,-2.5693,-2.5693,-2.5693,-2.5693,-2.5693,0.0,0.0,0.0,0.0,0.0,0.0,0.0,0.0,0.0,0.0,0.0,0.0,0.0,0.0,0.0,0.0,0.0,0.0,0.0,0.0,0.0,-1.8926,-1.9109,-2.0014,-2.1837,-2.1882,-2.228,-2.3091,-2.3091,-2.3091,-2.3091,-2.3091,-2.3091,-2.3091,-2.3091,-2.3091,-2.3091,-2.3091,-2.3091,-2.3091,-2.3091,-2.3091,-2.3091,-2.3091,-2.3335,-2.3701,-2.3701,-2.3935,-2.4248,-2.4248,-2.4287,0.0,0.0,0.0,-2.5116,-2.5116,-2.5381,-2.5693,0.0,0.0,-2.5693,0.0,-2.5693,-2.5693,0.0,0.0,-2.5693,0.0,-2.5693,-2.5693,-2.5693,-2.5693,-2.5693,-2.5693,-2.5693,-2.5693,-2.5693,-2.5693,-2.5693,-2.5693,-2.5693,-2.5693,-2.5635,-2.5186,-2.4883,-2.4833,-2.4449,-2.4202,-2.4202,-2.4202,-2.4202,-2.4202,-2.4202,-2.4202,-2.4202,-2.4202,-2.4202,-2.4202,-2.4202,-2.4202,-2.4202,-2.4202,-2.4202,-2.4202,-2.4202,-2.4291,-2.4529,-2.4784,-2.5088,-2.5342,-2.5586,-2.5693,-2.5693,-2.5693,-2.5693,-2.5693,0.0,0.0,0.0,0.0,0.0,0.0,0.0,0.0,0.0,0.0,0.0,0.0,0.0,0.0,0.0,0.0,0.0,0.0,0.0,0.0,0.0,-1.8742,-1.8788,-1.9695,-2.165,-2.1695,-2.2148,-2.3091,-2.3091,-2.3091,-2.3091,-2.3091,-2.3091,-2.3091,-2.3091,-2.3091,-2.3091,-2.3091,-2.3091,-2.3091,-2.3091,-2.3247,-2.3506,-2.3506,-2.3769,-2.4141,-2.4141,-2.4258,-2.4414,-2.4414,-2.458,-2.4785,-2.4785,0.0,0.0,0.0,-2.5586,-2.5693,-2.5693,-2.5693,-2.5693,0.0,-2.5693,-2.5693,-2.5693,0.0,-2.5693,-2.5693,-2.5693,-2.5693,-2.5693,-2.5693,-2.5693,-2.5693,-2.5693,-2.5693,-2.5693,-2.5693,-2.5693,-2.5693,-2.5693,-2.5693,-2.5693,-2.5333,-2.5088,-2.4932,-2.4587,-2.4341,-2.4202,-2.4202,-2.4202,-2.4202,-2.4202,-2.4202,-2.4202,-2.4202,-2.4202,-2.4202,-2.4202,-2.4202,-2.4202,-2.4202,-2.4202,-2.4202,-2.4202,-2.4251,-2.4341,-2.4587,-2.4833,-2.5088,-2.5382,-2.5586,-2.5693,-2.5693,-2.5693,-2.5693,0.0,0.0,0.0,0.0,0.0,0.0,0.0,0.0,0.0,0.0,0.0,0.0,0.0,0.0,0.0,0.0,0.0,0.0,0.0,0.0,0.0,-1.838,-1.8427,-1.933,-2.1284,-2.1329,-2.1917,-2.3091,-2.3091,-2.3091,-2.3091,-2.3091,-2.3091,-2.3091,-2.3091,-2.3091,-2.3091,-2.3091,-2.3091,-2.311,-2.3218,-2.3496,-2.3799,-2.3906,-2.4209,-2.458,-2.458,-2.4658,-2.4746,-2.4746,-2.4971,-2.5234,-2.5234,-2.5469,0.0,0.0,0.0,-2.5693,0.0,0.0,-2.5693,-2.5693,-2.5693,-2.5693,0.0,0.0,-2.5693,0.0,-2.5693,-2.5693,-2.5693,-2.5693,-2.5693,-2.5693,-2.5693,-2.5693,-2.5693,-2.5693,-2.5693,-2.5693,-2.5693,-2.5693,-2.5693,-2.544,-2.5186,-2.4932,-2.4627,-2.439,-2.4202,-2.4202,-2.4202,-2.4202,-2.4202,-2.4202,-2.4202,-2.4202,-2.4202,-2.4202,-2.4202,-2.4202,-2.4202,-2.4202,-2.4202,-2.4202,-2.4202,-2.4202,-2.4202,-2.444,-2.4637,-2.4833,-2.5186,-2.544,-2.5586,-2.5684,-2.5693,-2.5693,0.0,0.0,0.0,0.0,0.0,0.0,0.0,0.0,0.0,0.0,0.0,0.0,-1.7279,-1.7279,-1.7279,-1.7279,-1.7279,0.0,0.0,0.0,0.0,-1.7372,-1.7372,0.0,-2.0232,-2.0277,-2.1186,-2.3091,-2.3091,-2.3091,-2.3091,-2.3091,-2.3091,-2.3091,-2.3091,-2.3091,-2.3091,-2.3091,-2.3091,-2.313,-2.3584,-2.3769,-2.3838,-2.4228,-2.4658,-2.5077,-2.5077,-2.5303,-2.5615,-2.5615,-2.5635,-2.5654,-2.5654,-2.5674,-2.5693,0.0,0.0,0.0,0.0,-2.5693,0.0,-2.5693,0.0,0.0,0.0,0.0,-2.5693,-2.5693,-2.5693,-2.5693,-2.5693,-2.5693,-2.5693,-2.5693,-2.5693,-2.5693,-2.5693,-2.5693,-2.5693,-2.5693,-2.5693,-2.5693,-2.5693,-2.544,-2.5186,-2.4932,-2.4627,-2.439,-2.4202,-2.4202,-2.4202,-2.4202,-2.4202,-2.4202,-2.4202,-2.4202,-2.4202,-2.4202,-2.4202,-2.4202,-2.4202,-2.4202,-2.4202,-2.4202,-2.4202,-2.4202,-2.4202,-2.444,-2.4538,-2.4578,-2.5088,-2.5294,-2.5333,-2.5586,-2.5693,-2.5693,0.0,0.0,0.0,0.0,0.0,0.0,0.0,0.0,0.0,0.0,0.0,0.0,0.0,-1.7279,-1.7279,-1.7279,-1.7279,0.0,0.0,0.0,0.0,-1.7279,-1.7279,-1.7917,-1.9285,-1.9285,-2.024,-2.2192,-2.2192,-2.2511,-2.3091,-2.3091,-2.3091,-2.3091,-2.3091,-2.3091,-2.311,-2.3437,-2.3555,-2.3594,-2.4023,-2.4365,-2.4675,-2.4775,-2.5107,-2.5498,-2.5498,-2.5605,-2.5693,-2.5693,-2.5693,-2.5693,-2.5693,-2.5693,-2.5693,-2.5693,-2.5693,0.0,0.0,0.0,0.0,-2.5693,-2.5693,-2.5693,-2.5693,-2.5693,-2.5693,-2.5693,-2.5693,-2.5693,-2.5693,-2.5693,-2.5693,-2.5693,-2.5693,-2.5693,-2.5693,-2.5693,-2.5693,-2.5693,-2.5693,-2.5693,-2.5693,-2.5586,-2.5382,-2.4932,-2.4833,-2.4587,-2.4202,-2.4202,-2.4202,-2.4202,-2.4202,-2.4202,-2.4202,-2.4202,-2.4202,-2.4202,-2.4202,-2.4202,-2.4202,-2.4202,-2.4202,-2.4202,-2.4202,-2.4202,-2.4202,-2.4301,-2.439,-2.4529,-2.4883,-2.5137,-2.5333,-2.5586,-2.5693,-2.5693,0.0,0.0,0.0,0.0,0.0,0.0,0.0,0.0,0.0,-1.7279,0.0,0.0,0.0,0.0,-1.7279,-1.7279,-1.7279,-1.7279,-1.7279,-1.7279,-1.7279,-1.7279,-1.7279,-1.7785,-1.8788,-1.8788,-1.9741,-2.1695,-2.1695,-2.2192,-2.3091,-2.3091,-2.3091,-2.3091,-2.3091,-2.3091,-2.312,-2.3603,-2.3789,-2.3838,-2.4404,-2.4805,-2.5135,-2.5234,-2.5478,-2.5693,-2.5693,-2.5693,-2.5693,-2.5693,-2.5693,-2.5693,-2.5693,-2.5693,-2.5693,-2.5693,-2.5693,0.0,-2.5693,0.0,0.0,0.0,0.0,-2.5693,-2.5693,0.0,-2.5693,-2.5693,-2.5693,-2.5693,-2.5693,-2.5693,-2.5693,-2.5693,-2.5693,-2.5693,-2.5693,-2.5693,-2.5693,-2.5693,-2.5693,-2.5693,-2.5693,-2.5693,-2.5489,-2.5088,-2.4932,0.0,-2.4341,-2.4251,-2.3994,-2.3646,-2.3994,-2.4003,-2.3646,-2.4003,-2.4202,-2.4202,-2.4202,-2.4202,-2.4202,-2.4202,-2.4202,-2.4202,-2.4202,-2.4202,-2.4202,-2.4202,-2.4341,-2.4538,-2.4784,-2.5088,-2.5333,-2.5586,-2.5693,-2.5693,0.0,0.0,0.0,0.0,0.0,0.0,0.0,0.0,-1.7279,-1.7279,0.0,0.0,0.0,0.0,0.0,-1.7279,-1.7279,-1.7279,-1.7279,-1.7279,-1.7279,-1.7279,0.0,0.0,0.0,-1.8788,-1.9741,-2.1695,-2.1695,-2.2192,-2.3091,-2.3091,-2.3091,-2.3091,-2.3091,-2.3101,-2.314,-2.3623,-2.3818,-2.3896,-2.4746,-2.5135,-2.5184,-2.5566,-2.5693,-2.5693,-2.5693,-2.5693,-2.5693,-2.5693,-2.5693,-2.5693,-2.5693,-2.5693,-2.5693,-2.5693,-2.5693,-2.5693,0.0,0.0,0.0,0.0,0.0,0.0,-2.5693,0.0,-2.5693,-2.5693,-2.5693,-2.5693,-2.5693,-2.5693,-2.5693,-2.5693,-2.5693,-2.5693,-2.5693,-2.5693,-2.5693,-2.5693,-2.5693,-2.5693,-2.5693,-2.5693,-2.5586,-2.5333,-2.503,-2.4784,-2.4529,-2.4301,-2.3696,-2.2526,-2.3596,-2.3646,-2.2526,-2.3596,-2.4152,-2.4202,-2.4202,-2.4202,-2.4202,-2.4202,-2.4202,-2.4202,-2.4202,-2.4202,-2.4202,-2.4202,-2.4341,-2.4538,-2.4784,-2.5088,-2.5333,-2.5586,-2.5693,-2.5693,0.0,0.0,0.0,0.0,0.0,0.0,-1.7279,-1.7279,-1.7279,0.0,0.0,0.0,-1.7279,-1.7279,-1.7279,-1.7279,-1.7279,-1.7279,-1.7279,-1.7279,-1.7279,-1.7279,-1.7279,-1.7785,-1.8788,-1.8788,-1.9741,-2.1695,-2.1695,-2.2192,-2.3091,-2.3091,-2.3091,-2.3091,-2.3091,-2.3276,-2.3633,-2.4062,-2.4424,-2.4812,-2.5322,-2.5557,-2.5566,-2.5645,-2.5693,-2.5693,-2.5693,-2.5693,-2.5693,-2.5693,-2.5693,-2.5693,-2.5693,-2.5693,-2.5693,-2.5693,-2.5693,-2.5693,-2.5693,0.0,0.0,0.0,0.0,0.0,0.0,0.0,-2.5693,-2.5693,-2.5693,-2.5693,-2.5693,-2.5693,-2.5693,-2.5693,-2.5693,-2.5693,-2.5693,-2.5693,-2.5693,-2.5693,-2.5693,-2.5693,-2.5693,-2.5693,-2.5586,0.0,-2.503,-2.4784,-2.4529,-2.4301,-2.3696,-2.2526,-2.2837,-2.2828,-2.2476,-2.2828,-2.3388,-2.4202,-2.4202,-2.4202,-2.4202,-2.4202,-2.4202,-2.4202,-2.4202,-2.4202,-2.4202,-2.4202,-2.4341,-2.4538,-2.4784,-2.5088,-2.5333,-2.5586,-2.5693,-2.5693,0.0,0.0,0.0,0.0,0.0,-1.7279,-1.7279,-1.7279,-1.7279,0.0,0.0,0.0,-1.7279,-1.7279,-1.7279,-1.7279,-1.7279,-1.7279,-1.7279,-1.7279,-1.7279,-1.7279,-1.7692,-1.8195,-1.8796,-1.9193,-2.015,-2.1695,-2.1695,-2.2192,-2.3091,-2.3091,-2.3091,-2.3091,0.0,0.0,-2.4072,-2.4316,-2.4668,-2.5155,-2.5557,-2.5693,-2.5693,-2.5693,-2.5693,-2.5693,-2.5693,-2.5693,-2.5693,-2.5693,-2.5693,-2.5693,-2.5693,-2.5693,-2.5693,-2.5693,-2.5693,-2.5693,-2.5693,-2.5693,-2.5693,-2.5693,0.0,0.0,-2.5693,-2.5693,-2.5693,0.0,-2.5693,-2.5693,-2.5693,-2.5693,-2.5693,-2.5693,-2.5693,-2.5693,-2.5693,-2.5693,-2.5693,-2.5693,-2.5693,-2.5693,-2.5693,-2.5693,-2.5635,-2.5489,-2.5137,-2.4735,-2.439,-2.3786,-2.2979,-2.1861,-2.181,-2.1599,-2.1132,-2.2064,-2.2828,-2.3488,-2.3954,-2.4202,-2.4202,-2.4202,-2.4202,-2.4202,-2.4202,-2.4202,-2.4202,-2.4202,-2.439,-2.4677,-2.4981,-2.5235,-2.5489,-2.5635,-2.5693,-2.5693,0.0,0.0,-1.7279,-1.7279,-1.7279,-1.7279,-1.7279,-1.7279,-1.7279,0.0,-1.7279,-1.7279,-1.7279,-1.7279,-1.7279,-1.7279,-1.7279,-1.7279,-1.7279,-1.7279,-1.7279,-1.7279,-1.8149,-1.8696,-1.8788,-1.9604,-2.0602,-2.1695,-2.1695,-2.2192,-2.3091,-2.3091,-2.3091,-2.3091,0.0,0.0,0.0,-2.4473,-2.4736,-2.5176,-2.5576,-2.5693,-2.5693,-2.5693,-2.5693,-2.5693,-2.5693,-2.5693,-2.5693,-2.5693,-2.5693,-2.5693,-2.5693,-2.5693,-2.5693,-2.5693,-2.5693,-2.5693,-2.5693,-2.5693,-2.5693,-2.5693,-2.5693,0.0,-2.5693,-2.5693,-2.5693,0.0,-2.5693,-2.5693,-2.5693,-2.5693,-2.5693,-2.5693,-2.5693,-2.5693,-2.5693,-2.5645,-2.5615,-2.5615,-2.5567,-2.5538,-2.5538,-2.5586,-2.5615,-2.5615,-2.5157,-2.4695,-2.4251,-2.3094,-2.1946,-2.0872,-2.0688,-2.0153,-1.9125,-2.1071,-2.2147,-2.2398,-2.3412,-2.3965,-2.4073,-2.4073,-2.4091,-2.4137,-2.4137,-2.4156,-2.4202,-2.4202,-2.4498,-2.4932,-2.5137,-2.544,-2.5693,-2.5693,-2.5693,-2.5693,0.0,-1.7279,-1.7279,-1.7279,-1.7279,-1.7279,-1.7279,-1.7279,-1.7279,-1.7279,-1.7279,-1.7279,-1.7279,-1.7279,-1.7279,-1.7279,-1.7279,-1.7279,-1.7279,-1.7279,-1.7279,-1.7279,-1.7512,-1.7971,-1.8788,-1.8972,-1.9923,-2.1695,-2.1695,-2.2192,-2.3091,-2.3091,-2.3091,-2.311,0.0,0.0,0.0,-2.4785,-2.5195,-2.5567,-2.5654,-2.5693,-2.5693,-2.5693,-2.5693,-2.5693,-2.5693,-2.5693,-2.5693,-2.5693,-2.5693,-2.5693,-2.5693,-2.5693,-2.5693,-2.5693,-2.5693,-2.5693,-2.5693,-2.5693,-2.5693,-2.5693,-2.5693,0.0,-2.5693,-2.5693,-2.5693,0.0,-2.5693,-2.5693,-2.5693,-2.5693,-2.5693,-2.5693,-2.5693,-2.5693,-2.5693,-2.543,-2.5195,-2.5195,-2.4883,-2.4631,-2.4631,-2.5,-2.5195,-2.5195,-2.5034,-2.4695,-2.4251,-2.292,-2.1652,-2.0506,-1.9449,-1.8766,-1.8567,-1.8964,-2.0043,-2.1707,-2.19,-2.2446,-2.3142,-2.3142,-2.3316,-2.3657,-2.3657,-2.3849,-2.4202,-2.439,-2.4637,-2.4883,-2.4981,-2.5284,-2.5693,-2.5693,-2.5693,-2.5693,-1.7279,-1.7279,-1.7279,-1.7279,-1.7279,-1.7279,-1.7279,-1.7279,-1.7279,-1.7279,-1.7472,-1.7633,-1.7794,-1.7816,-1.7816,-1.7816,-1.7816,-1.7816,-1.7816,-1.7816,-1.7816,-1.7816,-1.8123,-1.8543,-1.905,-1.9841,-2.0737,-2.1695,-2.2148,-2.2643,-2.3091,-2.3091,-2.3208,-2.3467,-2.3691,0.0,0.0,-2.5018,-2.5322,-2.5693,-2.5693,-2.5382,-2.4962,-2.5479,-2.5382,-2.4962,-2.5528,-2.5693,-2.5693,-2.5693,-2.5693,-2.5693,-2.5693,-2.5693,-2.5693,-2.5693,-2.5693,-2.5693,-2.5693,-2.5693,-2.5693,-2.5693,-2.5693,0.0,0.0,-2.5693,-2.5693,-2.5693,-2.5693,-2.5693,-2.5693,-2.5693,-2.5693,-2.5693,-2.5693,-2.5693,-2.5693,-2.5352,-2.5116,-2.5116,-2.4687,-2.4414,-2.4414,-2.4609,-2.4699,-2.4549,-2.4421,-2.4125,-2.3749,-2.1959,-2.0663,-2.0132,-1.8449,-1.7541,-1.7541,-1.8136,-1.9154,-2.0651,-2.1236,-2.1977,-2.2904,-2.2904,-2.3014,-2.3197,-2.3197,-2.3316,-2.3574,-2.3864,-2.4182,-2.4453,-2.4905,-2.5342,-2.5693,-2.5693,-2.5693,-2.5693,-1.7279,-1.7279,-1.7301,-1.7413,-1.7421,-1.7443,-1.7461,-1.7468,-1.7468,-1.7468,-1.7743,-1.8013,-1.8277,-1.8299,-1.8299,-1.8299,-1.8299,-1.8299,-1.8299,-1.8299,-1.8299,-1.8299,-1.8812,-1.9185,-1.9415,-2.0709,-2.1563,-2.1969,-2.2704,-2.3158,-2.3335,-2.3335,-2.3574,-2.3916,0.0,0.0,0.0,-2.5166,-2.5304,-2.5372,-2.5372,-2.502,-2.4501,-2.5372,-2.5177,-2.4501,-2.5382,-2.5693,-2.5693,-2.5693,-2.5693,-2.5693,-2.5693,-2.5693,-2.5693,-2.5693,-2.5693,-2.5693,-2.5693,-2.5693,-2.5693,-2.5693,-2.5693,-2.5693,0.0,0.0,0.0,-2.5693,0.0,0.0,0.0,0.0,0.0,0.0,0.0,0.0,0.0,-2.5225,0.0,-2.4988,-2.4482,-2.417,-2.417,-2.4248,-2.4188,-2.4025,-2.3812,-2.3495,-2.3036,-2.092,-1.9613,-1.9427,-1.7534,-1.654,-1.654,-1.7464,-1.8379,-1.9333,-2.0253,-2.1268,-2.2386,-2.2386,-2.2525,-2.2785,-2.2785,-2.2831,-2.2931,-2.3251,-2.3572,-2.3954,-2.4888,-2.5391,-2.5635,-2.5684,-2.5693,-2.5693,-1.7279,-1.7279,-1.7374,-1.7706,-1.7757,-1.7852,-1.8145,-1.8196,-1.8196,-1.8196,-1.8225,-1.8262,-1.8299,-1.8299,-1.8299,-1.8299,-1.8299,-1.8299,-1.8299,-1.8299,-1.8299,-1.8299,-1.8361,-1.8871,-1.9821,-2.0015,-2.0996,-2.2852,-2.2945,-2.3419,-2.4268,-2.4268,-2.4297,-2.4365,-2.4756,-2.5028,0.0,-2.5488,-2.5129,-2.4295,-2.4295,-2.4756,-2.5528,-2.5635,-2.5635,-2.5528,-2.5635,-2.5693,-2.5693,-2.5693,-2.5693,-2.5693,-2.5693,-2.5693,-2.5693,-2.5693,-2.5693,-2.5693,-2.5693,-2.5693,-2.5693,-2.5693,-2.5693,-2.5693,-2.5693,0.0,-2.5693,-2.5693,0.0,-2.5693,-2.5693,0.0,0.0,0.0,0.0,0.0,-2.5205,-2.4766,-2.4492,-2.4492,-2.3734,-2.3237,-2.3237,-2.3633,-2.3923,-2.4006,-2.3812,-2.3196,-2.2046,-2.0384,-1.9027,-1.8134,-1.6676,-1.5878,-1.5878,-1.6021,-1.6585,-1.7569,-1.7717,-1.8776,-2.0614,-2.0614,-2.1216,-2.2355,-2.2355,-2.2565,-2.2913,-2.2959,-2.3251,-2.3777,-2.4629,-2.5088,-2.5382,-2.5586,-2.5693,-2.5693,-1.7611,-1.7611,-1.7713,-1.8043,-1.8101,-1.8145,-1.8284,-1.8299,-1.8372,-1.8562,-1.8584,-1.8657,-1.8847,-1.8869,-1.8869,-1.8869,-1.8869,-1.8869,-1.8869,-1.8869,-1.8869,-1.8869,-1.8686,-1.907,-2.0188,-2.0564,-2.1505,-2.299,-2.356,-2.4034,-2.4414,-2.4414,-2.4551,-2.4805,-2.5028,-2.5215,-2.5469,-2.5615,-2.543,-2.4962,-2.4344,-2.4344,-2.4707,-2.4057,-2.4205,-2.4864,-2.5479,-2.5693,-2.5693,-2.5693,-2.5693,-2.5693,-2.5693,-2.5693,-2.5693,-2.5693,-2.5869,-2.6113,-2.6113,-2.6289,-2.6416,-2.6182,-2.6113,-2.6045,-2.5742,-2.5693,-2.5693,-2.5693,0.0,0.0,0.0,0.0,0.0,0.0,-2.54,0.0,0.0,0.0,-2.4141,0.0,0.0,0.0,-2.3091,-2.3257,-2.3442,-2.3473,-2.3133,-2.249,-2.1403,-1.9865,-1.859,-1.757,-1.6408,-1.5784,-1.5784,-1.5784,-1.6298,-1.7279,-1.7279,-1.8334,-2.0294,-2.0294,-2.0896,-2.1934,-2.1934,-2.2034,-2.2217,-2.2446,-2.2769,-2.3195,-2.3928,-2.4593,-2.5237,-2.5596,-2.5693,-2.5693,-1.8064,-1.8013,-1.805,-1.8379,-1.8438,-1.8467,-1.8555,-1.8569,-1.8657,-1.8891,-1.8921,-1.9016,-1.925,-1.9279,-1.9279,-1.9279,-1.9279,-1.9279,-1.9279,-1.9279,-1.9279,-1.9279,-1.9346,-1.9864,-2.0947,-2.1718,-2.2643,-2.3767,-2.4437,-2.4775,-2.4775,-2.4775,-2.4951,-2.5254,-2.5254,-2.5276,-2.5274,-2.5274,-2.4922,-2.4322,-2.3543,-2.3044,-2.2785,-2.2885,-2.3434,-2.4245,-2.5323,-2.5693,-2.5693,-2.5693,-2.5693,0.0,-2.583,-2.5869,-2.5888,-2.6005,-2.6309,-2.6562,-2.6562,-2.6787,-2.6943,-2.6641,-2.6562,-2.6445,-2.6016,-2.5869,-2.5879,-2.5713,-2.5693,0.0,0.0,0.0,-2.5508,-2.5343,0.0,-2.4853,0.0,-2.4189,0.0,0.0,0.0,0.0,0.0,-2.3091,-2.3091,-2.3091,-2.2662,-2.1882,-2.0629,-1.9467,-1.8195,-1.6904,-1.6157,-1.5784,-1.5784,-1.5784,-1.6157,-1.6904,-1.6904,-1.7963,-1.9886,-1.9886,-2.0529,-2.1696,-2.1696,-2.1696,-2.1714,-2.2088,-2.2389,-2.2698,-2.335,-2.4063,-2.4766,-2.5215,-2.5449,-2.5557,-1.8694,-1.8503,-1.8394,-1.8716,-1.8774,-1.8877,-1.9199,-1.9294,-1.925,-1.9257,-1.9257,-1.9264,-1.9279,-1.9279,-1.9279,-1.9279,-1.9279,-1.9279,-1.9279,-1.9279,-1.9279,-1.9279,-2.0269,-2.132,-2.2416,-2.3457,-2.4562,-2.5596,-2.5645,-2.5645,0.0,0.0,-2.5654,-2.5664,-2.5664,-2.5109,-2.4137,-2.4137,-2.2944,-2.1038,-2.1038,-2.038,-1.9776,0.0,-2.4088,-2.4245,-2.5323,0.0,0.0,-2.5693,-2.5693,0.0,0.0,0.0,0.0,0.0,0.0,0.0,0.0,0.0,-2.7012,-2.6992,-2.6992,-2.6885,-2.6465,-2.6367,-2.625,-2.5771,-2.5693,-2.5693,-2.5693,-2.5381,-2.4951,-2.4531,-2.4443,0.0,0.0,0.0,0.0,0.0,0.0,0.0,0.0,-2.3091,-2.3091,-2.3091,-2.2662,-2.1561,-1.9633,-1.9055,-1.7909,-1.592,-1.5825,-1.5784,-1.5784,-1.5784,-1.5825,-1.5825,-1.5825,-1.6889,-1.8834,-1.8834,-1.9894,-2.1696,-2.1696,-2.1696,-2.1741,-2.1982,-2.2248,-2.2498,-2.314,-2.3583,-2.3887,-2.4307,-2.4727,-2.5135,-1.9052,-1.9023,-1.8979,-1.9096,-1.9111,-1.9147,-1.9257,-1.9279,-1.9279,-1.9279,-1.9279,-1.9279,-1.9279,-1.9279,-1.9279,-1.9279,-1.9279,-1.9279,-1.9279,-1.9279,-1.9279,-1.9279,-2.0336,-2.1387,-2.2484,-2.3534,-2.4609,-2.5693,-2.5693,-2.5693,0.0,0.0,0.0,0.0,0.0,-2.5118,0.0,0.0,0.0,0.0,0.0,-2.0571,-1.9783,0.0,-2.2433,-2.3185,-2.4254,-2.5118,0.0,-2.5693,-2.5693,-2.5713,-2.5908,-2.5957,-2.6045,-2.6475,-2.6797,-2.708,0.0,0.0,-2.7793,-2.7519,0.0,0.0,-2.6553,-2.6387,-2.6269,-2.5781,-2.5508,-2.5293,-2.5293,-2.4932,-2.459,-2.4443,-2.418,-2.3955,0.0,0.0,0.0,-2.3359,-2.3188,0.0,0.0,0.0,-2.3091,-2.3091,-2.2838,-2.1748,-1.9633,-1.9185,-1.8041,-1.5872,-1.5784,-1.5784,-1.5784,-1.5784,-1.5784,-1.5784,-1.5784,-1.685,-1.8788,-1.8788,-1.9849,-2.1696,-2.1696,-2.1696,-2.1741,-2.2008,-2.223,-2.2451,-2.2869,-2.3138,-2.3403,-2.416,-2.4512,-2.4639,-1.9235,-1.9279,-1.9279,-1.9279,-1.9279,-1.9279,-1.9279,-1.9279,-1.9279,-1.9279,-1.9279,-1.9279,-1.9279,-1.9279,-1.9279,-1.9279,-1.9279,-1.9279,-1.9279,-1.9279,-1.9279,-1.9279,-2.0336,-2.1234,-2.1937,-2.3335,-2.4452,-2.5118,-2.5528,-2.5693,0.0,0.0,0.0,0.0,0.0,-2.4873,-2.3534,-2.3534,-2.2909,0.0,0.0,-2.0363,0.0,0.0,-2.0987,-2.2089,0.0,-2.3998,-2.4618,-2.502,-2.5118,-2.5254,-2.5771,-2.5662,-2.5542,-2.6384,-2.6543,-2.6599,-2.725,-2.7637,0.0,-2.75,-2.7432,0.0,-2.6553,0.0,-2.6025,-2.5586,-2.5146,-2.4834,-2.4834,-2.4482,-2.4199,-2.4199,-2.3838,-2.3555,0.0,-2.3276,-2.3091,-2.3091,-2.3091,-2.3091,0.0,-2.3091,-2.3091,-2.3091,-2.2925,-2.1828,-1.9633,-1.9268,-1.8079,-1.5872,-1.5784,-1.5784,-1.5784,-1.5784,-1.5784,-1.5784,-1.5784,-1.6662,-1.8288,-1.8657,-1.9658,-2.123,-2.1553,-2.1731,-2.1874,-2.2097,-2.2353,-2.2574,-2.2794,-2.2969,-2.3169,-2.3715,-2.4062,-2.4219,-1.9323,-1.9323,-1.9323,-1.9323,-1.9308,-1.9294,-1.9279,-1.9286,-1.9294,-1.9279,-1.9279,-1.9279,-1.9279,-1.9279,-1.9279,-1.9279,-1.9279,-1.9279,-1.9279,-1.9279,-1.9279,-1.9279,-2.0336,-2.0885,-2.0885,-2.2985,-2.4088,-2.4088,-2.5167,-2.5693,0.0,0.0,0.0,0.0,-2.5693,0.0,-2.2484,-2.2509,-2.1469,-1.9837,-1.9837,-1.9647,-1.9301,-1.9286,-1.9931,-2.0987,-2.2038,-2.2433,-2.2634,-2.3692,-2.4038,-2.426,-2.5754,-2.5528,-2.4988,-2.6388,-2.6083,-2.5515,-2.6634,-2.691,-2.691,-2.697,-2.7012,0.0,0.0,0.0,-2.5605,0.0,0.0,0.0,0.0,-2.4043,-2.376,-2.376,-2.3408,-2.3091,-2.3091,-2.3091,-2.3091,-2.3091,-2.3091,-2.3091,-2.3091,-2.3091,-2.3091,-2.3091,-2.2925,-2.1828,0.0,-1.9268,-1.8079,-1.5872,-1.5784,-1.5784,-1.5784,-1.5784,-1.5784,-1.5784,-1.5784,-1.6346,-1.7326,-1.8334,-1.9338,-2.0348,-2.1275,-2.1874,-2.2097,-2.2309,-2.2574,-2.2803,-2.3013,-2.3091,-2.3091,-2.3091,-2.3398,-2.3818,-1.9989,-1.9989,-1.9989,-1.9989,-1.9791,-1.961,-1.9368,-1.9536,-1.9603,-1.9308,-1.9279,-1.9279,-1.9279,-1.9279,-1.9279,-1.9279,-1.9279,-1.9279,-1.9279,-1.9279,-1.9279,-1.9279,-2.0336,-2.0885,-2.0885,-2.2985,-2.4088,-2.4088,-2.5167,-2.5693,-2.5693,0.0,0.0,0.0,0.0,-2.452,-2.2509,-2.2792,-2.1788,-2.0113,-2.0113,-1.9923,-1.9669,0.0,-1.948,-1.9828,-2.0936,-2.1836,-2.2534,-2.2835,-2.2885,-2.2961,-2.3368,-2.3294,-2.3221,-2.3905,-2.3918,-2.3988,-2.5398,-2.5801,-2.6017,-2.6807,-2.7012,-2.6816,0.0,0.0,0.0,0.0,0.0,0.0,0.0,0.0,-2.3257,-2.3257,-2.3169,-2.3091,-2.3091,-2.3091,-2.3091,-2.3091,-2.3091,-2.3091,-2.3091,-2.3091,-2.3091,-2.3091,-2.3047,-2.1996,-1.9633,0.0,-1.8303,-1.5879,-1.5784,-1.5784,-1.5784,-1.5784,-1.5784,-1.5784,-1.5784,-1.6346,-1.7326,-1.8334,-1.9338,-2.0348,-2.1275,-2.1874,-2.2097,-2.2309,-2.2574,-2.2803,-2.3013,-2.3091,-2.3091,-2.3091,-2.3169,-2.3276,-1.9813,-1.9813,-1.9813,-1.9813,-1.9784,-1.9757,-1.9566,-1.9573,-1.9536,-1.9301,-1.9279,-1.9279,-1.9279,-1.9279,-1.9279,-1.9279,-1.9279,-1.9279,-1.9279,-1.9279,-1.9279,-1.9279,-1.9879,-2.0181,-2.0181,-2.1836,-2.2935,-2.3384,-2.4461,-2.5226,-2.5693,0.0,0.0,0.0,0.0,-2.4878,-2.3435,-2.2832,-2.1779,-2.0499,-2.0128,-1.9835,0.0,-1.9345,-1.9279,-1.9376,-1.9983,-2.0585,-2.1183,-2.1633,-2.1785,-2.1887,-2.2333,-2.219,-2.1928,-2.2639,-2.2851,-2.3149,-2.4467,-2.5159,-2.5683,-2.6295,-2.6405,-2.6279,-2.5596,-2.5303,-2.4923,0.0,-2.3799,-2.3506,0.0,0.0,0.0,-2.3091,-2.3091,-2.3091,-2.3091,-2.3091,-2.3091,-2.3091,-2.3091,-2.3091,-2.3091,-2.3091,-2.3091,-2.3091,-2.2731,-2.1587,0.0,0.0,-1.7894,-1.5872,-1.5784,-1.5784,-1.5784,-1.5784,-1.5784,-1.5784,-1.5784,-1.6109,-1.6669,-1.8141,-1.9109,-1.9704,-2.1087,-2.1909,-2.223,-2.2353,-2.2618,-2.2925,-2.3057,-2.3091,-2.3091,-2.3091,-2.3091,-2.3091,-1.9403,-1.9403,-1.9403,-1.9403,-1.9601,-1.9815,-1.9815,-1.9573,-1.9323,-1.9331,-1.9279,-1.9279,-1.9279,-1.9279,-1.9279,-1.9279,-1.9279,-1.9279,-1.9279,-1.9279,-1.9279,-1.9279,-1.9279,-1.9279,-1.9279,-2.0328,-2.1438,-2.2484,-2.3583,-2.4658,-2.5693,0.0,0.0,0.0,0.0,0.0,0.0,-2.2747,-2.1491,-2.0679,-2.0061,-1.9625,-1.9279,-1.9279,-1.9279,-1.9279,-1.9279,-1.9279,-1.9428,-2.038,-2.068,-2.0834,-2.1785,-2.1438,-2.0885,-2.1785,-2.2089,-2.2341,-2.3543,-2.4559,-2.5333,-2.5635,-2.5586,-2.5363,-2.4976,-2.4436,-2.3873,-2.3505,-2.3028,-2.2731,-2.2731,0.0,0.0,0.0,0.0,-2.2916,-2.2916,-2.3003,-2.3091,-2.3091,-2.3091,0.0,-2.3091,-2.3091,-2.3091,-2.3091,-2.2325,-2.1186,0.0,0.0,-1.7483,-1.5825,-1.5784,-1.5784,-1.5784,-1.5784,-1.5784,-1.5784,-1.5784,-1.5784,-1.5872,-1.7863,-1.8788,-1.8926,-2.0862,-2.1954,-2.2397,-2.2397,-2.2696,-2.3091,-2.3091,-2.3091,-2.3091,-2.3091,-2.3091,-2.3091,-2.0015,-2.0015,-2.0015,-2.0015,-1.9901,-1.9815,-1.9815,-1.9764,-1.9632,-1.9368,-1.9279,-1.9279,-1.9279,-1.9279,-1.9279,-1.9279,-1.9279,-1.9279,-1.9279,-1.9279,-1.9279,-1.9279,-1.9279,-1.9279,-1.9279,-2.0328,-2.1438,-2.2484,-2.3583,-2.4658,-2.5693,0.0,0.0,0.0,0.0,0.0,-2.373,-2.2527,0.0,-1.9992,-1.9847,-1.9625,-1.9279,-1.9279,-1.9279,-1.9279,-1.9279,-1.9279,-1.9331,-1.9532,-1.9576,-1.9628,-1.9776,-1.9732,-1.9628,-1.9835,-1.9879,-2.0285,-2.224,-2.2944,-2.3502,-2.5284,-2.502,-2.4291,-2.3883,-2.2799,-2.1781,-2.1348,-2.0963,-2.0728,-2.0728,0.0,0.0,0.0,0.0,-2.1971,-2.1971,-2.2599,-2.3091,-2.3091,-2.3091,-2.3091,-2.3091,-2.3091,-2.3091,-2.3091,-2.296,-2.1863,-1.9625,0.0,-1.8164,0.0,-1.5784,-1.5784,0.0,0.0,-1.5784,-1.5784,-1.5784,-1.5784,-1.5872,-1.7863,-1.8788,-1.8926,-2.0862,-2.1954,-2.2397,-2.2397,-2.2696,-2.3091,-2.3091,-2.3091,-2.3091,-2.3091,-2.3091,-2.3091,-1.974,-1.974,-1.974,-1.974,-1.9608,-1.9566,-1.9566,-1.9566,-1.9455,-1.9294,-1.9279,-1.9279,-1.9279,-1.9279,-1.9279,-1.9279,-1.9279,-1.9279,-1.9279,-1.9279,-1.9279,-1.9279,-1.9279,-1.9279,-1.9279,-1.9835,-2.0885,-2.2484,-2.3035,-2.4106,-2.5693,-2.5967,0.0,0.0,0.0,-2.5117,0.0,0.0,0.0,-2.033,-1.9769,-1.9418,-1.9279,-1.9279,-1.9279,-1.9279,-1.9279,-1.9279,-1.9279,-1.9279,-1.9279,-1.9279,-1.9279,-1.9279,-1.9279,-1.9279,-2.0086,-2.1183,-2.224,-2.2894,-2.3592,-2.4609,-2.4048,-2.3134,-2.2549,-2.1883,-2.1208,-2.058,-2.0315,-2.0187,-2.0187,-2.0647,0.0,0.0,0.0,-2.1516,-2.1006,-2.132,-2.1784,-2.2325,-2.1917,-2.1996,-2.3003,-2.2183,-2.1996,-2.3003,-2.2643,-2.1543,-1.9579,0.0,-1.7801,0.0,0.0,0.0,-1.5784,0.0,-1.5784,-1.5784,-1.5784,-1.6062,-1.6629,-1.8102,-1.9063,-1.9658,-2.1221,-2.2087,-2.2441,-2.2652,-2.2882,-2.3091,-2.3091,-2.3091,-2.3091,-2.3091,-2.3091,-2.3091,-1.9279,-1.9279,-1.9279,-1.9279,-1.9279,-1.9279,-1.9279,-1.9279,-1.9279,-1.9279,-1.9279,-1.9279,-1.9279,-1.9279,-1.9279,-1.9279,-1.9279,-1.9279,-1.9279,-1.9279,-1.9279,-1.9279,-1.9279,-1.9279,-1.9279,-1.9279,-2.0233,-2.2139,-2.2139,-2.3253,-2.5382,-2.5719,-2.5931,0.0,0.0,0.0,0.0,0.0,-2.1151,-2.0483,-1.9628,-1.9279,-1.9279,-1.9279,-1.9279,-1.9279,-1.9279,-1.9279,-1.9279,-1.9279,-1.9279,-1.9279,-1.9279,-1.9279,-1.9279,-1.9279,-2.0483,-2.1887,-2.2089,-2.2785,-2.3484,-2.3692,-2.2935,-2.1962,-2.1354,-2.095,-2.0564,-1.9853,-1.9608,-1.9642,-1.9869,-2.0376,0.0,0.0,0.0,0.0,0.0,-2.0367,-2.0737,-2.1329,-2.1051,-2.1275,-2.2369,-2.1463,-2.1373,-2.2687,-2.1917,-2.0827,-1.9588,-1.8764,-1.763,0.0,0.0,-1.6109,-1.6109,0.0,-1.5927,-1.6109,-1.6109,-1.6669,-1.7652,-1.8657,-1.9567,-2.0393,-2.1588,-2.223,-2.253,-2.2925,-2.3091,-2.3091,-2.3091,-2.3091,-2.3091,-2.3091,-2.3091,-2.3091,-1.9279,-1.9279,-1.9279,-1.9279,-1.9279,-1.9279,-1.9279,-1.9279,-1.9279,-1.9279,-1.9279,-1.9279,-1.9279,-1.9279,-1.9279,-1.9279,-1.9279,-1.9279,-1.9279,-1.9279,-1.9279,-1.9279,-1.9279,-1.9279,-1.9279,-1.9279,-1.9879,-2.1038,-2.1038,-2.2139,-2.4245,-2.4282,-2.4563,0.0,0.0,0.0,0.0,-2.1587,-2.069,-1.9428,-1.9324,-1.9279,-1.9279,-1.9279,-1.9279,-1.9279,-1.9279,-1.9279,-1.9279,-1.9279,-1.9279,-1.9279,-1.9279,-1.9279,-1.9279,-1.9279,-1.9428,-1.9828,-2.0783,-2.1132,-2.1438,-2.2391,-2.1836,-2.0934,-2.0592,-1.9532,-1.8483,-1.8078,-1.7767,-1.7831,-1.8742,-1.8241,-1.8241,0.0,0.0,0.0,0.0,0.0,-2.1239,-2.0458,-2.1819,-2.2227,-2.0638,-2.1908,-2.2555,-2.1872,-2.0917,-2.0096,-1.9542,-1.9422,-1.8703,-1.7232,-1.7145,-1.7145,-1.7145,-1.6251,-1.6251,-1.7145,-1.7145,-1.7692,-1.8696,-1.9704,-2.0204,-2.0393,-2.1588,-2.2362,-2.2803,-2.3013,-2.3091,-2.3091,-2.3091,-2.3091,-2.3091,-2.3091,-2.3091,-2.3091,-1.9279,-1.9279,-1.9279,-1.9279,-1.9279,-1.9279,-1.9279,-1.9279,-1.9279,-1.9279,-1.9279,-1.9279,-1.9279,-1.9279,-1.9279,-1.9279,-1.9279,-1.9279,-1.9279,-1.9279,-1.9279,-1.9279,-1.9279,-1.9279,-1.9279,-1.9279,-1.9835,-2.0885,-2.0885,-2.1988,-2.4097,-2.3675,-2.3618,0.0,0.0,-2.2217,-2.1091,-2.0425,-1.9844,-1.9279,-1.9279,-1.9279,-1.9279,-1.9279,-1.9279,-1.9279,-1.9279,-1.9279,-1.9279,-1.9279,-1.9279,-1.9279,-1.9279,-1.9279,-1.9279,-1.9279,-1.9783,-2.0328,-2.0783,-2.0885,-2.0987,-2.1438,-2.0731,-1.9787,-1.9249,-1.8684,-1.8152,-1.7633,-1.7374,-1.7419,-1.7831,-1.8056,-1.8241,-1.8419,0.0,0.0,0.0,0.0,0.0,-1.933,-1.9513,-1.9778,-2.0141,-2.062,-2.1119,0.0,-2.1872,-2.1543,-2.0621,-2.0059,-1.9384,-1.8634,0.0,-1.6911,-1.7552,-1.6386,-1.6298,-1.7279,-1.7279,-1.8149,-1.9704,-2.0113,-2.0754,-2.157,-2.2078,-2.253,-2.2969,-2.3057,-2.3091,-2.3091,-2.3091,-2.3091,-2.3091,-2.3091,-2.3091,-2.3091,-1.9279,-1.9279,-1.9279,-1.9279,-1.9279,-1.9279,-1.9279,-1.9279,-1.9279,-1.9279,-1.9279,-1.9279,-1.9279,-1.9279,-1.9279,-1.9279,-1.9279,-1.9279,-1.9279,-1.9279,-1.9279,-1.9279,-1.9279,-1.9279,-1.9279,-1.9279,-1.968,-2.0431,-2.0431,-2.1387,-2.3144,-2.3003,-2.2775,0.0,-2.165,-2.1004,-2.038,-1.9628,-1.9279,-1.9279,-1.9279,-1.9279,-1.9279,-1.9279,-1.9279,-1.9279,-1.9279,-1.9279,-1.9279,-1.9279,-1.9279,-1.9279,-1.9279,-1.9279,-1.9279,-1.9279,-1.9828,-2.0431,-2.0431,-2.0431,-2.0431,-2.0431,-1.9879,-1.9103,-1.8452,-1.8299,-1.8116,-1.7465,-1.7279,-1.7279,-1.7279,-1.7878,-1.8241,-1.7831,0.0,0.0,0.0,-1.7738,0.0,-1.8288,-1.8241,-1.8465,-1.9285,-1.9505,-1.997,0.0,0.0,-2.1863,-2.0944,-2.024,0.0,0.0,0.0,0.0,-1.7598,-1.6386,-1.6298,-1.7279,-1.7606,-1.865,-2.0294,-2.0664,-2.1436,-2.253,-2.253,-2.275,-2.3091,-2.3091,-2.3091,-2.3091,-2.3091,-2.3091,-2.3091,-2.3091,-2.3091,-2.3091,-1.9279,-1.9279,-1.9279,-1.9279,-1.9279,-1.9279,-1.9279,-1.9279,-1.9279,-1.9279,-1.9279,-1.9279,-1.9279,-1.9279,-1.9279,-1.9279,-1.9279,-1.9279,-1.9279,-1.9279,-1.9279,0.0,-1.9279,-1.9279,-1.9279,-1.9279,-1.9331,-1.9324,0.0,-1.9879,-2.0987,-2.2038,-2.1946,-2.0944,-2.0893,-2.0336,-1.9324,-1.9331,-1.9279,-1.9279,-1.9279,-1.9279,-1.9279,-1.9279,-1.9279,-1.9279,-1.9279,-1.9279,-1.9279,-1.9279,-1.9279,-1.9279,-1.9279,-1.9279,-1.9279,-1.9279,-1.9331,-1.9324,-1.9324,-1.9324,-1.9324,-1.9324,-1.9331,-1.9103,-1.8452,-1.8299,-1.8116,-1.7465,-1.7279,-1.7279,-1.7279,-1.7333,-1.7645,-1.8603,0.0,0.0,0.0,-1.8788,0.0,-1.7419,-1.901,-1.9422,-1.7505,-1.9055,0.0,0.0,0.0,0.0,0.0,0.0,0.0,-1.7785,-1.7692,0.0,-1.7333,-1.6298,-1.6298,-1.7326,-1.8288,-1.9293,-2.0339,-2.1544,-2.2362,-2.2803,-2.2803,-2.2925,-2.3091,-2.3091,-2.3091,-2.3091,-2.3091,-2.3091,-2.3091,-2.3091,-2.3091,-2.3091,-1.9279,-1.9279,-1.9279,-1.9279,-1.9279,-1.9279,-1.9279,-1.9279,-1.9279,-1.9279,-1.9279,-1.9279,-1.9279,-1.9279,-1.9279,0.0,-1.9279,-1.9279,0.0,-1.9279,-1.9279,-1.9279,-1.9279,-1.9279,-1.9279,-1.9279,-1.9279,-1.9279,0.0,0.0,0.0,-2.0885,-2.0834,-1.9835,-1.9835,-1.9628,-1.9279,-1.9279,-1.9279,-1.9279,-1.9279,-1.9279,-1.9279,-1.9279,-1.9279,-1.9279,-1.9279,-1.9279,-1.9279,-1.9279,-1.9279,-1.9279,-1.9279,-1.9279,-1.9279,-1.9279,-1.9279,-1.9279,-1.9279,-1.9279,-1.9279,-1.9279,-1.9279,-1.9103,-1.8452,-1.7955,-1.7582,-1.7323,-1.7279,-1.7279,-1.7279,-1.7279,-1.7419,-1.7738,-1.7512,0.0,-1.7738,0.0,-1.7645,-1.7326,-1.7831,-1.7963,-1.7372,-1.8722,0.0,0.0,0.0,0.0,0.0,0.0,0.0,0.0,-1.7731,0.0,-1.7552,-1.6386,-1.6298,-1.7279,-1.7598,-1.8427,-1.9604,-2.0808,-2.149,-2.1837,-2.2476,-2.2925,-2.3091,-2.3091,-2.3091,-2.3091,-2.3091,-2.3091,-2.3091,-2.3091,-2.3091,-2.3091,-1.9279,-1.9279,-1.9279,-1.9279,-1.9279,-1.9279,-1.9279,-1.9279,-1.9279,-1.9279,-1.9279,-1.9279,-1.9279,-1.9279,0.0,-1.9279,-1.9279,-1.9279,-1.9279,-1.9279,-1.9279,-1.9279,-1.9279,-1.9279,-1.9279,-1.9279,0.0,-1.9279,-1.9279,-1.9279,-1.9324,-1.9983,-1.9931,-1.9279,-1.9279,-1.9279,-1.9279,-1.9279,-1.9279,-1.9279,-1.9279,-1.9279,-1.9279,-1.9279,-1.9279,-1.9279,-1.9279,-1.9279,-1.9279,-1.9279,-1.9279,-1.9279,-1.9279,-1.9279,-1.9279,-1.9279,-1.9279,-1.9279,-1.9279,-1.9279,-1.9279,-1.9279,-1.9279,-1.9103,-1.8452,-1.7801,-1.7279,-1.7279,-1.7279,-1.7279,-1.7279,-1.7279,-1.7279,-1.7279,-1.7279,-1.7279,-1.7279,0.0,-1.7279,0.0,0.0,-1.7279,0.0,-1.8106,-1.8512,0.0,0.0,0.0,0.0,0.0,-1.8796,-1.8804,-1.7372,-1.677,-1.7138,-1.6251,-1.6157,-1.6871,-1.738,-1.8249,-1.9476,-2.0257,-2.0709,-2.0917,-2.1971,-2.2467,-2.2599,-2.296,-2.3091,-2.3091,-2.3091,-2.3091,-2.3091,-2.3091,-2.3091,-2.3091,-1.9345,-1.9323,-1.9308,-1.9308,-1.9346,-1.9279,-1.9279,-1.9279,-1.9279,-1.9279,-1.9279,-1.9279,-1.9279,-1.9279,-1.9279,-1.9279,0.0,0.0,-1.9279,-1.9279,-1.9279,-1.9279,-1.9279,-1.9279,-1.9279,-1.9279,-1.9279,-1.9279,-1.9279,-1.9279,-1.9279,-1.9279,-1.9279,-1.9279,-1.9279,-1.9279,-1.9279,-1.9279,-1.9279,-1.9279,-1.9279,-1.9279,-1.9279,-1.9279,-1.9279,-1.9279,-1.9279,-1.9279,-1.9279,-1.9279,-1.9279,-1.9279,-1.9279,-1.9279,-1.9279,-1.9279,-1.9279,-1.9279,-1.9279,-1.9279,-1.9279,-1.9279,-1.9294,-1.9045,-1.8408,-1.7779,-1.7279,-1.7279,-1.7279,-1.7279,-1.7279,-1.7279,-1.7279,-1.7279,-1.7279,-1.7279,-1.7279,-1.7279,-1.7279,-1.7279,0.0,0.0,-1.7279,-1.7279,-1.7279,0.0,0.0,0.0,0.0,0.0,-1.8156,-1.7026,-1.6784,-1.6501,-1.6218,-1.5974,-1.5974,-1.6224,-1.7434,-1.8627,-1.9712,-1.9803,-1.9977,-2.0277,-2.1284,-2.1739,-2.1872,-2.2731,-2.3091,-2.3091,-2.3091,-2.3091,-2.3091,-2.3091,-2.3091,-2.3091,0.0,0.0,-1.9705,-1.9705,-1.9492,-1.9279,-1.9279,-1.9279,-1.9279,-1.9279,-1.9279,-1.9279,-1.9279,-1.9279,-1.9279,-1.9279,-1.9279,-1.9279,-1.9279,-1.9279,-1.9279,-1.9279,-1.9279,-1.9279,-1.9279,-1.9279,-1.9279,-1.9279,-1.9279,-1.9279,-1.9279,-1.9279,-1.9279,-1.9279,-1.9279,-1.9279,-1.9279,-1.9279,-1.9279,-1.9279,-1.9279,-1.9279,-1.9279,-1.9279,-1.9279,-1.9279,-1.9279,-1.9279,-1.9279,-1.9279,-1.9279,-1.9279,-1.9279,-1.9279,-1.9279,-1.9279,-1.9279,-1.9279,-1.9279,-1.9279,-1.9279,-1.9279,-1.8906,-1.843,-1.8021,-1.7618,-1.7279,-1.7279,-1.7279,-1.7279,-1.7279,-1.7279,-1.7279,-1.7279,-1.7279,-1.7279,-1.7279,-1.7279,-1.7279,0.0,-1.7279,-1.7279,-1.7279,-1.7279,-1.7279,0.0,0.0,-1.7279,-1.7279,-1.7512,-1.7473,-1.7026,-1.6932,-1.6784,-1.6494,-1.644,-1.644,-1.6494,-1.7019,-1.7394,-1.7707,-1.8657,-1.9467,-2.0277,-2.1284,-2.2104,-2.2784,-2.3003,-2.3091,-2.3091,-2.3091,-2.3091,-2.3091,-2.3091,-2.3091,-2.3091,-2.0183,-2.0098,-1.9981,-1.9981,-1.9711,-1.9551,-1.9551,-1.9426,-1.9279,-1.9279,-1.9279,-1.9279,-1.9279,-1.9279,-1.9279,-1.9279,-1.9279,-1.9279,-1.9279,-1.9279,-1.9279,-1.9279,-1.9279,-1.9279,-1.9279,-1.9279,-1.9279,-1.9279,-1.9279,-1.9279,-1.9279,-1.9279,-1.9279,-1.9279,-1.9279,-1.9279,-1.9279,-1.9279,-1.9279,-1.9279,-1.9279,-1.9279,-1.9279,-1.9279,-1.9279,-1.9279,-1.9279,-1.9279,-1.9279,-1.9279,-1.9279,-1.9279,-1.9279,-1.9279,-1.9279,-1.9279,-1.9279,-1.9279,-1.9279,-1.9279,-1.9242,-1.9089,-1.8672,-1.8218,-1.7889,-1.756,-1.7279,-1.7279,-1.7279,-1.7279,-1.7279,-1.7279,-1.7279,-1.7279,-1.7279,-1.7279,-1.7279,-1.7279,-1.7279,-1.7279,-1.7279,-1.7279,-1.7279,-1.7279,-1.7279,-1.7279,-1.7279,0.0,-1.7279,-1.7279,-1.7239,-1.716,-1.7073,-1.6932,-1.6777,-1.6777,-1.6777,-1.6784,-1.7019,-1.716,-1.7153,-1.8295,-1.9063,-1.965,-2.106,-2.1971,-2.2501,-2.2916,-2.3091,-2.3091,-2.3091,-2.2828,-2.2467,-2.2467,-2.2192,-2.1774,-2.0329,-2.0285,-2.0256,-2.0256,-2.0011,-1.9815,-1.9815,-1.9536,-1.9279,-1.9279,-1.9279,-1.9279,-1.9279,-1.9279,-1.9279,-1.9279,-1.9279,-1.9279,-1.9279,-1.9279,-1.9279,-1.9279,-1.9279,-1.9279,-1.9279,-1.9279,-1.9279,-1.9279,-1.9279,-1.9279,-1.9279,-1.9279,-1.9279,-1.9279,-1.9279,-1.9279,-1.9279,-1.9279,-1.9279,-1.9279,-1.9279,-1.9279,-1.9279,-1.9279,-1.9279,-1.9279,-1.9279,-1.9279,-1.9279,-1.9279,-1.9279,-1.9279,-1.9279,-1.9279,-1.9279,-1.9279,-1.9279,-1.9279,-1.9279,-1.9279,-1.9184,-1.8811,-1.8511,-1.8203,-1.783,-1.7476,-1.7279,-1.7279,-1.7279,-1.7279,-1.7279,-1.7279,-1.7279,-1.7279,-1.7279,-1.7279,-1.7279,0.0,-1.7279,-1.7279,-1.7279,-1.7279,-1.7279,-1.7279,-1.7279,-1.7279,-1.7279,-1.7279,-1.7279,-1.7279,-1.7279,-1.7279,-1.7106,-1.7073,-1.7073,-1.7073,-1.7073,-1.7073,-1.7239,-1.7279,-1.7326,-1.8334,-1.888,-1.9109,-2.0926,-2.1695,-2.1739,-2.2555,-2.2775,-2.2643,-2.2643,-2.2183,-2.1472,-2.1472,-2.0917,-2.0187,-2.1057,-2.0837,-2.0647,-2.0647,-2.0157,-1.9815,-1.9815,-1.9536,-1.9279,-1.9279,-1.9279,-1.9279,-1.9279,-1.9279,-1.9279,-1.9279,-1.9279,-1.9279,-1.9279,-1.9279,-1.9279,-1.9279,-1.9279,-1.9279,-1.9279,-1.9279,-1.9279,-1.9279,-1.9279,-1.9279,-1.9279,-1.9279,-1.9279,-1.9279,-1.9279,-1.9279,-1.9279,-1.9279,-1.9279,-1.9279,-1.9279,-1.9279,-1.9279,-1.9279,-1.9279,-1.9279,-1.9279,-1.9279,-1.9279,-1.9279,-1.9279,-1.9279,-1.9279,-1.9279,-1.9279,-1.9279,-1.9279,-1.9279,-1.9279,-1.9279,-1.9133,-1.8525,-1.8343,-1.8145,-1.7538,-1.7315,-1.7279,-1.7279,-1.7279,-1.7279,-1.7279,-1.7279,-1.7279,-1.7279,-1.7279,-1.7279,-1.7279,0.0,-1.7279,-1.7279,-1.7279,-1.7279,-1.7279,-1.7279,-1.7279,-1.7279,-1.7279,-1.7279,-1.7279,-1.7279,-1.7279,-1.7279,-1.7286,-1.7239,-1.7239,-1.7239,-1.7239,-1.7239,-1.7286,-1.7279,-1.7326,-1.8334,-1.9239,-2.0051,-2.1195,-2.1695,-2.1695,-2.1872,-2.1418,-2.0638,-2.0638,-2.0548,-2.0413,-2.0413,-2.0322,-2.0187,-2.1211,-2.1086,-2.0984,-2.0984,-2.045,-2.0018,-2.0018,-1.9601,-1.9279,-1.9279,-1.9279,-1.9279,-1.9279,-1.9279,-1.9279,-1.9279,-1.9279,-1.9279,-1.9279,-1.9279,-1.9279,-1.9279,-1.9279,-1.9279,-1.9279,-1.9279,-1.9279,-1.9279,-1.9279,-1.9279,-1.9279,-1.9279,-1.9279,-1.9279,-1.9279,-1.9279,-1.9279,-1.9279,-1.9279,-1.9279,-1.9279,-1.9279,-1.9279,-1.9279,-1.9279,-1.9279,-1.9279,-1.9279,-1.9279,-1.9279,-1.9279,-1.9279,-1.9279,-1.9279,-1.9279,-1.9279,-1.9279,-1.9279,-1.9279,-1.9147,-1.8899,-1.8423,-1.8167,-1.7918,-1.7388,-1.7279,-1.7279,-1.7279,-1.7279,-1.7279,-1.7279,-1.7279,-1.7279,-1.7279,-1.7279,-1.7279,-1.7279,-1.7279,-1.7279,-1.7279,-1.7279,-1.7279,-1.7279,-1.7279,-1.7279,-1.7279,-1.7279,-1.7279,-1.7279,-1.7279,-1.7279,-1.7279,-1.7279,-1.7279,-1.7279,-1.72,-1.716,-1.716,-1.716,-1.716,-1.72,-1.8295,-1.9063,-1.9513,-2.0466,-2.0872,-2.0872,-2.0872,-2.0638,-2.0187,-2.0187,-1.9869,-1.9467,-1.9467,-1.9101,-1.8642,-2.1211,-2.1211,-2.1189,-2.1108,-2.0618,-2.0161,-2.0135,-1.9638,-1.9279,-1.9279,-1.9279,-1.9279,-1.9279,-1.9279,-1.9279,-1.9279,-1.9279,-1.9279,-1.9279,-1.9279,-1.9279,-1.9279,-1.9279,-1.9279,-1.9279,-1.9279,-1.9279,-1.9279,-1.9279,-1.9279,-1.9279,-1.9279,-1.9279,-1.9279,-1.9279,-1.9279,-1.9279,-1.9279,-1.9279,-1.9279,-1.9279,-1.9279,-1.9279,-1.9279,-1.9279,-1.9279,-1.9279,-1.9279,-1.9279,-1.9279,-1.9279,-1.9279,-1.9279,-1.9279,-1.9279,-1.9279,-1.9279,-1.9279,-1.9279,-1.9038,-1.8708,-1.8379,-1.8057,-1.7728,-1.7399,-1.7279,-1.7279,-1.7279,-1.7279,-1.7279,-1.7279,-1.7279,-1.7279,-1.7279,0.0,-1.7279,-1.7279,-1.7279,-1.7279,-1.7279,-1.7279,-1.7279,-1.7279,-1.7279,-1.7279,-1.7279,-1.7279,-1.7279,-1.7279,-1.7239,-1.7192,-1.7145,-1.7192,-1.7239,-1.7239,-1.7019,-1.6932,-1.6979,-1.6979,-1.7026,-1.7113,-1.8295,-1.8788,-1.8834,-1.9778,-2.0096,-1.9869,-1.9869,-1.9741,-1.9513,-1.9513,-1.9101,-1.8473,-1.8473,-1.7971,-1.7279,-2.1211,-2.1211,-2.1115,-2.0808,-2.0464,-2.0135,-1.9896,-1.9558,-1.9279,-1.9279,-1.9279,-1.9279,-1.9279,-1.9279,-1.9279,-1.9279,-1.9279,-1.9279,-1.9279,-1.9279,-1.9279,-1.9279,-1.9279,-1.9279,-1.9279,-1.9279,-1.9279,-1.9279,-1.9279,-1.9279,-1.9279,-1.9279,-1.9279,-1.9279,-1.9279,-1.9279,-1.9279,-1.9279,-1.9279,-1.9279,-1.9279,-1.9279,-1.9279,-1.9279,-1.9279,-1.9279,-1.9279,-1.9279,-1.9279,-1.9279,-1.9279,-1.9279,-1.9279,-1.9279,-1.9279,-1.9279,-1.9279,-1.9279,-1.9279,-1.9038,-1.8708,-1.8379,-1.8057,-1.7728,-1.7399,-1.7279,-1.7279,-1.7279,-1.7279,-1.7279,-1.7279,-1.7279,-1.7279,-1.7279,0.0,0.0,-1.7279,-1.7279,-1.7279,-1.7279,-1.7279,-1.7279,-1.7279,-1.7279,-1.7279,-1.7279,-1.7279,-1.7279,-1.7279,-1.7113,-1.6925,-1.6683,-1.6878,-1.7026,-1.7026,-1.6784,-1.673,-1.6979,-1.6979,-1.7113,-1.7333,-1.8334,-1.8788,-1.8834,-1.9778,-1.9695,-1.888,-1.888,-1.8326,-1.7512,-1.7512,-1.7466,-1.7419,-1.7419,-1.7372,-1.7279,-2.1211,-2.105,-2.0867,-2.0742,-2.0289,-1.9901,-1.9837,-1.9536,-1.9279,-1.9279,-1.9279,-1.9279,-1.9279,-1.9279,-1.9279,-1.9279,-1.9279,-1.9279,-1.9279,-1.9279,-1.9279,-1.9279,-1.9279,-1.9279,-1.9279,-1.9279,-1.9279,-1.9279,-1.9279,-1.9279,-1.9279,-1.9279,-1.9279,-1.9279,-1.9279,-1.9279,-1.9279,-1.9279,-1.9279,-1.9279,-1.9279,-1.9279,-1.9279,-1.9279,-1.9279,-1.9279,-1.9279,-1.9279,-1.9279,-1.9279,-1.9279,-1.9279,-1.9279,-1.9279,-1.9279,-1.9279,-1.9133,-1.8979,-1.8979,-1.8738,-1.8408,-1.8079,-1.7757,-1.7479,-1.7308,-1.7279,-1.7279,-1.7279,-1.7279,-1.7279,-1.7279,-1.7279,-1.7279,-1.7279,0.0,-1.7279,-1.7279,-1.7279,-1.7279,-1.7279,-1.7279,-1.7279,-1.7279,-1.72,-1.7106,-1.7106,-1.6965,-1.6864,-1.6864,-1.6972,-1.7019,-1.7052,-1.7019,-1.6979,-1.6979,-1.673,-1.673,-1.6979,-1.6979,-1.7019,-1.7113,-1.7652,-1.7878,-1.7878,-1.8241,-1.8195,-1.7878,-1.7878,-1.7645,-1.7279,-1.7279,-1.7279,-1.7279,-1.7279,-1.7279,-1.7279,-2.1079,-2.0874,-2.0662,-2.0457,-2.0055,-1.9779,-1.9676,-1.947,-1.9279,-1.9279,-1.9279,-1.9279,-1.9279,-1.9279,-1.9279,-1.9279,-1.9279,-1.9279,-1.9279,-1.9279,-1.9279,-1.9279,-1.9279,-1.9279,-1.9279,-1.9279,-1.9279,-1.9279,-1.9279,-1.9279,-1.9279,-1.9279,-1.9279,-1.9279,-1.9279,-1.9279,-1.9279,-1.9279,-1.9279,-1.9279,-1.9279,-1.9279,-1.9279,-1.9279,-1.9279,-1.9279,-1.9279,-1.9279,-1.9279,-1.9279,-1.9279,-1.9279,-1.9279,-1.9206,-1.9118,-1.9118,-1.8891,-1.8613,-1.8511,-1.8321,-1.8094,-1.7874,-1.7574,-1.7279,-1.7279,-1.7279,-1.7279,-1.7279,-1.7279,-1.7279,-1.7279,-1.7279,-1.7279,-1.7279,-1.7279,-1.7279,-1.7279,-1.7279,-1.7279,-1.7279,-1.7279,-1.7286,-1.7192,-1.7066,-1.6979,-1.6878,-1.6683,-1.6588,-1.6588,-1.669,-1.6831,-1.6958,-1.6737,-1.665,-1.6744,-1.6636,-1.673,-1.6979,-1.6979,-1.7026,-1.7113,-1.7239,-1.7279,-1.7279,-1.7279,-1.7279,-1.7279,-1.7279,-1.7279,-1.7279,-1.7279,-1.7279,-1.7279,-1.7279,-1.7279,-1.7279,-2.073,-2.0664,-2.0516,-1.9872,-1.9815,-1.9705,-1.9323,-1.9279,-1.9279,-1.9279,-1.9279,-1.9279,-1.9279,-1.9279,-1.9279,-1.9279,-1.9279,-1.9279,-1.9279,-1.9279,-1.9279,-1.9279,-1.9279,-1.9279,-1.9279,-1.9279,-1.9279,-1.9279,-1.9279,-1.9279,-1.9279,-1.9279,-1.9279,-1.9279,-1.9279,-1.9279,-1.9279,-1.9279,-1.9279,-1.9279,-1.9279,-1.9279,-1.9279,-1.9279,-1.9279,-1.9279,-1.9279,-1.9279,-1.9279,-1.9279,-1.9279,-1.9279,-1.9324,-1.9052,-1.8789,-1.8789,-1.8555,-1.8225,-1.7904,-1.7816,-1.7808,-1.7808,-1.7567,-1.7279,-1.7279,-1.7279,-1.7279,-1.7279,-1.7279,-1.7279,-1.7279,-1.7279,-1.7279,-1.7279,-1.7279,-1.7279,-1.7279,-1.7279,-1.7279,-1.7279,-1.7279,-1.7239,-1.7026,-1.6979,-1.6878,-1.6636,-1.6588,-1.6588,-1.6588,-1.6359,-1.6224,-1.6224,-1.5927,-1.5927,-1.6224,-1.6447,-1.673,-1.6979,-1.6979,-1.7113,-1.7279,-1.7279,-1.7279,-1.7279,-1.7279,-1.7279,-1.7279,-1.7279,-1.7279,-1.7279,-1.7279,-1.7279,-1.7279,-1.7279,-1.7279,-1.7279,-1.9758,-2.003,-2.0252,-1.9835,-1.9625,-1.9441,-1.9346,-1.9279,-1.9279,-1.9279,-1.9279,-1.9279,-1.9279,-1.9279,-1.9279,-1.9279,-1.9279,-1.9279,-1.9279,-1.9279,-1.9279,-1.9279,-1.9279,-1.9279,-1.9279,-1.9279,-1.9279,-1.9279,-1.9279,-1.9279,-1.9279,-1.9279,-1.9279,-1.9279,-1.9279,-1.9279,-1.9279,-1.9279,-1.9279,-1.9279,-1.9279,-1.9279,-1.9279,-1.9279,-1.9279,-1.9279,-1.9279,-1.9279,-1.9279,-1.9279,-1.9279,-1.9235,-1.9008,-1.8708,-1.8445,-1.8445,-1.8218,-1.794,-1.7845,-1.7647,-1.7425,-1.7425,-1.7352,-1.7279,-1.7279,-1.7279,-1.7279,-1.7279,-1.7279,-1.7279,-1.7279,-1.7279,-1.7279,-1.7279,-1.7279,-1.7279,-1.7279,-1.7279,-1.7279,-1.7279,-1.72,-1.7073,-1.7026,-1.665,-1.6414,-1.6312,-1.6312,-1.6407,-1.6588,-1.6541,-1.6494,-1.6494,-1.64,-1.64,-1.6494,-1.6359,-1.6454,-1.673,-1.673,-1.673,-1.6817,-1.6817,-1.6817,-1.6817,-1.7012,-1.7113,-1.7113,-1.7239,-1.7279,-1.7279,-1.7279,-1.7279,-1.7279,-1.7279,-1.7279,-1.7279,-1.8672,-1.9099,-1.9445,-1.9131,-1.9186,-1.9279,-1.9279,-1.9279,-1.9279,-1.9279,-1.9279,-1.9279,-1.9279,-1.9279,-1.9279,-1.9279,-1.9279,-1.9279,-1.9279,-1.9279,-1.9279,-1.9279,-1.9279,-1.9279,-1.9279,-1.9279,-1.9279,-1.9279,-1.9279,-1.9279,-1.9279,-1.9279,-1.9279,-1.9279,-1.9279,-1.9279,-1.9279,-1.9279,-1.9279,-1.9279,-1.9279,-1.9279,-1.9279,-1.9279,-1.9279,-1.9279,-1.9279,-1.9279,-1.9257,-1.9125,-1.8994,-1.8855,-1.8657,-1.8372,-1.8108,-1.8108,-1.7882,-1.7625,-1.7625,-1.7432,-1.7279,-1.7279,-1.7279,-1.7279,-1.7279,-1.7279,-1.7279,-1.7279,-1.7279,-1.7279,-1.7279,-1.7279,-1.7279,-1.7279,-1.7279,-1.7286,-1.72,-1.72,-1.7153,-1.7052,-1.6918,-1.6784,-1.6697,-1.6414,-1.6177,-1.6028,-1.6028,-1.617,-1.6447,-1.6353,-1.6353,-1.6447,-1.6353,-1.6298,-1.6298,-1.6116,-1.6211,-1.6588,-1.6588,-1.6588,-1.6588,-1.6588,-1.6636,-1.6784,-1.6932,-1.7073,-1.7106,-1.7239,-1.7279,-1.7279,-1.7279,-1.7279,-1.7279,-1.7279,-1.7279,-1.7279,-1.747,-1.7972,-1.8291,-1.8037,-1.8684,-1.922,-1.9272,-1.9279,-1.9279,-1.9279,-1.9279,-1.9279,-1.9279,-1.9279,-1.9279,-1.9279,-1.9279,-1.9279,-1.9279,-1.9279,-1.9279,-1.9279,-1.9279,-1.9279,-1.9279,-1.9279,-1.9279,-1.9279,-1.9279,-1.9279,-1.9279,-1.9279,-1.9279,-1.9279,-1.9279,-1.9279,-1.9279,-1.9279,-1.9279,-1.9279,-1.9279,-1.9279,-1.9279,-1.9279,-1.9279,-1.9324,-1.9294,-1.9287,-1.9184,-1.8855,-1.8525,-1.8255,-1.8255,-1.8035,-1.7772,-1.7772,-1.756,-1.7279,-1.7279,-1.7279,-1.7279,-1.7279,-1.7279,-1.7279,-1.7279,-1.7279,-1.7279,-1.7279,-1.7279,-1.7279,-1.7279,-1.7279,-1.7279,-1.7279,-1.7279,-1.7192,-1.7026,-1.6979,-1.6878,-1.6636,-1.6588,-1.6447,-1.6224,-1.6177,-1.6076,-1.5832,-1.5832,-1.5927,-1.6177,-1.5981,-1.5933,-1.6177,-1.5927,-1.5784,-1.5784,-1.5784,-1.6069,-1.6541,-1.6541,-1.6541,-1.6541,-1.6541,-1.6683,-1.6932,-1.6932,-1.7066,-1.7239,-1.7239,-1.7239,-1.7239,-1.7239,-1.7239,-1.7239,-1.7239,-1.7239,-1.7239,-1.6281,-1.6915,-1.76,-1.7939,-1.8146,-1.852,-1.922,-1.9279,-1.9279,-1.9279,-1.9279,-1.9279,-1.9279,-1.9279,-1.9279,-1.9279,-1.9279,-1.9279,-1.9279,-1.9279,-1.9279,-1.9279,-1.9279,-1.9279,-1.9279,-1.9279,-1.9279,-1.9279,-1.9279,-1.9279,-1.9279,-1.9279,-1.9279,-1.9279,-1.9279,-1.9279,-1.9279,-1.9279,-1.9279,-1.9279,-1.9279,-1.9279,-1.9279,-1.9279,-1.9279,-1.9294,-1.8986,-1.8891,-1.8847,-1.8518,-1.8196,-1.7918,-1.7918,-1.7699,-1.7388,-1.7388,-1.7337,-1.7279,-1.7279,-1.7279,-1.7279,-1.7279,-1.7279,-1.7279,-1.7279,-1.7279,-1.7279,-1.7279,-1.7279,-1.7279,-1.7279,-1.7279,-1.7279,-1.7279,-1.7153,-1.7073,-1.7026,-1.6831,-1.6683,-1.6636,-1.64,-1.6265,-1.6224,-1.6028,-1.5927,-1.6123,-1.6123,-1.613,-1.6224,-1.6123,-1.6028,-1.5879,-1.5832,-1.5784,-1.5784,-1.5784,-1.5879,-1.5967,-1.5967,-1.5967,-1.5967,-1.5967,-1.6116,-1.6366,-1.6366,-1.6501,-1.677,-1.677,-1.677,-1.677,-1.677,-1.677,-1.677,-1.677,-1.677,-1.677,-1.5232,-1.5849,-1.6473,-1.6749,-1.7457,-1.8146,-1.8632,-1.9004,-1.9279,-1.9279,-1.9279,-1.9279,-1.9279,-1.9279,-1.9279,-1.9279,-1.9279,-1.9279,-1.9279,-1.9279,-1.9279,-1.9279,-1.9279,-1.9279,-1.9279,-1.9279,-1.9279,-1.9279,-1.9279,-1.9279,-1.9279,-1.9279,-1.9279,-1.9279,-1.9279,-1.9279,-1.9279,-1.9279,-1.9279,-1.9279,-1.9279,-1.9279,-1.9257,-1.9103,-1.9045,-1.9001,-1.8672,-1.846,-1.8299,-1.813,-1.7852,-1.7582,-1.7582,-1.7417,-1.7279,-1.7279,-1.7279,-1.7279,-1.7279,-1.7279,-1.7279,-1.7279,-1.7279,-1.7279,-1.7279,-1.7279,-1.7279,-1.7279,-1.7279,-1.7279,-1.7279,-1.7239,-1.7153,-1.7153,-1.6965,-1.6737,-1.665,-1.6501,-1.6353,-1.6204,-1.6069,-1.6028,-1.6028,-1.5879,-1.5879,-1.5981,-1.6028,-1.6028,-1.6028,-1.6028,-1.5927,-1.5784,-1.5784,-1.5784,-1.5784,-1.5784,-1.5784,-1.5784,-1.5784,-1.5784,-1.5784,-1.5784,-1.5927,-1.6224,-1.6224,-1.6359,-1.6588,-1.6588,-1.6588,-1.6588,-1.6588,-1.6588,-1.6588,-1.6588,-1.6588,-1.6588,-1.4482,-1.4907,-1.5298,-1.5452,-1.667,-1.7667,-1.7937,-1.8632,-1.9116,-1.9279,-1.9279,-1.9279,-1.9279,-1.9279,-1.9279,-1.9279,-1.9279,-1.9279,-1.9279,-1.9279,-1.9279,-1.9279,-1.9279,-1.9279,-1.9279,-1.9279,-1.9279,-1.9279,-1.9279,-1.9279,-1.9279,-1.9279,-1.9279,-1.9279,-1.9279,-1.9279,-1.9279,-1.9279,-1.9279,-1.9279,-1.9279,-1.9294,-1.9162,-1.8891,-1.8752,-1.8664,-1.8335,-1.8013,-1.7728,-1.7728,-1.7552,-1.7279,-1.7279,-1.7279,-1.7279,-1.7279,-1.7279,-1.7279,-1.7279,-1.7279,-1.7279,-1.7279,-1.7279,-1.7279,-1.7279,-1.7279,-1.7279,-1.7279,-1.7286,-1.7239,-1.7239,-1.7059,-1.6932,-1.6932,-1.669,-1.6447,-1.6218,-1.6177,-1.6028,-1.5832,-1.5784,-1.5784,-1.5784,-1.5784,-1.5784,-1.5784,-1.5784,-1.5784,-1.5784,-1.5784,-1.5784,-1.5784,-1.5784,-1.5784,-1.5784,-1.5784,-1.5784,-1.5784,-1.5784,-1.5784,-1.5784,-1.5784,-1.5927,-1.6224,-1.617,-1.6265,-1.6541,-1.6494,-1.644,-1.644,-1.644,-1.644,-1.644,-1.644,-1.6487,-1.6541,-1.4277,-1.4321,-1.4617,-1.5351,-1.5666,-1.6352,-1.7772,-1.8094,-1.8468,-1.922,-1.9279,-1.9279,-1.9279,-1.9279,-1.9279,-1.9279,-1.9279,-1.9279,-1.9279,-1.9279,-1.9279,-1.9279,-1.9279,-1.9279,-1.9279,-1.9279,-1.9279,-1.9279,-1.9279,-1.9279,-1.9279,-1.9279,-1.9279,-1.9279,-1.9279,-1.9279,-1.9279,-1.9279,-1.9279,-1.9279,-1.9279,-1.9103,-1.8847,-1.8803,-1.8613,-1.8328,-1.7999,-1.7669,-1.7344,-1.7344,-1.7315,-1.7279,-1.7279,-1.7279,-1.7279,-1.7279,-1.7279,-1.7279,-1.7279,-1.7279,-1.7279,-1.7279,-1.7279,-1.7279,-1.7279,-1.7279,-1.7279,-1.7279,-1.7153,-1.7019,-1.7019,-1.6831,-1.6636,-1.6636,-1.6454,-1.6224,-1.6224,-1.5981,-1.5832,-1.5784,-1.5784,-1.5784,-1.5784,-1.5784,-1.5784,-1.5784,-1.5784,-1.5784,-1.5784,-1.5784,-1.5784,-1.5784,-1.5784,-1.5784,-1.5784,-1.5784,-1.5784,-1.5784,-1.5784,-1.5784,-1.5784,-1.5784,-1.5927,-1.6177,-1.5927,-1.6021,-1.6224,-1.6021,-1.5927,-1.5927,-1.5927,-1.5927,-1.5927,-1.5927,-1.6069,-1.6265,-1.3222,-1.3207,-1.331,-1.3678,-1.4153,-1.4948,-1.6346,-1.6975,-1.766,-1.8632,-1.8795,-1.8855,-1.9078,-1.9227,-1.9279,-1.9279,-1.9279,-1.9279,-1.9279,-1.9279,-1.9279,-1.9279,-1.9279,-1.9279,-1.9279,-1.9279,-1.9227,-1.9078,-1.9227,-1.9279,-1.9279,-1.9279,-1.9279,-1.9279,-1.9279,-1.9279,-1.9279,-1.9279,-1.9169,-1.9001,-1.9001,-1.8811,-1.8496,-1.8313,-1.8152,-1.7984,-1.7662,-1.745,-1.7279,-1.7279,-1.7279,-1.7279,-1.7279,-1.7279,-1.7279,-1.7279,-1.7279,-1.7279,-1.7279,-1.7279,-1.7279,-1.7279,-1.7279,-1.7279,-1.7279,-1.7192,-1.7106,-1.7106,-1.7066,-1.6932,-1.6784,-1.6548,-1.6359,-1.6359,-1.6163,-1.5981,-1.5981,-1.5879,-1.5784,-1.5784,-1.5784,-1.5784,-1.5784,-1.5784,-1.5784,-1.5784,-1.5784,-1.5784,-1.5784,-1.5784,-1.5784,-1.5784,-1.5784,-1.5784,-1.5784,-1.5784,-1.5784,-1.5784,-1.5784,-1.5784,-1.5784,-1.5784,-1.5879,-1.5981,-1.5832,-1.5879,-1.5981,-1.5832,-1.5784,-1.5784,-1.5784,-1.5784,-1.5784,-1.5784,-1.5981,-1.6224]}]]